[[{"header":{"parameterUnit":"m.s-1","parameterCategory":1,"la1":31.0,"la2":29.5877,"lo1":-88.7671,"lo2":-86.6584,"dy":0.0162,"dx":0.0185,"nx":115,"ny":88,"refTime":"2026-03-17T12:00:00:Z","depth":0,"parameterNumber":2,"parameterNumberName":"U-component_of_WINDS"},"data":[0.0,0.0,0.0,0.0,0.0,0.0,0.0,0.0,0.0,0.0,0.0,0.0,0.0,0.0,0.0,0.0,0.0,0.0,0.0,0.0,0.0,0.0,0.0,0.0,0.0,0.0,0.0,0.0,0.0,0.0,0.0,0.0,0.0,0.0,0.0,0.0,0.0,0.0,0.0,0.0,0.0,0.0,0.0,0.0,0.0,0.0,0.0,0.0,0.0,0.0,0.0,0.0,0.0,0.0,0.0,0.0,0.0,0.0,0.0,0.0,0.0,0.0,0.0,0.0,0.0,0.0,0.0,0.0,0.0,0.0,0.0,0.0,0.0,0.0,0.0,0.0,0.0,0.0,0.0,0.0,0.0,0.0,0.0,0.0,0.0,0.0,0.0,0.0,0.0,0.0,0.0,0.0,0.0,0.0,0.0,0.0,0.0,0.0,0.0,0.0,0.0,0.0,0.0,0.0,0.0,0.0,0.0,0.0,0.0,0.0,0.0,0.0,0.0,0.0,0.0,0.0,0.0,0.0,0.0,0.0,0.0,0.0,0.0,0.0,0.0,0.0,0.0,0.0,0.0,0.0,0.0,0.0,0.0,0.0,0.0,0.0,0.0,0.0,0.0,0.0,0.0,0.0,0.0,0.0,0.0,0.0,0.0,0.0,0.0,0.0,0.0,0.0,0.0,0.0,0.0,0.0,0.0,0.0,0.0,0.0,0.0,0.0,0.0,0.0,0.0,0.0,0.0,0.0,0.0,0.0,0.0,0.0,0.0,0.0,0.0,0.0,0.0,0.0,0.0,0.0,0.0,0.0,0.0,0.0,0.0,0.0,0.0,0.0,0.0,0.0,0.0,0.0,0.0,0.0,0.0,0.0,0.0,0.0,0.0,0.0,0.0,0.0,0.0,0.0,0.0,0.0,0.0,0.0,0.0,0.0,0.0,0.0,0.0,0.0,0.0,0.0,0.0,0.0,0.0,0.0,0.0,0.0,0.0,0.0,0.0,0.0,0.0,0.0,0.0,0.0,0.0,0.0,0.0,0.0,0.0,0.0,0.0,0.0,0.0,0.0,0.0,0.0,0.0,0.0,0.0,0.0,0.0,0.0,0.0,0.0,0.0,0.0,0.0,0.0,0.0,0.0,0.0,0.0,0.0,0.0,0.0,0.0,0.0,0.0,0.0,0.0,0.0,0.0,0.0,0.0,0.0,0.0,0.0,0.0,0.0,0.0,0.0,0.0,0.0,0.0,0.0,0.0,0.0,0.0,0.0,0.0,0.0,0.0,0.0,0.0,0.0,0.0,0.0,0.0,0.0,0.0,0.0,0.0,0.0,0.0,0.0,0.0,0.0,0.0,0.0,0.0,0.0,0.0,0.0,0.0,0.0,0.0,0.0,0.0,0.0,0.0,0.0,0.0,0.0,0.0,0.0,0.0,0.0,0.0,0.0,0.0,0.0,0.0,0.0,0.0,0.0,0.0,0.0,0.0,0.0,0.0,0.0,0.0,0.0,0.0,0.0,0.0,0.0,0.0,0.0,0.0,0.0,0.0,0.0,0.0,0.0,0.0,0.0,0.0,0.0,0.0,0.0,0.0,0.0,0.0,0.0,0.0,0.0,0.0,0.0,0.0,0.0,0.0,0.0,0.0,0.0,0.0,0.0,0.0,0.0,0.0,0.0,0.0,0.0,0.0,0.0,0.0,0.0,0.0,0.0,0.0,0.0,0.0,0.0,0.0,0.0,0.0,0.0,0.0,0.0,0.0,0.0,0.0,0.0,0.0,0.0,0.0,0.0,0.0,0.0,0.0,0.0,0.0,0.0,0.0,0.0,0.0,0.0,0.0,0.0,0.0,0.0,0.0,0.0,0.0,0.0,0.0,0.0,0.0,0.0,0.0,0.0,0.0,0.0,0.0,0.0,0.0,0.0,0.0,0.0,0.0,0.0,0.0,0.0,0.0,0.0,0.0,0.0,0.0,0.0,0.0,0.0,0.0,0.0,0.0,0.0,0.0,0.0,0.0,0.0,0.0,0.0,0.0,0.0,0.0,0.0,0.0,0.0,0.0,0.0,0.0,0.0,0.0,0.0,0.0,0.0,0.0,0.0,0.0,0.0,0.0,0.0,0.0,0.0,0.0,0.0,0.0,0.0,0.0,0.0,0.0,0.0,0.0,0.0,0.0,0.0,0.0,0.0,0.0,0.0,0.0,0.0,0.0,0.0,0.0,0.0,0.0,0.0,0.0,0.0,0.0,0.0,0.0,0.0,0.0,0.0,0.0,0.0,0.0,0.0,0.0,0.0,0.0,0.0,0.0,0.0,0.0,0.0,0.0,0.0,0.0,0.0,0.0,0.0,0.0,0.0,0.0,0.0,0.0,0.0,0.0,0.0,0.0,0.0,0.0,0.0,0.0,0.0,0.0,0.0,0.0,0.0,0.0,0.0,0.0,0.0,0.0,0.0,0.0,0.0,0.0,0.0,0.0,0.0,0.0,0.0,0.0,0.0,0.0,0.0,0.0,0.0,0.0,0.0,0.0,0.0,0.0,0.0,0.0,0.0,0.0,0.0,0.0,0.0,0.0,0.0,0.0,0.0,0.0,0.0,0.0,0.0,0.0,0.0,0.0,0.0,0.0,0.0,0.0,0.0,0.0,0.0,0.0,0.0,0.0,0.0,0.0,0.0,0.0,0.0,0.0,0.0,0.0,0.0,0.0,0.0,0.0,0.0,0.0,0.0,0.0,0.0,0.0,0.0,0.0,0.0,0.0,0.0,0.0,0.0,0.0,0.0,0.0,0.0,0.0,0.0,0.0,0.0,0.0,0.0,0.0,0.0,0.0,0.0,0.0,0.0,0.0,0.0,0.0,0.0,0.0,0.0,0.0,0.0,0.0,0.0,0.0,0.0,0.0,0.0,0.0,0.0,0.0,0.0,0.0,0.0,0.0,0.0,0.0,0.0,0.0,0.0,0.0,0.0,0.0,0.0,0.0,0.0,0.0,0.0,0.0,0.0,0.0,0.0,0.0,0.0,0.0,0.0,0.0,0.0,0.0,0.0,0.0,0.0,0.0,0.0,0.0,0.0,0.0,0.0,0.0,0.0,0.0,0.0,0.0,0.0,0.0,0.0,0.0,0.0,0.0,0.0,0.0,0.0,0.0,0.0,0.0,0.0,0.0,0.0,0.0,0.0,0.0,0.0,0.0,0.0,0.0,0.0,0.0,0.0,0.0,0.0,0.0,0.0,0.0,0.0,0.0,0.0,0.0,0.0,0.0,0.0,0.0,0.0,0.0,0.0,0.0,0.0,0.0,0.0,0.0,0.0,0.0,0.0,0.0,0.0,0.0,0.0,0.0,0.0,0.0,0.0,0.0,0.0,0.0,0.0,0.0,0.0,0.0,0.0,0.0,0.0,0.0,0.0,0.0,0.0,0.0,0.0,0.0,0.0,0.0,0.0,0.0,0.0,0.0,0.0,0.0,0.0,0.0,0.0,0.0,0.0,0.0,0.0,0.0,0.0,0.0,0.0,0.0,0.0,0.0,0.0,0.0,0.0,0.0,0.0,0.0,0.0,0.0,0.0,0.0,0.0,0.0,0.0,0.0,0.0,0.0,0.0,0.0,0.0,0.0,0.0,0.0,0.0,0.0,0.0,0.0,0.0,0.0,0.0,0.0,0.0,0.0,0.0,0.0,0.0,0.0,0.0,0.0,0.0,0.0,0.0,0.0,0.0,0.0,0.0,0.0,0.0,0.0,0.0,0.0,0.0,0.0,0.0,0.0,0.0,0.0,0.0,0.0,0.0,0.0,0.0,0.0,0.0,0.0,0.0,0.0,0.0,0.0,0.0,0.0,0.0,0.0,0.0,0.0,0.0,0.0,0.0,0.0,0.0,0.0,0.0,0.0,0.0,0.0,0.0,0.0,0.0,0.0,0.0,0.0,0.0,0.0,0.0,0.0,0.0,0.0,0.0,0.0,0.0,0.0,0.0,0.0,0.0,0.0,0.0,0.0,0.0,0.0,0.0,0.0,0.0,0.0,0.0,0.0,0.0,0.0,0.0,0.0,0.0,0.0,0.0,0.0,0.0,0.0,0.0,0.0,0.0,0.0,0.0,0.0,0.0,0.0,0.0,0.0,0.0,0.0,0.0,0.0,0.0,0.0,0.0,0.0,0.0,0.0,0.0,0.0,0.0,0.0,0.0,0.0,0.0,0.0,0.0,0.0,0.0,0.0,0.0,0.0,0.0,0.0,0.0,0.0,0.0,0.0,0.0,0.0,0.0,0.0,0.0,0.0,-1.4267,0.0,0.0,0.0,0.0,0.0,0.0,0.0,0.0,0.0,0.0,0.0,0.0,0.0,0.0,0.0,0.0,0.0,0.0,0.0,0.0,0.0,0.0,0.0,0.0,0.0,0.0,0.0,0.0,0.0,0.0,0.0,0.0,0.0,0.0,0.0,0.0,0.0,0.0,0.0,0.0,0.0,0.0,0.0,0.0,0.0,0.0,0.0,0.0,0.0,0.0,0.0,0.0,0.0,0.0,0.0,0.0,0.0,0.0,0.0,0.0,0.0,0.0,0.0,0.0,0.0,0.0,0.0,0.0,0.0,0.0,0.0,0.0,0.0,0.0,0.0,0.0,0.0,0.0,0.0,0.0,0.0,0.0,0.0,0.0,0.0,0.0,0.0,0.0,0.0,0.0,0.0,0.0,0.0,0.0,0.0,0.0,0.0,0.0,0.0,0.0,0.0,0.0,0.0,0.0,0.0,0.0,0.0,0.0,0.0,0.0,-1.6194,-1.6194,-1.5825,-1.5206,-1.4252,0.0,0.0,0.0,0.0,0.0,0.0,0.0,0.0,0.0,0.0,0.0,0.0,0.0,0.0,0.0,0.0,0.0,0.0,0.0,0.0,0.0,0.0,0.0,0.0,0.0,0.0,0.0,0.0,0.0,0.0,0.0,0.0,0.0,0.0,0.0,0.0,0.0,0.0,0.0,0.0,0.0,0.0,0.0,0.0,0.0,0.0,0.0,0.0,0.0,0.0,0.0,0.0,0.0,0.0,0.0,0.0,0.0,0.0,0.0,0.0,0.0,0.0,0.0,0.0,0.0,0.0,0.0,0.0,0.0,0.0,0.0,0.0,0.0,0.0,0.0,0.0,0.0,0.0,0.0,0.0,0.0,0.0,0.0,0.0,0.0,0.0,0.0,0.0,0.0,0.0,0.0,0.0,0.0,0.0,0.0,0.0,0.0,0.0,0.0,0.0,0.0,0.0,0.0,0.0,0.0,0.0,0.0,0.0,0.0,0.0,0.0,0.0,-1.5918,-1.5283,-1.4467,0.0,0.0,0.0,0.0,0.0,0.0,0.0,0.0,0.0,0.0,0.0,0.0,0.0,0.0,0.0,0.0,0.0,0.0,0.0,0.0,0.0,0.0,0.0,0.0,0.0,0.0,0.0,0.0,0.0,0.0,0.0,0.0,0.0,0.0,0.0,0.0,0.0,0.0,0.0,0.0,0.0,0.0,0.0,0.0,0.0,0.0,0.0,0.0,0.0,0.0,0.0,0.0,0.0,0.0,0.0,0.0,0.0,0.0,0.0,0.0,0.0,0.0,0.0,0.0,0.0,0.0,0.0,0.0,0.0,0.0,0.0,0.0,0.0,0.0,0.0,0.0,0.0,0.0,0.0,0.0,0.0,0.0,0.0,0.0,0.0,0.0,0.0,0.0,0.0,0.0,0.0,0.0,0.0,0.0,0.0,0.0,0.0,0.0,0.0,0.0,0.0,0.0,0.0,0.0,0.0,0.0,0.0,0.0,0.0,0.0,-1.6471,-1.7085,-1.7024,0.0,-1.5222,0.0,0.0,0.0,0.0,0.0,0.0,0.0,0.0,0.0,0.0,0.0,0.0,0.0,0.0,0.0,0.0,0.0,0.0,0.0,0.0,0.0,0.0,0.0,0.0,0.0,0.0,0.0,0.0,0.0,0.0,0.0,0.0,0.0,0.0,0.0,0.0,0.0,0.0,0.0,0.0,0.0,0.0,0.0,0.0,0.0,0.0,0.0,0.0,0.0,0.0,0.0,0.0,0.0,0.0,0.0,0.0,0.0,0.0,0.0,0.0,0.0,0.0,0.0,0.0,0.0,0.0,0.0,0.0,0.0,0.0,0.0,0.0,0.0,0.0,0.0,0.0,0.0,0.0,0.0,0.0,0.0,0.0,0.0,0.0,0.0,0.0,0.0,0.0,0.0,0.0,0.0,0.0,0.0,0.0,0.0,0.0,0.0,0.0,0.0,0.0,0.0,0.0,0.0,0.0,0.0,0.0,0.0,0.0,0.0,0.0,0.0,-1.7178,-1.6268,-1.5346,0.0,0.0,0.0,0.0,0.0,0.0,0.0,0.0,0.0,0.0,0.0,0.0,0.0,0.0,0.0,0.0,0.0,0.0,0.0,0.0,0.0,0.0,0.0,0.0,0.0,0.0,0.0,0.0,0.0,0.0,0.0,0.0,0.0,0.0,0.0,0.0,0.0,0.0,0.0,0.0,0.0,0.0,0.0,0.0,0.0,0.0,0.0,0.0,0.0,0.0,0.0,0.0,0.0,0.0,0.0,0.0,0.0,0.0,0.0,0.0,0.0,0.0,0.0,0.0,0.0,0.0,0.0,0.0,0.0,0.0,0.0,0.0,0.0,0.0,0.0,0.0,0.0,0.0,0.0,0.0,0.0,0.0,0.0,0.0,0.0,0.0,0.0,0.0,0.0,0.0,0.0,0.0,0.0,0.0,0.0,0.0,0.0,0.0,0.0,0.0,0.0,0.0,0.0,0.0,0.0,0.0,0.0,0.0,0.0,0.0,-1.6041,0.0,-1.7087,-1.5972,-1.4749,-1.3575,0.0,0.0,0.0,0.0,0.0,0.0,0.0,0.0,0.0,0.0,0.0,0.0,0.0,0.0,0.0,0.0,0.0,0.0,0.0,0.0,0.0,0.0,0.0,0.0,0.0,0.0,0.0,0.0,0.0,0.0,0.0,0.0,0.0,0.0,0.0,0.0,0.0,0.0,0.0,0.0,0.0,0.0,0.0,0.0,0.0,0.0,0.0,0.0,0.0,0.0,0.0,0.0,0.0,0.0,0.0,0.0,0.0,0.0,0.0,0.0,0.0,0.0,0.0,0.0,0.0,0.0,0.0,0.0,0.0,0.0,0.0,0.0,0.0,0.0,0.0,0.0,0.0,0.0,0.0,0.0,0.0,0.0,0.0,0.0,0.0,0.0,0.0,0.0,0.0,0.0,0.0,0.0,0.0,0.0,0.0,0.0,0.0,0.0,0.0,0.0,0.0,0.0,0.0,0.0,0.0,0.0,0.0,0.0,0.0,-1.6486,-1.6517,-1.7163,-1.6759,-1.5397,0.0,0.0,0.0,0.0,0.0,0.0,0.0,0.0,0.0,0.0,0.0,0.0,0.0,0.0,0.0,0.0,0.0,0.0,0.0,0.0,0.0,0.0,0.0,0.0,0.0,0.0,0.0,0.0,0.0,0.0,0.0,0.0,0.0,0.0,0.0,0.0,0.0,0.0,0.0,0.0,0.0,0.0,0.0,0.0,0.0,0.0,0.0,0.0,0.0,0.0,0.0,0.0,0.0,0.0,0.0,0.0,0.0,0.0,0.0,0.0,0.0,0.0,0.0,0.0,0.0,0.0,0.0,0.0,0.0,0.0,0.0,0.0,0.0,0.0,0.0,0.0,0.0,0.0,0.0,0.0,0.0,0.0,0.0,0.0,0.0,0.0,0.0,0.0,0.0,0.0,0.0,0.0,0.0,0.0,0.0,0.0,0.0,0.0,0.0,0.0,0.0,0.0,0.0,0.0,0.0,0.0,0.0,0.0,0.0,-1.4173,-1.4797,-1.5931,-1.7501,-1.5507,-1.4233,0.0,0.0,0.0,0.0,0.0,0.0,0.0,0.0,0.0,0.0,0.0,0.0,0.0,0.0,0.0,0.0,0.0,0.0,0.0,0.0,0.0,0.0,0.0,0.0,0.0,0.0,0.0,0.0,0.0,0.0,0.0,0.0,0.0,0.0,0.0,0.0,0.0,0.0,0.0,0.0,0.0,0.0,0.0,0.0,0.0,0.0,0.0,0.0,0.0,0.0,0.0,0.0,0.0,0.0,0.0,0.0,0.0,0.0,0.0,0.0,0.0,0.0,0.0,0.0,0.0,0.0,0.0,0.0,0.0,0.0,0.0,0.0,0.0,0.0,0.0,0.0,0.0,0.0,0.0,0.0,0.0,0.0,0.0,0.0,0.0,0.0,0.0,0.0,0.0,0.0,0.0,0.0,0.0,0.0,0.0,0.0,0.0,0.0,0.0,0.0,0.0,0.0,0.0,0.0,0.0,0.0,0.0,0.0,0.0,-1.3391,0.0,-1.5859,0.0,-1.4833,-1.347,0.0,0.0,0.0,0.0,0.0,0.0,0.0,0.0,0.0,0.0,0.0,0.0,0.0,0.0,0.0,0.0,0.0,0.0,0.0,0.0,0.0,0.0,0.0,0.0,0.0,0.0,0.0,0.0,0.0,0.0,0.0,0.0,0.0,0.0,0.0,0.0,0.0,0.0,0.0,0.0,0.0,0.0,0.0,0.0,0.0,0.0,0.0,0.0,0.0,0.0,0.0,0.0,0.0,0.0,0.0,0.0,0.0,0.0,0.0,0.0,0.0,0.0,0.0,0.0,0.0,0.0,0.0,0.0,0.0,0.0,0.0,0.0,0.0,0.0,0.0,0.0,0.0,0.0,0.0,0.0,0.0,0.0,0.0,0.0,0.0,0.0,0.0,0.0,0.0,0.0,0.0,0.0,0.0,0.0,0.0,0.0,0.0,0.0,0.0,0.0,0.0,0.0,0.0,0.0,0.0,0.0,0.0,0.0,-1.2675,-1.5154,-1.629,-1.6362,-1.5386,-1.4862,-1.3277,0.0,0.0,0.0,0.0,0.0,0.0,0.0,0.0,0.0,0.0,0.0,0.0,0.0,0.0,0.0,0.0,0.0,0.0,0.0,0.0,0.0,0.0,0.0,0.0,0.0,0.0,0.0,0.0,0.0,0.0,0.0,0.0,0.0,0.0,0.0,0.0,0.0,0.0,0.0,0.0,0.0,0.0,0.0,0.0,0.0,0.0,0.0,0.0,0.0,0.0,0.0,0.0,0.0,0.0,0.0,0.0,0.0,0.0,0.0,0.0,0.0,0.0,0.0,0.0,0.0,0.0,0.0,0.0,0.0,0.0,0.0,0.0,0.0,0.0,0.0,0.0,0.0,0.0,0.0,0.0,0.0,0.0,0.0,0.0,0.0,0.0,0.0,0.0,0.0,0.0,0.0,0.0,0.0,0.0,0.0,0.0,0.0,0.0,0.0,0.0,0.0,0.0,0.0,0.0,0.0,0.0,0.0,0.0,0.0,-1.3968,-1.4745,-1.5515,-1.6175,-1.4204,-1.3023,0.0,0.0,0.0,0.0,0.0,0.0,0.0,0.0,0.0,0.0,0.0,0.0,0.0,0.0,0.0,0.0,0.0,0.0,0.0,0.0,0.0,0.0,0.0,0.0,0.0,0.0,0.0,0.0,0.0,0.0,0.0,0.0,0.0,0.0,0.0,0.0,0.0,0.0,0.0,0.0,0.0,0.0,0.0,0.0,0.0,0.0,0.0,0.0,0.0,0.0,0.0,0.0,0.0,0.0,0.0,0.0,0.0,0.0,0.0,0.0,0.0,0.0,0.0,0.0,0.0,0.0,0.0,0.0,0.0,0.0,0.0,0.0,0.0,0.0,0.0,0.0,0.0,0.0,0.0,0.0,0.0,0.0,0.0,0.0,0.0,0.0,0.0,0.0,0.0,0.0,0.0,0.0,0.0,0.0,0.0,0.0,0.0,0.0,0.0,0.0,0.0,0.0,0.0,0.0,0.0,0.0,0.0,0.0,0.0,-1.4923,-1.5286,-1.591,-1.6806,-1.4536,-1.3337,-1.3359,0.0,0.0,0.0,0.0,0.0,0.0,0.0,0.0,0.0,0.0,0.0,0.0,0.0,0.0,0.0,0.0,0.0,0.0,0.0,0.0,0.0,0.0,0.0,0.0,0.0,0.0,0.0,0.0,0.0,0.0,0.0,0.0,0.0,0.0,0.0,0.0,0.0,0.0,0.0,0.0,0.0,0.0,0.0,0.0,0.0,0.0,0.0,0.0,0.0,0.0,0.0,0.0,0.0,0.0,0.0,0.0,0.0,0.0,0.0,0.0,0.0,0.0,0.0,0.0,0.0,0.0,0.0,0.0,0.0,0.0,0.0,0.0,0.0,0.0,0.0,0.0,0.0,0.0,0.0,0.0,0.0,0.0,0.0,0.0,0.0,0.0,0.0,0.0,0.0,0.0,0.0,0.0,0.0,0.0,0.0,0.0,0.0,0.0,0.0,0.0,0.0,0.0,0.0,0.0,0.0,0.0,0.0,0.0,-1.7583,-1.7568,-1.7411,-1.707,-1.5617,-1.4139,0.0,0.0,0.0,0.0,0.0,0.0,0.0,0.0,0.0,0.0,0.0,0.0,0.0,0.0,0.0,0.0,0.0,0.0,0.0,0.0,0.0,0.0,0.0,0.0,0.0,0.0,0.0,0.0,0.0,0.0,0.0,0.0,0.0,0.0,0.0,0.0,0.0,0.0,0.0,0.0,0.0,0.0,0.0,0.0,0.0,0.0,0.0,0.0,0.0,0.0,0.0,0.0,0.0,0.0,0.0,0.0,0.0,0.0,0.0,0.0,0.0,0.0,0.0,0.0,0.0,0.0,0.0,0.0,0.0,0.0,0.0,0.0,0.0,0.0,0.0,0.0,0.0,0.0,0.0,0.0,0.0,0.0,0.0,0.0,0.0,0.0,0.0,0.0,0.0,0.0,0.0,0.0,0.0,0.0,0.0,0.0,0.0,0.0,0.0,0.0,0.0,0.0,0.0,0.0,0.0,0.0,0.0,0.0,0.0,-1.8715,-1.872,-1.8455,-1.7998,-1.5947,-1.4445,0.0,0.0,0.0,0.0,0.0,0.0,0.0,0.0,0.0,0.0,0.0,0.0,0.0,0.0,0.0,0.0,0.0,0.0,0.0,0.0,0.0,0.0,0.0,0.0,0.0,0.0,0.0,0.0,0.0,0.0,0.0,0.0,0.0,0.0,0.0,0.0,0.0,0.0,0.0,0.0,0.0,0.0,0.0,0.0,0.0,0.0,0.0,0.0,0.0,0.0,0.0,0.0,0.0,0.0,0.0,0.0,0.0,0.0,0.0,0.0,0.0,0.0,0.0,0.0,0.0,0.0,0.0,0.0,0.0,0.0,0.0,0.0,0.0,0.0,0.0,0.0,0.0,0.0,0.0,0.0,0.0,0.0,0.0,0.0,0.0,0.0,0.0,0.0,0.0,0.0,0.0,0.0,0.0,0.0,0.0,0.0,0.0,0.0,0.0,0.0,0.0,0.0,0.0,0.0,0.0,0.0,0.0,0.0,-1.7168,-1.9483,-1.976,-1.9687,-1.9357,-1.7297,-1.5729,0.0,0.0,0.0,0.0,0.0,0.0,0.0,0.0,0.0,0.0,0.0,0.0,0.0,0.0,0.0,0.0,0.0,0.0,0.0,0.0,0.0,0.0,0.0,0.0,0.0,0.0,0.0,0.0,0.0,0.0,0.0,0.0,0.0,0.0,0.0,0.0,0.0,0.0,0.0,0.0,0.0,0.0,0.0,0.0,0.0,0.0,0.0,0.0,0.0,0.0,0.0,0.0,0.0,0.0,0.0,0.0,0.0,0.0,0.0,0.0,0.0,0.0,0.0,0.0,0.0,0.0,0.0,0.0,0.0,0.0,0.0,0.0,0.0,0.0,0.0,0.0,0.0,0.0,0.0,0.0,0.0,0.0,0.0,0.0,0.0,0.0,0.0,0.0,0.0,0.0,0.0,0.0,0.0,0.0,0.0,0.0,0.0,0.0,0.0,0.0,0.0,0.0,0.0,0.0,0.0,0.0,0.0,0.0,-1.7784,-1.993,-2.0641,-2.0943,-2.083,-1.9068,-1.7332,0.0,0.0,0.0,0.0,0.0,0.0,0.0,0.0,0.0,0.0,0.0,0.0,0.0,0.0,0.0,0.0,0.0,0.0,0.0,0.0,0.0,0.0,0.0,0.0,0.0,0.0,0.0,0.0,0.0,0.0,0.0,0.0,0.0,0.0,0.0,0.0,0.0,0.0,0.0,0.0,0.0,0.0,0.0,0.0,0.0,0.0,0.0,0.0,0.0,0.0,0.0,0.0,0.0,0.0,0.0,0.0,0.0,0.0,0.0,0.0,0.0,0.0,0.0,0.0,0.0,0.0,0.0,0.0,0.0,0.0,0.0,0.0,0.0,0.0,0.0,0.0,0.0,0.0,0.0,0.0,0.0,0.0,0.0,0.0,0.0,0.0,0.0,0.0,0.0,0.0,0.0,0.0,0.0,0.0,0.0,0.0,0.0,0.0,0.0,0.0,0.0,0.0,0.0,0.0,0.0,0.0,0.0,0.0,-1.8956,-2.108,-2.1417,-2.172,-2.2008,-1.9473,-1.729,0.0,0.0,0.0,0.0,0.0,0.0,0.0,0.0,0.0,0.0,0.0,0.0,0.0,0.0,0.0,0.0,0.0,0.0,0.0,0.0,0.0,0.0,0.0,0.0,0.0,0.0,0.0,0.0,0.0,0.0,0.0,0.0,0.0,0.0,0.0,0.0,0.0,0.0,0.0,0.0,0.0,0.0,0.0,0.0,0.0,0.0,0.0,0.0,-0.4884,0.0,0.0,0.0,0.0,0.0,0.0,0.0,0.0,0.0,0.0,0.0,0.0,0.0,0.0,0.0,0.0,0.0,0.0,0.0,0.0,0.0,0.0,0.0,0.0,0.0,0.0,0.0,0.0,0.0,0.0,0.0,0.0,0.0,0.0,0.0,0.0,0.0,0.0,0.0,0.0,0.0,0.0,0.0,0.0,0.0,0.0,0.0,0.0,0.0,0.0,0.0,0.0,0.0,0.0,0.0,0.0,0.0,0.0,0.0,-1.9507,-2.1433,-2.1839,-2.2127,-2.2283,-2.0113,-1.8074,0.0,0.0,0.0,0.0,0.0,0.0,0.0,0.0,0.0,0.0,0.0,0.0,0.0,0.0,0.0,0.0,0.0,0.0,0.0,0.0,0.0,0.0,0.0,0.0,0.0,0.0,0.0,0.0,0.0,0.0,0.0,0.0,0.0,0.0,0.0,0.0,0.0,0.0,0.0,0.0,0.0,0.0,0.0,0.0,0.0,0.0,0.0,0.0,0.0,0.0,0.0,0.0,0.0,0.0,0.0,0.0,0.0,0.0,0.0,0.0,0.0,0.0,0.0,0.0,0.0,0.0,0.0,0.0,0.0,0.0,0.0,0.0,0.0,0.0,0.0,0.0,0.0,0.0,0.0,0.0,0.0,0.0,0.0,0.0,0.0,0.0,0.0,0.0,0.0,0.0,0.0,0.0,0.0,0.0,0.0,0.0,0.0,0.0,0.0,0.0,0.0,0.0,0.0,0.0,0.0,0.0,0.0,-1.763,-1.9786,-2.1564,-2.2139,-2.2387,-2.2389,-2.0688,-1.8989,-1.7251,0.0,0.0,0.0,0.0,0.0,0.0,0.0,0.0,0.0,0.0,0.0,0.0,0.0,0.0,0.0,0.0,0.0,0.0,0.0,0.0,0.0,0.0,0.0,0.0,0.0,0.0,0.0,0.0,0.0,0.0,0.0,0.0,0.0,0.0,0.0,0.0,0.0,0.0,-0.5148,-0.5921,0.0,0.0,0.0,0.0,0.0,0.0,0.0,0.0,-0.5395,0.0,0.0,0.0,0.0,0.0,0.0,0.0,0.0,0.0,0.0,0.0,0.0,0.0,0.0,0.0,0.0,0.0,0.0,0.0,0.0,0.0,0.0,0.0,0.0,0.0,0.0,0.0,0.0,0.0,0.0,0.0,0.0,0.0,0.0,0.0,0.0,0.0,0.0,0.0,0.0,0.0,0.0,0.0,0.0,0.0,0.0,0.0,0.0,0.0,0.0,0.0,0.0,0.0,0.0,0.0,0.0,-1.7718,-1.8524,-1.9982,-2.2205,-2.2376,-2.2428,-2.2376,-2.0701,-1.8989,-1.7238,0.0,0.0,0.0,0.0,0.0,0.0,0.0,0.0,0.0,0.0,0.0,0.0,0.0,0.0,0.0,0.0,0.0,0.0,0.0,0.0,0.0,0.0,0.0,0.0,0.0,0.0,0.0,0.0,0.0,0.0,0.0,0.0,0.0,0.0,0.0,0.0,0.0,0.0,0.0,-0.6673,-0.7072,0.0,0.0,0.0,0.0,0.0,0.0,0.0,0.0,-0.5539,0.0,0.0,0.0,0.0,0.0,0.0,0.0,0.0,0.0,0.0,0.0,0.0,0.0,0.0,0.0,0.0,0.0,0.0,0.0,0.0,0.0,0.0,0.0,0.0,0.0,0.0,0.0,0.0,0.0,0.0,0.0,0.0,0.0,0.0,0.0,0.0,0.0,0.0,0.0,0.0,0.0,0.0,0.0,0.0,0.0,0.0,0.0,0.0,0.0,0.0,0.0,0.0,0.0,0.0,0.0,-1.724,-1.8996,-2.0649,-2.2309,-2.2428,-2.2428,-2.2335,-2.0139,-1.8375,0.0,0.0,0.0,0.0,0.0,0.0,0.0,0.0,0.0,0.0,0.0,0.0,0.0,0.0,0.0,0.0,0.0,0.0,0.0,0.0,0.0,0.0,0.0,0.0,0.0,0.0,0.0,0.0,0.0,0.0,0.0,0.0,0.0,0.0,0.0,0.0,0.0,0.0,0.0,0.0,-0.7009,-0.7438,-0.7371,0.0,0.0,0.0,0.0,0.0,0.0,-0.6067,-0.5683,0.0,0.0,0.0,0.0,0.0,0.0,0.0,0.0,0.0,0.0,0.0,0.0,0.0,0.0,0.0,0.0,0.0,0.0,0.0,0.0,0.0,0.0,0.0,0.0,0.0,0.0,0.0,0.0,0.0,0.0,0.0,0.0,0.0,0.0,0.0,0.0,0.0,0.0,0.0,0.0,0.0,0.0,0.0,0.0,0.0,0.0,0.0,0.0,0.0,0.0,0.0,0.0,0.0,0.0,0.0,-1.6492,-1.9015,-2.0923,-2.2165,-2.2204,-2.2204,-2.2178,-1.9656,-1.7931,0.0,0.0,0.0,0.0,0.0,0.0,0.0,0.0,0.0,0.0,0.0,0.0,0.0,0.0,0.0,0.0,0.0,0.0,0.0,0.0,0.0,0.0,0.0,0.0,0.0,0.0,0.0,0.0,0.0,0.0,0.0,0.0,0.0,0.0,0.0,0.0,0.0,0.0,0.0,0.0,0.0,-0.777,-0.7548,-0.7319,0.0,0.0,0.0,0.0,-0.7003,-0.6513,0.0,0.0,0.0,0.0,0.0,0.0,0.0,0.0,0.0,0.0,0.0,0.0,0.0,0.0,0.0,0.0,0.0,0.0,0.0,0.0,0.0,0.0,0.0,0.0,0.0,0.0,0.0,0.0,0.0,0.0,0.0,0.0,0.0,0.0,0.0,0.0,0.0,0.0,0.0,0.0,0.0,0.0,0.0,0.0,0.0,0.0,0.0,0.0,0.0,0.0,0.0,0.0,0.0,0.0,0.0,0.0,-1.7029,-1.8427,-1.9917,-2.1525,-2.1616,-2.1616,-2.159,-1.9786,-1.831,0.0,0.0,0.0,0.0,0.0,0.0,0.0,0.0,0.0,0.0,0.0,0.0,0.0,0.0,0.0,0.0,0.0,0.0,0.0,0.0,0.0,0.0,0.0,0.0,0.0,0.0,0.0,0.0,0.0,0.0,0.0,0.0,0.0,0.0,0.0,0.0,0.0,0.0,0.0,0.0,0.0,-0.8346,-0.6996,-0.7368,-0.7751,0.0,0.0,-0.7514,-0.7595,-0.7328,0.0,0.0,0.0,0.0,0.0,0.0,0.0,0.0,0.0,0.0,0.0,0.0,0.0,0.0,0.0,0.0,0.0,0.0,0.0,0.0,0.0,0.0,0.0,0.0,0.0,0.0,0.0,0.0,0.0,0.0,0.0,0.0,0.0,0.0,0.0,0.0,0.0,0.0,0.0,0.0,0.0,0.0,0.0,0.0,0.0,0.0,0.0,0.0,0.0,0.0,0.0,0.0,0.0,0.0,0.0,-1.465,-1.7146,-1.8662,-2.01,-2.1446,-2.1498,-2.1498,-2.1498,-1.9525,-1.8048,0.0,0.0,0.0,0.0,0.0,0.0,0.0,0.0,0.0,0.0,0.0,0.0,0.0,0.0,0.0,0.0,0.0,0.0,0.0,0.0,0.0,0.0,0.0,0.0,0.0,0.0,0.0,0.0,0.0,0.0,0.0,0.0,0.0,0.0,0.0,0.0,0.0,0.0,0.0,0.0,0.0,0.0,-0.8238,-0.829,0.0,0.0,0.0,-0.8275,-0.8268,0.0,0.0,0.0,0.0,0.0,0.0,0.0,0.0,0.0,0.0,0.0,0.0,0.0,0.0,0.0,0.0,0.0,0.0,0.0,0.0,0.0,0.0,0.0,0.0,0.0,0.0,0.0,0.0,0.0,0.0,0.0,0.0,0.0,0.0,0.0,0.0,0.0,0.0,0.0,0.0,0.0,0.0,0.0,0.0,0.0,0.0,0.0,0.0,0.0,0.0,0.0,0.0,0.0,0.0,0.0,0.0,0.0,-1.7173,-1.8767,-2.0139,-2.125,-2.1289,-2.1302,-2.1263,-1.9342,0.0,0.0,0.0,0.0,0.0,0.0,0.0,0.0,0.0,0.0,0.0,0.0,0.0,0.0,0.0,0.0,0.0,0.0,0.0,0.0,0.0,0.0,0.0,0.0,0.0,0.0,0.0,0.0,0.0,0.0,0.0,0.0,0.0,0.0,0.0,0.0,0.0,0.0,0.0,0.0,0.0,0.0,-0.8268,-0.8981,-0.8956,-0.8809,0.0,0.0,-0.8604,-0.8604,-0.824,-0.7522,0.0,0.0,0.0,0.0,0.0,0.0,0.0,0.0,0.0,0.0,0.0,0.0,0.0,0.0,0.0,0.0,0.0,0.0,0.0,0.0,0.0,0.0,0.0,0.0,0.0,0.0,0.0,0.0,0.0,0.0,0.0,0.0,0.0,0.0,0.0,0.0,0.0,0.0,0.0,0.0,0.0,0.0,0.0,0.0,0.0,0.0,0.0,0.0,0.0,0.0,0.0,0.0,0.0,0.0,0.0,-1.7133,-1.8375,-1.9551,-2.0725,-2.0751,-2.0764,-2.0738,-1.9499,-1.8336,0.0,0.0,0.0,0.0,0.0,0.0,0.0,0.0,0.0,0.0,0.0,0.0,0.0,0.0,0.0,0.0,0.0,0.0,0.0,0.0,0.0,0.0,0.0,0.0,0.0,0.0,0.0,0.0,0.0,0.0,0.0,0.0,0.0,0.0,0.0,0.0,0.0,0.0,0.0,0.0,0.0,-0.8531,-0.8297,-0.8773,-0.9195,0.0,0.0,-0.831,-0.8353,-0.7695,-0.6873,-0.6067,0.0,0.0,0.0,0.0,0.0,0.0,0.0,0.0,0.0,0.0,0.0,0.0,0.0,0.0,0.0,0.0,0.0,0.0,0.0,0.0,0.0,0.0,0.0,0.0,0.0,0.0,0.0,0.0,0.0,0.0,0.0,0.0,0.0,0.0,0.0,0.0,0.0,0.0,0.0,0.0,0.0,0.0,0.0,0.0,0.0,0.0,0.0,0.0,0.0,0.0,0.0,0.0,0.0,-1.4912,-1.716,-1.8689,-2.0022,-2.1132,-2.1185,-2.1185,-2.1185,-1.9708,-1.8397,0.0,0.0,0.0,0.0,0.0,0.0,0.0,0.0,0.0,0.0,0.0,0.0,0.0,0.0,0.0,0.0,0.0,0.0,0.0,0.0,0.0,0.0,0.0,0.0,0.0,0.0,0.0,0.0,-0.6541,-0.6399,-0.5584,0.0,0.0,0.0,0.0,0.0,0.0,0.0,0.0,0.0,0.0,-0.8553,-0.9007,-0.9285,0.0,0.0,-0.9392,-0.9232,-0.8682,-0.8249,-0.7505,-0.6251,-0.5491,0.0,0.0,0.0,0.0,0.0,0.0,0.0,0.0,0.0,0.0,0.0,0.0,0.0,0.0,0.0,0.0,0.0,0.0,0.0,0.0,0.0,0.0,0.0,0.0,0.0,0.0,0.0,0.0,0.0,0.0,0.0,0.0,0.0,0.0,0.0,0.0,0.0,0.0,0.0,0.0,0.0,0.0,0.0,0.0,0.0,0.0,0.0,0.0,0.0,0.0,0.0,0.0,-1.5164,-1.7411,-1.8969,-2.0245,-2.1135,-2.1148,-2.1179,-2.1145,-1.9696,-1.8431,0.0,0.0,0.0,0.0,0.0,0.0,0.0,0.0,0.0,0.0,0.0,0.0,0.0,0.0,0.0,0.0,0.0,0.0,0.0,0.0,0.0,0.0,0.0,0.0,0.0,0.0,0.0,0.0,-0.6903,-0.6517,-0.534,0.0,0.0,0.0,0.0,0.0,0.0,0.0,0.0,0.0,0.0,-0.8546,-0.9475,-0.9614,-0.9614,-0.9614,-0.9645,-0.9496,-0.891,-0.8397,-0.7648,-0.632,0.0,0.0,0.0,0.0,0.0,0.0,0.0,0.0,0.0,0.0,0.0,0.0,0.0,0.0,0.0,0.0,0.0,0.0,0.0,0.0,0.0,0.0,0.0,0.0,0.0,0.0,0.0,0.0,0.0,0.0,-1.3933,0.0,0.0,0.0,0.0,0.0,0.0,0.0,0.0,0.0,0.0,0.0,0.0,0.0,0.0,0.0,0.0,0.0,0.0,0.0,0.0,0.0,0.0,-1.5698,-1.7852,-1.9158,-2.0007,-2.049,-2.0469,-2.0511,-2.0557,-1.9417,-1.8333,-1.7395,0.0,0.0,0.0,0.0,0.0,0.0,0.0,0.0,0.0,0.0,0.0,0.0,0.0,0.0,0.0,0.0,0.0,0.0,0.0,0.0,0.0,0.0,0.0,0.0,0.0,0.0,-0.6817,-0.6224,-0.5535,0.0,0.0,0.0,0.0,0.0,0.0,0.0,0.0,0.0,0.0,-0.7997,-0.8553,-0.9482,-0.9621,-0.9636,-0.9636,-0.9218,-0.8844,-0.8844,-0.7871,-0.6884,0.0,0.0,0.0,0.0,0.0,0.0,0.0,0.0,0.0,0.0,0.0,0.0,0.0,0.0,0.0,0.0,0.0,0.0,0.0,0.0,0.0,0.0,0.0,0.0,0.0,0.0,0.0,-1.9459,-1.7611,0.0,0.0,0.0,0.0,0.0,0.0,0.0,0.0,0.0,0.0,0.0,-1.9786,-1.9982,0.0,0.0,0.0,0.0,0.0,0.0,0.0,0.0,0.0,0.0,0.0,0.0,-1.6282,-1.8511,-2.0115,-2.1335,-2.2242,-2.2293,-2.1913,-2.1179,-2.0064,-1.8277,-1.5738,0.0,0.0,0.0,0.0,0.0,0.0,0.0,0.0,0.0,0.0,0.0,0.0,0.0,0.0,0.0,0.0,0.0,0.0,0.0,0.0,0.0,0.0,0.0,0.0,0.0,-0.7677,0.0,0.0,0.0,0.0,0.0,0.0,0.0,0.0,0.0,0.0,0.0,-0.6819,-0.7902,-0.8509,-0.9109,-0.9841,-0.9936,-1.0016,0.0,0.0,0.0,0.0,0.0,0.0,0.0,0.0,0.0,0.0,0.0,0.0,0.0,0.0,-0.5458,-0.4315,-0.3949,-0.3836,-0.3804,0.0,0.0,0.0,0.0,0.0,0.0,0.0,0.0,0.0,0.0,0.0,0.0,0.0,0.0,-2.284,0.0,-1.9605,0.0,0.0,0.0,0.0,0.0,0.0,0.0,0.0,-2.0178,-2.1211,-2.21,-2.2322,-2.2113,0.0,-2.0623,-1.8806,0.0,0.0,0.0,0.0,0.0,0.0,0.0,0.0,-1.6982,-1.8791,-2.0298,-2.1405,-2.2085,-2.2135,-2.1817,-2.1092,-1.9873,-1.7881,-1.5126,-1.3936,-1.2828,0.0,0.0,0.0,0.0,0.0,0.0,0.0,0.0,0.0,0.0,0.0,0.0,0.0,0.0,0.0,0.0,0.0,0.0,0.0,0.0,0.0,0.0,0.0,-0.8366,0.0,0.0,0.0,0.0,0.0,0.0,0.0,0.0,0.0,-0.6285,-0.6746,-0.7437,-0.8553,-0.9058,-0.9555,-1.0185,0.0,0.0,0.0,0.0,0.0,0.0,0.0,-0.805,-0.7324,-0.6658,-0.6261,-0.6267,-0.6445,-0.6504,-0.6324,0.0,0.0,-0.4987,-0.4644,-0.4534,-0.4495,-0.4434,-0.4438,-0.4617,-0.4755,-0.4683,0.0,0.0,0.0,0.0,0.0,0.0,0.0,0.0,-2.5611,-2.5365,0.0,-2.1701,0.0,0.0,0.0,0.0,0.0,-1.9729,0.0,0.0,-2.3119,-2.3903,-2.3472,-2.4008,-2.3942,-2.342,-2.3864,-2.2923,-2.0633,-1.682,0.0,0.0,0.0,0.0,0.0,0.0,-1.7702,-1.8839,-1.9948,-2.0381,-2.0366,-2.0259,-2.0273,-2.0293,-1.8851,-1.7345,-1.5676,-1.5139,-1.3987,-1.2102,-1.1629,0.0,0.0,0.0,0.0,0.0,0.0,0.0,0.0,0.0,0.0,0.0,0.0,0.0,0.0,0.0,0.0,0.0,0.0,0.0,0.0,-0.8683,0.0,0.0,0.0,0.0,0.0,0.0,0.0,0.0,0.0,0.0,-0.7324,-0.758,-0.8216,-0.9453,0.0,0.0,0.0,0.0,-1.0609,-1.0646,-1.0631,-1.0415,-0.9784,-0.9174,-0.8486,-0.7619,0.0,0.0,-0.6543,-0.6611,-0.657,-0.6383,-0.6347,-0.6263,-0.6113,-0.5814,-0.5648,-0.5592,-0.5464,-0.5516,-0.5571,-0.5657,-0.562,-2.7197,0.0,0.0,0.0,0.0,-2.1944,-2.309,-2.6668,-2.8227,-2.7547,-2.5223,-2.4845,0.0,0.0,0.0,0.0,0.0,0.0,-2.2936,-2.3856,-2.5262,-2.6282,-2.6909,-2.7079,-2.6857,-2.6282,-2.5641,-2.457,-2.3106,-2.1525,-1.9028,-1.5722,0.0,0.0,0.0,0.0,-1.9782,-2.1253,-2.2015,-2.2535,-2.2932,-2.2494,-2.1677,-2.0377,-1.8868,-1.7656,-1.6839,-1.5961,-1.4975,-1.3729,-1.2589,0.0,0.0,0.0,0.0,0.0,0.0,0.0,0.0,0.0,0.0,0.0,0.0,0.0,0.0,0.0,0.0,0.0,0.0,0.0,-0.9004,-0.954,-0.947,0.0,0.0,0.0,0.0,0.0,0.0,0.0,0.0,0.0,-0.8868,-0.8824,-0.9058,0.0,0.0,-1.0463,-1.088,-1.0938,-1.1099,-1.1553,0.0,0.0,0.0,-1.034,-0.9482,-0.8968,-0.7991,-0.7262,-0.7201,-0.7239,-0.7135,-0.6768,-0.674,-0.6651,-0.6365,-0.6048,-0.5806,-0.5809,-0.5661,-0.5657,-0.5766,-0.5856,-0.5832,-3.0532,-2.8624,-2.7552,-2.7352,-2.7458,-2.5242,-2.6272,-2.9565,-3.0744,-3.0105,-2.8306,-2.7775,-2.6403,-2.4433,-2.372,0.0,0.0,0.0,-2.521,-2.6334,-2.7027,-2.785,-2.8699,-2.8739,-2.8556,-2.8177,-2.7288,-2.636,-2.5458,-2.487,-2.2858,-1.9551,0.0,0.0,-1.8636,-2.0023,-2.1273,-2.2287,-2.2749,-2.3131,-2.3243,-2.2407,-2.1307,-2.002,-1.8906,-1.8054,-1.7573,-1.6623,-1.5662,-1.4701,-1.3641,-1.2462,0.0,0.0,0.0,0.0,0.0,0.0,0.0,0.0,0.0,0.0,0.0,-0.6689,0.0,0.0,0.0,0.0,-0.8179,-0.9238,-1.022,-1.0374,0.0,0.0,0.0,0.0,0.0,0.0,0.0,-0.886,-0.9241,-0.9629,-1.0126,-1.0155,-1.0265,-1.0631,-1.085,-1.1136,-1.1582,0.0,-1.1787,-1.2175,-1.216,-1.2094,-1.1815,-1.1149,-1.0355,-0.9536,-0.8503,-0.7769,-0.7702,-0.7639,-0.7441,-0.7175,-0.7039,-0.6903,-0.6699,-0.6371,-0.6166,-0.6087,-0.601,-0.5977,-0.6083,-0.6099,-0.6033,-3.2963,-3.2909,-3.1347,-3.0702,-3.0593,-2.9487,-2.9945,-3.1477,-3.2901,-3.2808,-3.1529,-3.0419,-2.9122,-2.7719,-2.6151,0.0,-2.619,-2.6752,-2.7562,-2.8516,-2.8569,-2.8882,-2.9405,-2.9366,-2.9327,-2.9274,-2.8712,-2.815,-2.7575,-2.7053,-2.5994,-2.4374,-2.274,-2.159,-2.1041,-2.1911,-2.2422,-2.2439,-2.2698,-2.2587,-2.2001,-2.0861,-1.9965,-1.9495,-1.896,-1.849,-1.8054,-1.7114,-1.6142,-1.5214,-1.4701,-1.3598,-1.1806,0.0,0.0,0.0,0.0,0.0,0.0,0.0,0.0,0.0,0.0,0.0,0.0,0.0,0.0,0.0,-1.0169,0.0,-1.146,-1.1084,0.0,0.0,0.0,-0.8998,-0.9137,-0.9407,-0.9715,-1.0068,0.0,0.0,-1.1137,0.0,-1.1703,-1.1733,-1.1655,-1.1853,-1.2438,-1.2489,-1.2526,-1.2555,-1.2562,-1.2291,-1.1916,-1.1538,-1.0817,-0.9421,-0.8589,-0.8061,-0.7981,-0.7778,-0.7517,-0.7425,-0.7237,-0.7011,-0.7015,-0.6843,-0.6647,-0.6485,-0.6444,-0.6432,-0.6457,-0.6461,-0.6258,-3.4153,-3.4254,-3.3874,-3.3456,-3.3016,-3.2766,-3.2482,-3.2353,-3.3949,-3.3363,-3.1163,-3.1232,-3.0904,-3.0137,-2.9732,-2.9392,-2.9144,-2.9693,-2.9862,-2.9745,-3.0163,-3.0438,-3.0555,-3.0137,-2.9706,-2.9287,-2.9131,-2.8765,-2.819,-2.8033,-2.7549,-2.6713,-2.5863,-2.4726,-2.338,-2.4008,-2.4269,-2.4117,-2.4184,-2.3448,-2.187,-2.1547,-2.0949,-1.9987,-1.9135,-1.8643,-1.8512,-1.7617,-1.6656,-1.5665,-1.5192,-1.4406,-1.3226,-1.148,0.0,0.0,0.0,0.0,0.0,0.0,0.0,0.0,0.0,-0.9179,-0.7959,0.0,-0.9499,0.0,-1.0456,-1.1006,-1.1436,-1.1038,0.0,0.0,-1.0377,-1.0285,-1.0561,-1.0424,-1.0316,-1.0482,-1.0975,-1.1424,-1.1497,-1.1941,-1.2387,-1.2614,-1.2453,-1.235,-1.2504,-1.2526,-1.2614,-1.284,-1.2899,-1.2917,-1.2878,-1.1813,-1.0462,-0.8902,-0.8198,-0.7877,-0.7872,-0.7664,-0.7451,-0.73,-0.7229,-0.7086,-0.7032,-0.6986,-0.695,-0.6896,-0.6725,-0.6672,-0.6794,-0.6822,-0.6822,-3.451,-3.4595,-3.4931,-3.4912,-3.4733,-3.4679,-3.4424,-3.3987,-3.4811,-3.4022,-3.2038,-3.1625,-3.1287,-3.0986,-3.0986,-3.0817,-3.0555,-3.0843,-3.0817,-3.0542,-3.0843,-3.0986,-3.096,-3.0398,-2.9967,-2.9653,-2.9008,-2.844,-2.7971,-2.7875,-2.7593,-2.704,-2.7064,-2.644,-2.5229,-2.5569,-2.5688,-2.5601,-2.495,-2.3783,-2.2093,-2.1643,-2.0996,-2.0151,-1.92,-1.8589,-1.8381,-1.7453,-1.6601,-1.5818,-1.5378,-1.462,-1.364,-1.233,-1.1378,0.0,0.0,0.0,0.0,0.0,0.0,0.0,0.0,0.0,0.0,0.0,-1.0723,0.0,-1.1558,-1.1803,-1.2262,-1.1773,-1.1342,-1.1094,-1.1112,-1.1136,-1.1276,-1.132,-1.1338,-1.1414,-1.1765,-1.1992,-1.1999,-1.2431,-1.2804,-1.298,-1.298,-1.295,-1.2958,-1.2958,-1.3023,-1.3192,-1.3228,-1.3279,-1.3477,-1.2018,-1.0668,-0.978,-0.8803,-0.8139,-0.8066,-0.7928,-0.7707,-0.7482,-0.7409,-0.7331,-0.7257,-0.7119,-0.7094,-0.7147,-0.7054,-0.6952,-0.6948,-0.7019,-0.7019,-3.4653,-3.4834,-3.5338,-3.5601,-3.5683,-3.5611,-3.549,-3.5521,-3.5292,-3.4594,-3.3422,-3.2016,-3.1392,-3.1313,-3.1326,-3.1248,-3.1091,-3.1091,-3.1052,-3.0986,-3.0986,-3.0911,-3.0797,-3.0251,-2.9865,-2.9628,-2.8518,-2.7626,-2.716,-2.716,-2.6839,-2.6389,-2.6943,-2.6943,-2.6352,-2.6445,-2.6439,-2.6361,-2.5068,-2.3746,-2.2302,-2.1417,-2.0718,-2.0162,-1.9233,-1.8469,-1.801,-1.7114,-1.6319,-1.5807,-1.5437,-1.4805,-1.3779,-1.3216,-1.2454,0.0,-1.0761,0.0,0.0,0.0,0.0,0.0,0.0,0.0,0.0,-1.1695,-1.2294,-1.2986,-1.2919,-1.295,-1.3277,-1.2741,-1.2025,-1.1368,-1.1615,-1.1811,-1.1722,-1.2153,-1.2409,-1.2489,-1.2555,-1.2584,-1.2584,-1.287,-1.3067,-1.3111,-1.3294,-1.3418,-1.3477,-1.3455,-1.3448,-1.3492,-1.3492,-1.3462,-1.3193,-1.2144,-1.1168,-1.0801,-0.9653,-0.8699,-0.8309,-0.8084,-0.794,-0.7787,-0.7613,-0.7464,-0.748,-0.7354,-0.7313,-0.7427,-0.7338,-0.7204,-0.7086,-0.7126,-0.7093,-3.5916,-3.61,-3.5665,-3.5513,-3.5597,-3.4959,-3.4607,-3.454,-3.4794,-3.4659,-3.4235,-3.393,-3.3522,-3.3117,-3.3104,-3.2581,-3.1692,-3.1679,-3.1431,-3.0986,-3.0986,-3.0659,-2.9909,-2.9353,-2.8487,-2.7569,-2.7235,-2.6895,-2.6347,-2.6335,-2.6299,-2.6117,-2.5859,-2.5859,-2.6009,0.0,0.0,0.0,-2.3716,-2.2966,-2.2313,-2.1756,-2.1221,-2.0718,-1.9408,0.0,-1.8021,-1.7453,-1.6732,-1.5851,-1.6046,0.0,0.0,0.0,0.0,0.0,0.0,0.0,0.0,0.0,0.0,0.0,-1.3589,-1.3258,-1.2648,-1.3652,-1.4216,-1.375,-1.3603,-1.3483,-1.3304,-1.2835,-1.257,-1.2679,-1.2743,-1.2805,-1.2825,-1.2905,-1.287,-1.2519,-1.276,-1.2921,-1.2936,-1.3199,-1.3389,-1.3389,-1.3455,-1.3492,-1.3492,-1.3492,-1.3492,-1.3492,-1.3492,-1.3266,-1.2599,-1.2298,-1.1477,-1.0276,-0.9599,-0.8846,-0.8106,-0.7795,-0.7638,-0.7561,-0.7561,-0.748,-0.748,-0.7452,-0.7431,-0.7476,-0.7456,-0.7423,-0.7391,-0.7378,-0.7382,-3.5961,0.0,-3.6159,-3.6201,0.0,-3.6009,-3.5619,-3.5059,-3.5049,-3.4576,-3.3979,-3.3692,-3.3404,-3.3143,-3.2855,-3.2411,-3.1759,-3.1548,-3.1261,-3.0986,-3.0986,-3.0748,-3.033,-2.9753,-2.8874,-2.784,-2.6942,-2.6199,-2.5557,-2.5213,-2.5156,-2.5144,-2.5207,-2.535,-2.546,-2.4796,-2.4395,-2.412,-2.3768,-2.3227,-2.2652,-2.2193,-2.1603,-2.086,0.0,0.0,0.0,0.0,0.0,0.0,0.0,0.0,0.0,0.0,0.0,-1.4157,-1.383,-1.3807,-1.4252,-1.4293,-1.4593,-1.5277,-1.5535,-1.5277,-1.4355,-1.5152,-1.5477,-1.4954,-1.4576,-1.4255,-1.3953,-1.3435,-1.3139,-1.3199,-1.3232,-1.3276,-1.3241,-1.3262,-1.3212,-1.3086,-1.314,-1.325,-1.3243,-1.3382,-1.3484,-1.3499,-1.3638,-1.3682,-1.3528,-1.3492,-1.3492,-1.3492,-1.3492,-1.3346,-1.2973,-1.2526,-1.1929,-1.0651,-0.9825,-0.9074,-0.8102,-0.7799,-0.7638,-0.7557,-0.748,-0.748,-0.748,-0.748,-0.748,-0.748,-0.748,-0.748,-0.748,-0.748,-0.748,-3.5787,-3.5574,-3.6755,-3.6967,-3.6415,-3.6964,-3.6577,-3.5645,0.0,0.0,0.0,-3.3208,-3.2947,-3.2816,-3.2359,-3.2097,-3.1967,-3.1405,-3.113,-3.1143,-3.1026,-3.0898,-3.0722,-3.0268,-2.9512,-2.8562,-2.6954,-2.5722,-2.49,-2.4317,-2.3993,-2.3998,-2.4657,-2.4996,-2.4801,-2.4249,-2.3984,-2.3988,-2.3959,-2.3621,-2.299,-2.2553,-2.1931,-2.1134,-2.0489,-1.9497,-1.8305,-1.7781,-1.7289,-1.6809,-1.6492,-1.6137,-1.5818,-1.5818,-1.5796,-1.5828,-1.5815,-1.6011,-1.6467,-1.6498,-1.6529,-1.6612,-1.7026,-1.6901,-1.6001,-1.6353,-1.6494,-1.6179,-1.5598,-1.5123,-1.4853,-1.4171,-1.3707,-1.352,-1.3685,-1.3737,-1.3487,-1.3658,-1.3793,-1.3601,-1.3631,-1.3675,-1.3682,-1.3689,-1.3667,-1.3704,-1.3916,-1.3982,-1.3726,-1.3587,-1.3492,-1.3492,-1.3492,-1.3492,-1.3419,-1.2973,-1.215,-1.1099,-1.0276,-0.9372,-0.8327,-0.7876,-0.7718,-0.7557,-0.748,-0.748,-0.748,-0.748,-0.748,-0.748,-0.748,-0.748,-0.748,-0.748,-0.748,-3.6282,-3.6862,-3.7047,-3.6805,-3.629,-3.5902,-3.5213,-3.442,-3.4464,-3.4428,-3.4267,-3.4201,-3.3901,-3.347,-3.3378,-3.3064,-3.2542,-3.1967,-3.1718,0.0,-3.1209,-3.0583,-2.9871,-2.9795,-2.9098,-2.7863,-2.6847,-2.5881,-2.4981,-2.4178,-2.3556,-2.3238,-2.3707,-2.4172,-2.4535,-2.484,-2.4598,-2.3787,-2.3359,-2.3139,-2.299,-2.2564,-2.2258,-2.2073,-2.0771,-1.9802,-1.9244,-1.8753,-1.8283,-1.7835,-1.8119,-1.8039,-1.7395,-1.7226,-1.6995,-1.6472,-1.6337,-1.6477,-1.6863,-1.6953,-1.7059,-1.7522,-1.7947,-1.7812,-1.6964,-1.7274,-1.7399,-1.709,-1.6506,-1.5914,-1.5618,-1.4907,-1.4419,-1.4443,-1.4743,-1.4699,-1.4057,-1.4448,-1.4569,-1.4028,-1.4172,-1.4304,-1.4275,-1.4282,-1.4275,-1.4311,-1.4304,-1.4362,-1.4245,-1.3843,-1.3528,-1.3492,-1.3492,-1.3492,-1.3492,-1.3419,-1.2519,-1.0864,-1.049,-0.9664,-0.794,-0.7638,-0.7561,-0.748,-0.748,-0.748,-0.748,-0.748,-0.748,-0.748,-0.748,-0.748,-0.748,-0.748,-0.748,-3.5584,-3.5941,-3.6777,-3.7009,-3.6752,-3.6703,-3.6391,-3.5859,-3.5174,-3.4698,-3.441,-3.4397,-3.4254,-3.4018,-3.3718,-3.3443,-3.3143,-3.2581,-3.2319,-3.2254,-3.1705,-3.1202,-3.0855,-3.056,-2.9808,-2.8753,-2.761,-2.6609,-2.5693,-2.4359,-2.3624,-2.3416,-2.3624,-2.3875,-2.4226,-2.4653,-2.4667,-2.4326,-2.3732,-2.3274,-2.3001,-2.2805,-2.2564,-2.2313,-2.1577,-2.0959,-2.0227,-1.9987,-1.9659,-1.9116,-1.9102,-1.8859,-1.8387,-1.807,-1.7772,-1.7572,-1.7521,-1.7781,-1.8464,-1.8744,-1.8971,-1.9178,-1.9375,-1.9323,-1.8909,-1.8847,-1.8736,-1.838,-1.7661,-1.7036,-1.6508,-1.5708,-1.513,-1.5056,-1.5221,-1.5085,-1.4592,-1.469,-1.4772,-1.4359,-1.4377,-1.4465,-1.4465,-1.4465,-1.4465,-1.4465,-1.4472,-1.4531,-1.4692,-1.4333,-1.3953,-1.3806,-1.3762,-1.3675,-1.3543,-1.3492,-1.2666,-1.0938,-1.0559,-0.9739,-0.8093,-0.7561,-0.748,-0.748,-0.748,-0.748,-0.748,-0.748,-0.748,-0.748,-0.748,-0.748,-0.748,-0.748,-0.748,-3.4823,-3.4908,-3.632,-3.6883,-3.6926,-3.7622,-3.7563,-3.692,-3.6044,-3.5286,-3.4633,-3.4463,-3.4397,-3.4345,-3.3953,-3.377,-3.3692,-3.3156,-3.2894,-3.2842,-3.2189,-3.1772,-3.1487,-3.1176,-3.042,-2.9447,-2.8317,-2.7364,-2.6301,-2.4781,-2.3995,-2.3908,-2.3908,-2.4007,-2.4128,-2.45,-2.4679,-2.458,-2.3974,-2.3493,-2.3023,-2.3001,-2.2826,-2.2499,-2.2357,-2.1964,-2.1232,-2.1158,-2.085,-2.0412,-2.0053,-1.9706,-1.9425,-1.902,-1.8786,-1.8927,-1.8837,-1.9147,-1.9841,-2.0224,-2.041,-2.041,-2.041,-2.0462,-2.0534,-2.0276,-1.993,-1.9499,-1.8826,-1.8045,-1.7301,-1.6489,-1.5835,-1.5543,-1.5545,-1.5366,-1.4932,-1.496,-1.4941,-1.4675,-1.464,-1.4706,-1.4684,-1.4684,-1.4714,-1.4728,-1.4684,-1.4794,-1.497,-1.4831,-1.4567,-1.4296,-1.415,-1.4018,-1.3748,-1.3579,-1.2797,-1.1172,-1.0594,-0.9599,-0.8246,-0.7561,-0.7557,-0.748,-0.748,-0.748,-0.748,-0.748,-0.748,-0.748,-0.748,-0.748,-0.748,-0.748,-0.748,-3.4823,-3.492,-3.5775,-3.6036,-3.6295,-3.7769,-3.7442,-3.5872,-3.6483,-3.6227,-3.5247,-3.4633,-3.441,-3.4397,-3.4332,-3.4293,-3.4254,-3.3757,-3.3509,-3.3375,-3.25,-3.1614,-3.083,-3.0871,-3.0082,-2.8736,-2.8354,-2.7605,-2.6518,-2.5527,-2.4814,-2.4465,-2.4421,-2.4388,-2.4465,-2.4847,-2.4719,-2.3853,-2.3733,-2.3493,-2.3034,-2.3001,-2.299,-2.2936,-2.2531,-2.228,-2.2149,-2.1767,-2.1505,-2.1461,-2.1257,-2.1096,-2.1005,-2.0673,-2.0443,-2.0464,-2.0274,-2.0296,-2.0358,-2.04,-2.0462,-2.041,-2.0462,-2.0648,-2.1,-2.101,-2.0814,-2.0288,-1.965,-1.8867,-1.8091,-1.7304,-1.6513,-1.587,-1.5921,-1.5882,-1.5318,-1.5629,-1.5725,-1.4926,-1.5116,-1.5335,-1.527,-1.5262,-1.5292,-1.524,-1.5226,-1.5248,-1.5306,-1.5292,-1.5153,-1.4867,-1.4626,-1.4435,-1.4304,-1.3954,-1.2954,-1.1354,-1.0562,-0.9499,-0.8196,-0.7573,-0.748,-0.748,-0.748,-0.748,-0.748,-0.748,-0.748,-0.748,-0.748,-0.748,-0.748,-0.748,-0.748,-3.4823,-3.492,-3.5679,-3.6345,-3.7015,-3.8135,-3.7912,-3.6934,-3.6949,-3.6737,-3.6214,-3.5338,-3.4737,-3.441,-3.3869,-3.3869,-3.4288,-3.3624,-3.3534,-3.3949,-3.3155,-3.232,-3.1392,-2.9724,-2.9093,-2.9432,-2.8354,-2.7693,-2.7298,-2.6004,-2.4945,-2.4497,-2.4203,-2.4061,-2.4182,-2.4246,-2.3973,-2.334,-2.358,-2.3635,-2.3427,-2.3143,-2.3132,-2.3351,-2.2968,-2.2717,-2.2706,-2.251,-2.2422,-2.24,-2.2099,-2.1865,-2.1711,-2.1158,-2.0797,-2.0715,-2.0751,-2.0834,-2.0834,-2.1093,-2.1238,-2.1238,-2.1238,-2.1331,-2.1497,-2.1518,-2.1435,-2.1205,-2.0462,-1.9707,-1.8865,-1.8091,-1.7237,-1.6477,-1.6436,-1.6291,-1.5932,-1.5986,-1.5854,-1.5487,-1.5335,-1.5431,-1.5431,-1.5431,-1.5431,-1.5431,-1.5431,-1.5431,-1.5431,-1.5431,-1.5372,-1.5255,-1.5109,-1.4867,-1.4575,-1.4214,-1.3084,-1.1679,-1.0723,-0.9797,-0.8164,-0.7537,-0.7484,-0.7484,-0.748,-0.748,-0.748,-0.748,-0.748,-0.748,-0.748,-0.748,-0.748,-0.748,-0.748,-3.4823,-3.492,-3.587,-3.6734,-3.7307,-3.8226,-3.833,-3.7939,-3.7429,-3.7155,-3.692,-3.6123,-3.5338,-3.4601,-3.3509,-3.342,-3.3869,-3.3335,-3.3348,-3.3979,-3.3713,-3.2924,-3.1573,-2.8856,-2.8116,-2.8961,-2.7894,-2.7406,-2.7498,-2.6116,-2.5,-2.4639,-2.4181,-2.3886,-2.3875,-2.3744,-2.3493,-2.3078,-2.3372,-2.3667,-2.382,-2.3449,-2.3438,-2.3842,-2.346,-2.3198,-2.3198,-2.3067,-2.3001,-2.299,-2.26,-2.2342,-2.2237,-2.1656,-2.1186,-2.1042,-2.1177,-2.13,-2.1321,-2.1621,-2.1807,-2.1807,-2.1807,-2.1807,-2.1807,-2.1807,-2.1807,-2.17,-2.1252,-2.044,-1.9362,-1.8718,-1.7917,-1.6894,-1.673,-1.6566,-1.6304,-1.6162,-1.6004,-1.5658,-1.5492,-1.5431,-1.5431,-1.5431,-1.5431,-1.5431,-1.5431,-1.5431,-1.5431,-1.5431,-1.5431,-1.5431,-1.5423,-1.5158,-1.4736,-1.3999,-1.3067,-1.1778,-1.0743,-0.9538,-0.8171,-0.7708,-0.7512,-0.7521,-0.7496,-0.748,-0.748,-0.748,-0.748,-0.748,-0.748,-0.748,-0.748,-0.748,-0.748,-3.4823,-3.5017,-3.6439,-3.6909,-3.6803,-3.8135,-3.8408,-3.8122,-3.7926,-3.7534,-3.7077,-3.692,-3.6292,-3.5174,-3.3652,-3.2993,-3.3079,-3.2993,-3.2993,-3.3227,-3.3946,-3.3096,-3.0893,-2.8488,-2.7189,-2.7312,-2.7258,-2.682,-2.6113,-2.5508,-2.5164,-2.5109,-2.4672,-2.4224,-2.3842,-2.3744,-2.3482,-2.3067,-2.3056,-2.3482,-2.4235,-2.3929,-2.394,-2.4355,-2.3962,-2.37,-2.3656,-2.3252,-2.3012,-2.3012,-2.282,-2.2734,-2.2872,-2.2328,-2.191,-2.178,-2.1735,-2.1756,-2.1745,-2.1787,-2.1807,-2.1807,-2.1807,-2.1807,-2.1807,-2.1807,-2.1807,-2.1807,-2.1731,-2.1011,-1.958,-1.9177,-1.839,-1.6976,-1.673,-1.6492,-1.617,-1.6087,-1.5839,-1.5506,-1.5431,-1.5431,-1.5431,-1.5431,-1.5431,-1.5431,-1.5431,-1.5431,-1.5431,-1.5431,-1.5431,-1.5431,-1.5347,-1.5325,-1.492,-1.409,-1.2782,-1.147,-1.0177,-0.9094,-0.8399,-0.7811,-0.7646,-0.7561,-0.7545,-0.7521,-0.7492,-0.748,-0.748,-0.748,-0.748,-0.748,-0.748,-0.748,-0.748,-3.5114,-3.5679,-3.6709,-3.7163,-3.7546,-3.8381,-3.8549,-3.82,-3.8122,-3.7939,-3.7534,-3.7168,-3.6392,-3.5302,-3.3479,-3.2797,-3.2907,-3.2376,-3.2463,-3.3068,-3.3934,-3.3333,-3.1324,-2.9212,-2.812,-2.7802,-2.716,-2.6528,-2.5979,-2.5721,-2.5644,-2.5557,-2.5164,-2.4694,-2.4246,-2.3897,-2.3482,-2.3056,-2.3001,-2.3329,-2.3973,-2.4137,-2.4443,-2.4869,-2.4465,-2.4213,-2.4213,-2.3733,-2.3471,-2.3471,-2.3112,-2.2927,-2.2927,-2.2553,-2.2111,-2.1797,-2.1807,-2.1807,-2.1807,-2.1807,-2.1807,-2.1807,-2.1807,-2.1807,-2.1807,-2.1807,-2.1807,-2.1807,-2.1807,-2.1011,-1.9737,-1.9256,-1.863,-1.7049,-1.6566,-1.6484,-1.6237,-1.6072,-1.5741,-1.5575,-1.5506,-1.5431,-1.5431,-1.5431,-1.5431,-1.5431,-1.5431,-1.5431,-1.5431,-1.5431,-1.5431,-1.5347,-1.5264,-1.4915,-1.4048,-1.3639,-1.2776,-1.1191,-0.9911,-0.9206,-0.8421,-0.8045,-0.787,-0.7691,-0.7638,-0.7573,-0.7541,-0.748,-0.748,-0.748,-0.748,-0.748,-0.748,-0.748,-0.7407,-3.5307,-3.6048,-3.679,-3.7428,-3.8004,-3.8639,-3.8652,-3.8304,-3.8213,-3.8044,-3.7821,-3.7456,-3.6625,-3.5249,-3.3503,-3.2539,-3.2284,-3.1484,-3.1488,-3.2164,-3.3268,-3.2852,-3.108,-2.9342,-2.85,-2.8262,-2.7161,-2.6376,-2.595,-2.5895,-2.5895,-2.5863,-2.5415,-2.5022,-2.465,-2.4061,-2.3547,-2.3263,-2.3078,-2.3241,-2.3711,-2.4061,-2.4552,-2.5022,-2.4869,-2.4705,-2.4694,-2.4235,-2.3973,-2.3929,-2.3656,-2.3406,-2.3243,-2.2937,-2.2566,-2.2133,-2.2035,-2.1942,-2.1828,-2.1807,-2.1807,-2.1807,-2.1807,-2.1807,-2.1807,-2.1807,-2.1807,-2.1807,-2.1807,-2.1165,-1.9816,-1.9256,-1.855,-1.7049,-1.6566,-1.6402,-1.6319,-1.5982,-1.5733,-1.5575,-1.5499,-1.5431,-1.5431,-1.5431,-1.5431,-1.5431,-1.5431,-1.5431,-1.5431,-1.5431,-1.5431,-1.5347,-1.4908,-1.4139,-1.319,-1.2474,-1.1946,-1.0535,-0.9661,-0.8978,-0.8628,-0.8254,-0.8024,-0.7849,-0.7799,-0.7646,-0.7573,-0.7504,-0.748,-0.748,-0.748,-0.748,-0.748,-0.748,-0.7249,-3.5295,-3.6048,-3.6777,-3.7546,-3.82,-3.8729,-3.8845,-3.8589,-3.8304,-3.8135,-3.79,-3.7756,-3.6749,-3.5294,-3.3825,-3.2438,-3.1101,-3.0468,-3.0306,-3.0589,-3.1884,-3.1758,-3.0249,-2.8743,-2.8058,-2.8006,-2.7064,-2.6398,-2.5994,-2.5928,-2.5895,-2.5819,-2.5459,-2.5207,-2.5153,-2.4301,-2.3787,-2.3613,-2.3263,-2.3274,-2.3656,-2.3755,-2.4192,-2.4967,-2.5043,-2.5054,-2.5087,-2.4705,-2.4486,-2.4486,-2.4432,-2.4227,-2.379,-2.3551,-2.3175,-2.259,-2.2459,-2.2252,-2.1869,-2.1807,-2.1807,-2.1807,-2.1807,-2.1807,-2.1807,-2.1807,-2.1807,-2.1807,-2.1655,-2.1011,-1.965,-1.9177,-1.847,-1.7049,-1.6476,-1.6319,-1.6079,-1.5824,-1.5658,-1.5506,-1.5431,-1.5431,-1.5431,-1.5431,-1.5431,-1.5431,-1.5431,-1.5431,-1.5431,-1.5431,-1.5431,-1.5173,-1.4566,-1.3535,-1.2334,-1.1133,-1.0539,-0.9845,-0.9231,-0.8582,-0.8574,-0.8292,-0.813,-0.7947,-0.7703,-0.7622,-0.7541,-0.748,-0.748,-0.748,-0.748,-0.748,-0.748,-0.7403,-0.6861,-3.5307,-3.6061,-3.6777,-3.7546,-3.82,-3.8935,-3.8935,-3.8602,-3.8498,-3.8253,-3.7808,-3.7108,-3.6125,-3.481,-3.3386,-3.1926,-3.043,-2.993,-2.9881,-3.0262,-3.0889,-3.0877,-3.0091,-2.9032,-2.8342,-2.7927,-2.7086,-2.6562,-2.6376,-2.607,-2.5895,-2.5852,-2.5742,-2.5491,-2.5196,-2.4847,-2.4454,-2.3777,-2.358,-2.3438,-2.3296,-2.3558,-2.3897,-2.417,-2.4508,-2.4705,-2.4705,-2.4858,-2.4956,-2.4934,-2.4661,-2.4328,-2.3919,-2.3748,-2.3366,-2.2652,-2.2501,-2.2294,-2.188,-2.1807,-2.1807,-2.1807,-2.1807,-2.1807,-2.1807,-2.1807,-2.1807,-2.1731,-2.1252,-2.0372,-1.9502,-1.8709,-1.7917,-1.664,-1.6327,-1.6079,-1.5914,-1.5665,-1.5506,-1.5431,-1.5431,-1.5431,-1.5431,-1.5431,-1.5431,-1.5431,-1.5431,-1.5431,-1.5431,-1.5431,-1.5347,-1.5173,-1.4139,-1.3021,-1.1821,-1.0707,-0.9854,-0.9428,-0.8911,-0.856,-0.8483,-0.8414,-0.8247,-0.8012,-0.7772,-0.7602,-0.7521,-0.748,-0.748,-0.748,-0.748,-0.748,-0.7407,-0.7096,-0.663,-3.5295,-3.6048,-3.679,-3.7533,-3.8291,-3.8935,-3.9051,-3.8602,-3.8485,-3.8018,-3.7294,-3.6615,-3.5547,-3.4133,-3.2769,-3.1536,-3.0241,-2.9521,-2.9404,-2.968,-2.9886,-2.9886,-2.9646,-2.9117,-2.8506,-2.8036,-2.7435,-2.6966,-2.6616,-2.6332,-2.6081,-2.5928,-2.5895,-2.5753,-2.5437,-2.524,-2.476,-2.4093,-2.3831,-2.3493,-2.3165,-2.3296,-2.3536,-2.3755,-2.405,-2.429,-2.4486,-2.477,-2.5,-2.5131,-2.4962,-2.4686,-2.4339,-2.4246,-2.3808,-2.2964,-2.2708,-2.249,-2.1921,-2.1807,-2.1807,-2.1807,-2.1807,-2.1807,-2.1807,-2.1807,-2.1807,-2.1655,-2.1021,-2.0138,-1.9344,-1.855,-1.7521,-1.6402,-1.6245,-1.6079,-1.5741,-1.5499,-1.5431,-1.5431,-1.5431,-1.5431,-1.5431,-1.5431,-1.5431,-1.5431,-1.5431,-1.5431,-1.5431,-1.5431,-1.5173,-1.4566,-1.3444,-1.2334,-1.1305,-1.0279,-0.9253,-0.8911,-0.8656,-0.8568,-0.8532,-0.8511,-0.8406,-0.8081,-0.7809,-0.7634,-0.7537,-0.7496,-0.748,-0.748,-0.748,-0.748,-0.7403,-0.6784,-0.6244,-3.5211,-3.5953,-3.6803,-3.7441,-3.82,-3.8948,-3.9051,-3.8589,-3.8225,-3.7468,-3.6508,-3.6023,-3.4957,-3.3279,-3.2208,-3.1184,-3.0143,-2.9347,-2.897,-2.8976,-2.8954,-2.8943,-2.8943,-2.885,-2.8538,-2.8178,-2.8003,-2.7523,-2.6769,-2.6605,-2.6376,-2.5939,-2.5895,-2.5895,-2.5775,-2.5426,-2.5022,-2.4541,-2.4061,-2.3591,-2.3121,-2.3034,-2.322,-2.3624,-2.3678,-2.3875,-2.4203,-2.4366,-2.465,-2.5098,-2.5283,-2.5301,-2.5167,-2.4978,-2.4294,-2.3254,-2.3153,-2.2625,-2.2025,-2.1807,-2.1807,-2.1807,-2.1807,-2.1807,-2.1807,-2.1807,-2.1721,-2.1568,-2.0779,-2.006,-1.9177,-1.831,-1.7367,-1.6409,-1.6154,-1.5989,-1.5741,-1.5499,-1.5431,-1.5431,-1.5431,-1.5431,-1.5431,-1.5431,-1.5431,-1.5431,-1.5431,-1.5431,-1.5431,-1.5257,-1.4824,-1.3964,-1.293,-1.1821,-1.0794,-0.9767,-0.8911,-0.8828,-0.8572,-0.8572,-0.8548,-0.8528,-0.8479,-0.8158,-0.787,-0.7699,-0.7577,-0.7541,-0.7496,-0.748,-0.748,-0.748,-0.7096,-0.6475,-0.5699,-3.492,-3.5295,-3.6508,-3.7256,-3.7546,-3.8732,-3.9016,-3.8485,-3.7324,-3.6569,-3.5998,-3.4654,-3.3773,-3.3109,-3.1759,-3.0734,-3.0176,-2.9543,-2.9063,-2.8894,-2.885,-2.885,-2.885,-2.885,-2.8691,-2.8517,-2.8222,-2.773,-2.714,-2.6813,-2.6398,-2.5917,-2.5917,-2.5895,-2.5863,-2.5753,-2.5459,-2.5,-2.453,-2.4039,-2.3569,-2.3176,-2.3056,-2.3165,-2.3209,-2.3274,-2.3427,-2.3744,-2.4159,-2.4639,-2.5109,-2.5185,-2.4927,-2.4668,-2.4238,-2.3479,-2.2922,-2.2449,-2.1963,-2.1807,-2.1807,-2.1807,-2.1807,-2.1807,-2.1807,-2.1807,-2.1492,-2.0934,-2.006,-1.9256,-1.847,-1.7602,-1.6804,-1.6402,-1.5989,-1.5673,-1.5582,-1.5431,-1.5431,-1.5431,-1.5431,-1.5431,-1.5431,-1.5431,-1.5431,-1.5431,-1.5431,-1.5431,-1.5347,-1.5082,-1.4566,-1.362,-1.2589,-1.1397,-1.0284,-0.9345,-0.8744,-0.8656,-0.8572,-0.8572,-0.8524,-0.8463,-0.8385,-0.8215,-0.7951,-0.7752,-0.7663,-0.7602,-0.7553,-0.7484,-0.748,-0.7403,-0.6861,-0.6244,-0.5234,-3.5017,-3.5404,-3.6615,-3.7268,-3.773,-3.8809,-3.8796,-3.7743,-3.6316,-3.5334,-3.48,-3.3784,-3.2787,-3.2162,-3.1097,-3.0341,-2.9882,-2.9401,-2.903,-2.8822,-2.885,-2.885,-2.885,-2.885,-2.885,-2.8735,-2.8484,-2.8091,-2.761,-2.714,-2.6671,-2.6256,-2.5994,-2.5906,-2.5895,-2.5884,-2.5655,-2.5207,-2.4891,-2.4541,-2.405,-2.3558,-2.3351,-2.3252,-2.3143,-2.3001,-2.3045,-2.3285,-2.3656,-2.4148,-2.4607,-2.4799,-2.4465,-2.4292,-2.3826,-2.3165,-2.2704,-2.2294,-2.1911,-2.1807,-2.1807,-2.1807,-2.1807,-2.1807,-2.1731,-2.1492,-2.0934,-2.0537,-1.9423,-1.863,-1.7997,-1.7049,-1.6484,-1.6237,-1.5756,-1.5423,-1.5499,-1.5416,-1.5431,-1.5431,-1.5431,-1.5431,-1.5431,-1.5431,-1.5431,-1.5431,-1.5431,-1.5347,-1.5257,-1.4824,-1.4055,-1.2936,-1.1912,-1.0712,-0.9854,-0.9003,-0.8656,-0.866,-0.8572,-0.8572,-0.8532,-0.8455,-0.8394,-0.8276,-0.8028,-0.7833,-0.7752,-0.765,-0.7455,-0.7407,-0.7407,-0.7019,-0.6398,-0.5777,-0.4768,-3.5295,-3.5966,-3.6722,-3.7466,-3.8122,-3.8863,-3.8501,-3.6929,-3.55,-3.4306,-3.3505,-3.33,-3.2508,-3.0941,-3.0756,-3.0067,-2.9598,-2.9205,-2.8899,-2.879,-2.885,-2.885,-2.885,-2.885,-2.885,-2.8746,-2.885,-2.844,-2.7949,-2.7501,-2.7064,-2.6562,-2.6114,-2.5917,-2.5895,-2.5895,-2.5666,-2.5371,-2.5164,-2.4934,-2.453,-2.4071,-2.3777,-2.358,-2.3187,-2.3012,-2.3001,-2.3067,-2.3241,-2.3624,-2.4148,-2.4129,-2.3823,-2.3743,-2.3335,-2.2762,-2.2507,-2.218,-2.189,-2.1807,-2.1807,-2.1807,-2.1807,-2.1731,-2.1492,-2.1011,-2.0459,-1.9982,-1.8868,-1.8078,-1.7602,-1.6722,-1.6245,-1.5997,-1.5673,-1.5582,-1.5575,-1.5506,-1.5431,-1.5431,-1.5431,-1.5431,-1.5431,-1.5431,-1.5431,-1.5431,-1.5347,-1.5173,-1.4824,-1.4307,-1.3281,-1.1912,-1.088,-0.9937,-0.9253,-0.8656,-0.866,-0.8572,-0.8572,-0.8572,-0.8572,-0.8511,-0.8459,-0.8337,-0.8166,-0.7992,-0.7837,-0.7715,-0.7488,-0.7334,-0.7257,-0.6633,-0.5857,-0.5157,-0.4304,-3.5488,-3.5211,-3.6508,-3.7163,-3.757,-3.8686,-3.8395,-3.682,-3.5375,-3.4,-3.3377,-3.3201,-3.2431,-3.14,-3.0876,-3.0493,-2.9936,-2.9456,-2.9139,-2.8861,-2.885,-2.885,-2.885,-2.885,-2.885,-2.885,-2.885,-2.8506,-2.8036,-2.7545,-2.7097,-2.6649,-2.619,-2.5895,-2.5895,-2.5895,-2.5874,-2.5688,-2.5393,-2.5175,-2.5,-2.4563,-2.4126,-2.3744,-2.3252,-2.3023,-2.3001,-2.3001,-2.3056,-2.3177,-2.3449,-2.3587,-2.342,-2.3186,-2.2888,-2.2663,-2.2205,-2.1921,-2.1828,-2.1807,-2.1807,-2.1807,-2.1731,-2.1492,-2.0867,-2.0624,-1.9825,-1.8948,-1.8158,-1.7594,-1.6952,-1.655,-1.6147,-1.5906,-1.5658,-1.5575,-1.5499,-1.5431,-1.5431,-1.5431,-1.5431,-1.5431,-1.5431,-1.5431,-1.5431,-1.5431,-1.5257,-1.4999,-1.4398,-1.3795,-1.2425,-1.1058,-1.0284,-0.9428,-0.9087,-0.8572,-0.8572,-0.8572,-0.8572,-0.8572,-0.8572,-0.8568,-0.8511,-0.8442,-0.8353,-0.8162,-0.7923,-0.7601,-0.7371,-0.7239,-0.6945,-0.6167,-0.5386,-0.4613,-0.3759,-3.5391,-3.55,-3.6238,-3.659,-3.6998,-3.8467,-3.7864,-3.5451,-3.3906,-3.3005,-3.2588,-3.2409,-3.1984,-3.1247,-3.0777,-3.0308,-2.9849,-2.9368,-2.9008,-2.8883,-2.885,-2.885,-2.885,-2.885,-2.885,-2.8817,-2.8506,-2.8353,-2.8156,-2.749,-2.6966,-2.6878,-2.6256,-2.5928,-2.5895,-2.5895,-2.5895,-2.5852,-2.5666,-2.5513,-2.5437,-2.5043,-2.4421,-2.3787,-2.3274,-2.3001,-2.3001,-2.3001,-2.3001,-2.2981,-2.3015,-2.3015,-2.2938,-2.2698,-2.2555,-2.2262,-2.205,-2.1807,-2.1807,-2.1807,-2.1807,-2.1807,-2.1807,-2.1262,-2.0624,-2.0216,-1.9353,-1.8318,-1.7602,-1.7123,-1.6476,-1.6319,-1.6072,-1.5816,-1.5658,-1.5499,-1.5431,-1.5431,-1.5431,-1.5431,-1.5431,-1.5431,-1.5431,-1.5431,-1.5431,-1.5431,-1.4741,-1.4398,-1.3626,-1.2857,-1.166,-1.0463,-0.9689,-0.9087,-0.8828,-0.8572,-0.8572,-0.8572,-0.8572,-0.8572,-0.8572,-0.8572,-0.8564,-0.8487,-0.8398,-0.8098,-0.7796,-0.756,-0.7183,-0.6843,-0.6402,-0.5696,-0.4841,-0.391,-0.2978,-3.5295,-3.587,-3.5966,-3.6118,-3.6572,-3.7685,-3.663,-3.4056,-3.2256,-3.1861,-3.1655,-3.1721,-3.1772,-3.0908,-3.057,-3.0046,-2.9478,-2.9041,-2.8872,-2.8861,-2.885,-2.885,-2.8839,-2.8659,-2.8571,-2.8593,-2.8287,-2.8244,-2.8014,-2.737,-2.6856,-2.6955,-2.6343,-2.5939,-2.5895,-2.5895,-2.5895,-2.5884,-2.5852,-2.583,-2.5797,-2.5437,-2.4836,-2.4006,-2.3296,-2.3023,-2.3001,-2.3001,-2.3001,-2.3001,-2.2852,-2.2628,-2.2478,-2.2327,-2.2176,-2.1828,-2.1818,-2.1807,-2.1807,-2.1807,-2.1807,-2.1807,-2.1568,-2.1165,-2.0372,-1.9502,-1.863,-1.7917,-1.7204,-1.6722,-1.6402,-1.6245,-1.5997,-1.5741,-1.5499,-1.5431,-1.5431,-1.5431,-1.5431,-1.5431,-1.5431,-1.5431,-1.5431,-1.5431,-1.5431,-1.5257,-1.4482,-1.3795,-1.3027,-1.1997,-1.089,-1.012,-0.9432,-0.9003,-0.8656,-0.8572,-0.8572,-0.8572,-0.8572,-0.8572,-0.8572,-0.8572,-0.856,-0.8507,-0.839,-0.811,-0.7777,-0.7473,-0.7088,-0.6624,-0.5935,-0.5231,-0.4222,-0.3132,-0.2353,-3.5488,-3.5005,-3.5679,-3.6332,-3.6633,-3.5147,-3.4752,-3.4776,-3.2477,-3.1595,-3.1644,-3.2488,-3.2007,-3.1119,-3.0843,-3.0286,-2.9445,-2.8964,-2.885,-2.8839,-2.8724,-2.8691,-2.8626,-2.8309,-2.8167,-2.8145,-2.7971,-2.7829,-2.7555,-2.6966,-2.6671,-2.6605,-2.619,-2.5906,-2.5895,-2.5895,-2.5895,-2.5895,-2.5895,-2.5895,-2.5852,-2.5622,-2.5185,-2.4268,-2.346,-2.3045,-2.3001,-2.3001,-2.3001,-2.3001,-2.2916,-2.2767,-2.2478,-2.2262,-2.2111,-2.1883,-2.1807,-2.1807,-2.1807,-2.1807,-2.1807,-2.1655,-2.1175,-2.0372,-1.958,-1.878,-1.7997,-1.7286,-1.6894,-1.6648,-1.6394,-1.6162,-1.6004,-1.5748,-1.5582,-1.5431,-1.5431,-1.5431,-1.5431,-1.5431,-1.5431,-1.5431,-1.5431,-1.5431,-1.5347,-1.5082,-1.4391,-1.3711,-1.3033,-1.1826,-1.0539,-0.9854,-0.9345,-0.8915,-0.8572,-0.8572,-0.8572,-0.8572,-0.8572,-0.8572,-0.8572,-0.8572,-0.8548,-0.8428,-0.8348,-0.811,-0.7867,-0.7445,-0.6864,-0.6217,-0.5562,-0.4768,-0.3756,-0.2743,-0.2196,-3.5114,-3.4823,-3.5211,-3.5283,-3.5126,-3.5234,-3.445,-3.333,-3.2128,-3.1428,-3.1405,-3.1706,-3.1462,-3.0669,-3.0242,-2.9751,-2.9194,-2.8899,-2.885,-2.8735,-2.8517,-2.8386,-2.8342,-2.7905,-2.7545,-2.737,-2.7282,-2.7359,-2.7228,-2.6573,-2.6431,-2.6496,-2.6147,-2.5906,-2.5895,-2.5895,-2.5895,-2.5895,-2.5895,-2.5895,-2.5819,-2.5513,-2.488,-2.4399,-2.3591,-2.3056,-2.3001,-2.3001,-2.3001,-2.3001,-2.3001,-2.2777,-2.2478,-2.2262,-2.2111,-2.1883,-2.1807,-2.1807,-2.1807,-2.1807,-2.1645,-2.1088,-2.0692,-1.9904,-1.8948,-1.8238,-1.7602,-1.6968,-1.6656,-1.6574,-1.6237,-1.617,-1.5922,-1.559,-1.5431,-1.5431,-1.5431,-1.5431,-1.5431,-1.5431,-1.5431,-1.5431,-1.5431,-1.5347,-1.534,-1.4908,-1.4223,-1.3542,-1.2863,-1.1488,-1.0024,-0.9515,-0.8999,-0.8828,-0.8556,-0.8536,-0.856,-0.8568,-0.8544,-0.8544,-0.8568,-0.8568,-0.8476,-0.8372,-0.8273,-0.8005,-0.7405,-0.6869,-0.641,-0.5749,-0.4628,-0.36,-0.3132,-0.251,-0.1884,-3.4511,-3.4523,-3.4523,-3.4124,-3.4024,-3.5636,-3.4781,-3.2374,-3.1873,-3.1374,-3.0788,-3.0734,-3.0603,-3.0035,-2.9576,-2.9128,-2.885,-2.885,-2.885,-2.8659,-2.8298,-2.8069,-2.7905,-2.7457,-2.7031,-2.6824,-2.6562,-2.6682,-2.6747,-2.6299,-2.6201,-2.6245,-2.6037,-2.5895,-2.5895,-2.5895,-2.5895,-2.5895,-2.5895,-2.5895,-2.5688,-2.5109,-2.4563,-2.4443,-2.3613,-2.3132,-2.3012,-2.3001,-2.3001,-2.3001,-2.2916,-2.2767,-2.2478,-2.2338,-2.2187,-2.1883,-2.1807,-2.1807,-2.1731,-2.1492,-2.1252,-2.1098,-2.0304,-1.9353,-1.8638,-1.7997,-1.7367,-1.6812,-1.6648,-1.6492,-1.6245,-1.6087,-1.5831,-1.559,-1.5431,-1.5431,-1.5431,-1.5431,-1.5431,-1.5431,-1.5431,-1.5431,-1.5431,-1.5347,-1.534,-1.4566,-1.388,-1.3203,-1.2437,-1.0722,-0.9515,-0.8999,-0.8656,-0.8656,-0.8544,-0.8483,-0.8519,-0.8564,-0.8507,-0.8471,-0.8432,-0.8476,-0.8384,-0.8185,-0.7762,-0.7499,-0.693,-0.6337,-0.5915,-0.505,-0.3536,-0.2744,-0.2666,-0.2196,-0.1571,-3.3477,-3.3477,-3.3489,-3.4078,-3.4889,-3.4707,-3.4188,-3.3449,-3.2289,-3.1285,-3.0286,-3.0264,-3.0024,-2.9554,-2.9095,-2.8927,-2.8861,-2.885,-2.8724,-2.8593,-2.8189,-2.7836,-2.7749,-2.7097,-2.6725,-2.6485,-2.6179,-2.6026,-2.6147,-2.6016,-2.5928,-2.5994,-2.5994,-2.5895,-2.5895,-2.5895,-2.5895,-2.5895,-2.5895,-2.5895,-2.5808,-2.5338,-2.4891,-2.4432,-2.3919,-2.3394,-2.3067,-2.3001,-2.3001,-2.2927,-2.2852,-2.2628,-2.2402,-2.2262,-2.2025,-2.1883,-2.1807,-2.1807,-2.1731,-2.1328,-2.1011,-2.0769,-1.9747,-1.8868,-1.8318,-1.7602,-1.6886,-1.673,-1.6558,-1.6394,-1.6237,-1.5989,-1.5816,-1.5575,-1.5506,-1.5431,-1.5431,-1.5431,-1.5431,-1.5431,-1.5431,-1.5431,-1.5431,-1.5347,-1.5173,-1.4307,-1.3535,-1.2857,-1.1918,-1.0289,-0.9174,-0.8744,-0.8503,-0.8491,-0.8442,-0.8398,-0.8385,-0.8471,-0.8422,-0.8283,-0.8269,-0.8233,-0.8109,-0.7937,-0.7432,-0.703,-0.6637,-0.605,-0.5524,-0.4425,-0.3062,-0.2666,-0.251,-0.1962,-0.1336,-3.298,-3.3906,-3.3906,-3.4235,-3.474,-3.3942,-3.3196,-3.2534,-3.1266,-3.0403,-2.9902,-2.9794,-2.9532,-2.9106,-2.8822,-2.8861,-2.885,-2.8828,-2.8582,-2.8276,-2.7861,-2.7512,-2.7108,-2.6583,-2.6234,-2.619,-2.6037,-2.595,-2.5895,-2.5895,-2.5895,-2.5895,-2.5895,-2.5895,-2.5895,-2.5895,-2.5895,-2.5895,-2.5895,-2.5895,-2.5775,-2.5426,-2.4956,-2.4497,-2.3995,-2.3514,-2.3132,-2.3001,-2.2927,-2.2852,-2.2852,-2.2628,-2.2402,-2.2252,-2.2176,-2.1807,-2.1807,-2.1807,-2.1731,-2.1405,-2.1011,-2.0372,-1.9344,-1.863,-1.7997,-1.7204,-1.673,-1.673,-1.6476,-1.6394,-1.6237,-1.5906,-1.5658,-1.5499,-1.5423,-1.5431,-1.5431,-1.5431,-1.5431,-1.5431,-1.5347,-1.5347,-1.5257,-1.5173,-1.4999,-1.4482,-1.3529,-1.2662,-1.1563,-1.0028,-0.917,-0.8656,-0.8479,-0.8385,-0.8316,-0.8251,-0.817,-0.8207,-0.8034,-0.7942,-0.7986,-0.797,-0.7752,-0.7371,-0.6858,-0.6499,-0.6188,-0.5378,-0.443,-0.3538,-0.2589,-0.2276,-0.2041,-0.1805,-0.1336,-3.2576,-3.3838,-3.3761,-3.3838,-3.3993,-3.3332,-3.254,-3.1635,-3.071,-2.9818,-2.9368,-2.9292,-2.9085,-2.8833,-2.8746,-2.868,-2.856,-2.8582,-2.8276,-2.7839,-2.7392,-2.6998,-2.6671,-2.6212,-2.5939,-2.5895,-2.5928,-2.5895,-2.5895,-2.5895,-2.5895,-2.5895,-2.5895,-2.5895,-2.5895,-2.5895,-2.5895,-2.5895,-2.5895,-2.5895,-2.583,-2.5579,-2.5054,-2.4574,-2.4093,-2.3635,-2.3099,-2.3001,-2.2927,-2.2852,-2.2777,-2.2553,-2.2327,-2.2176,-2.2101,-2.1807,-2.1807,-2.1645,-2.1492,-2.1175,-2.0692,-1.9982,-1.8948,-1.823,-1.7131,-1.673,-1.673,-1.673,-1.6409,-1.6245,-1.6087,-1.5831,-1.5582,-1.5506,-1.5431,-1.5431,-1.5431,-1.5431,-1.5431,-1.5431,-1.5347,-1.5006,-1.4999,-1.4908,-1.4741,-1.4489,-1.3613,-1.2462,-1.0984,-0.9429,-0.8944,-0.8406,-0.8316,-0.8219,-0.8174,-0.8101,-0.802,-0.7885,-0.7718,-0.7698,-0.7663,-0.7502,-0.7297,-0.6813,-0.6232,-0.546,-0.4789,-0.4014,-0.3287,-0.2821,-0.2276,-0.1728,-0.1415,-0.1336,-0.1336,-3.2138,-3.2736,-3.2147,-3.236,-3.2885,-3.2736,-3.2123,-3.1293,-3.1031,-3.0057,-2.897,-2.8822,-2.8833,-2.8724,-2.8626,-2.8451,-2.808,-2.808,-2.7774,-2.7348,-2.6922,-2.6693,-2.642,-2.6136,-2.5895,-2.5895,-2.5895,-2.5895,-2.5895,-2.5895,-2.5895,-2.5895,-2.5895,-2.5895,-2.5895,-2.5895,-2.5895,-2.5895,-2.5895,-2.5895,-2.5895,-2.5732,-2.536,-2.4672,-2.4377,-2.4006,-2.3078,-2.3001,-2.3001,-2.2927,-2.2703,-2.2478,-2.2252,-2.2101,-2.1959,-2.1807,-2.1568,-2.1328,-2.0944,-2.0779,-2.0537,-1.9982,-1.9027,-1.7755,-1.6812,-1.673,-1.673,-1.6648,-1.6409,-1.617,-1.6004,-1.5756,-1.5514,-1.5431,-1.5431,-1.5431,-1.5431,-1.5431,-1.5431,-1.5431,-1.5173,-1.4824,-1.423,-1.4055,-1.369,-1.3342,-1.2356,-1.1142,-0.9916,-0.8628,-0.8464,-0.8158,-0.8085,-0.8028,-0.8012,-0.7935,-0.7829,-0.7641,-0.7564,-0.7404,-0.7432,-0.7177,-0.6635,-0.6135,-0.5404,-0.4398,-0.3511,-0.2956,-0.2596,-0.2356,-0.2041,-0.1492,-0.1336,-0.1336,-0.1336,-3.1837,-3.2013,-3.1837,-3.2164,-3.2834,-3.2127,-3.1412,-3.0687,-3.0079,-2.9463,-2.885,-2.8839,-2.8582,-2.8386,-2.8287,-2.8047,-2.7643,-2.7588,-2.7282,-2.6998,-2.6704,-2.6463,-2.6223,-2.6037,-2.5895,-2.5895,-2.5895,-2.5895,-2.5895,-2.5895,-2.5895,-2.5895,-2.5895,-2.5895,-2.5895,-2.5895,-2.5895,-2.5895,-2.5895,-2.5895,-2.5895,-2.5852,-2.5448,-2.4585,-2.4486,-2.3962,-2.3176,-2.3023,-2.2927,-2.2767,-2.2628,-2.2478,-2.2252,-2.2035,-2.1883,-2.1645,-2.1328,-2.0857,-2.0469,-2.0313,-2.006,-1.8868,-1.7917,-1.7041,-1.6738,-1.673,-1.673,-1.6574,-1.6327,-1.617,-1.6004,-1.568,-1.5431,-1.5431,-1.5431,-1.5431,-1.5431,-1.5431,-1.5257,-1.5173,-1.4741,-1.4307,-1.3711,-1.3118,-1.265,-1.2116,-1.0966,-0.9859,-0.8813,-0.8109,-0.804,-0.7959,-0.789,-0.7854,-0.7841,-0.774,-0.763,-0.7485,-0.7344,-0.7103,-0.6862,-0.615,-0.5618,-0.5152,-0.4596,-0.3628,-0.2843,-0.2156,-0.1896,-0.1809,-0.1649,-0.1415,-0.1336,-0.1336,-0.1336,-3.1584,-3.1484,-3.1673,-3.1989,-3.2215,-3.1512,-3.0789,-3.0158,-2.9382,-2.8943,-2.885,-2.8828,-2.8484,-2.8145,-2.7945,-2.7654,-2.7261,-2.7075,-2.6802,-2.6551,-2.6343,-2.619,-2.6005,-2.5895,-2.5895,-2.5895,-2.5895,-2.5895,-2.5895,-2.5895,-2.5895,-2.5895,-2.5895,-2.5895,-2.5895,-2.5895,-2.5895,-2.5895,-2.5895,-2.5895,-2.5895,-2.5874,-2.5448,-2.465,-2.4486,-2.3962,-2.3285,-2.3001,-2.2927,-2.2767,-2.2617,-2.2478,-2.2262,-2.2035,-2.1797,-2.1328,-2.0847,-2.0382,-1.9913,-1.959,-1.9186,-1.8238,-1.7367,-1.6886,-1.673,-1.673,-1.673,-1.6656,-1.6409,-1.6162,-1.6087,-1.5756,-1.5514,-1.5423,-1.5431,-1.5431,-1.5431,-1.5431,-1.509,-1.4908,-1.4391,-1.3691,-1.2126,-1.142,-1.112,-1.0601,-0.9849,-0.9055,-0.8449,-0.7923,-0.7886,-0.7801,-0.772,-0.7691,-0.7667,-0.7532,-0.741,-0.7247,-0.7102,-0.6638,-0.6218,-0.5453,-0.4673,-0.3972,-0.3421,-0.2773,-0.2261,-0.1745,-0.1498,-0.1415,-0.1336,-0.1336,-0.1336,-0.1336,-0.1336,-3.1383,-3.1038,-3.1484,-3.1383,-3.1026,-3.0937,-3.0385,-2.9566,-2.9382,-2.9128,-2.8839,-2.8839,-2.8451,-2.8069,-2.7916,-2.7424,-2.6758,-2.6616,-2.6409,-2.6103,-2.6059,-2.5939,-2.5917,-2.5895,-2.5895,-2.5895,-2.5895,-2.5895,-2.5895,-2.5895,-2.5895,-2.5895,-2.5895,-2.5895,-2.5895,-2.5895,-2.5895,-2.5895,-2.5895,-2.5895,-2.5895,-2.5895,-2.5382,-2.4716,-2.4486,-2.3995,-2.3241,-2.3001,-2.3001,-2.2927,-2.2617,-2.2402,-2.2166,-2.1949,-2.1482,-2.0692,-2.0537,-1.9668,-1.8318,-1.8158,-1.7997,-1.7844,-1.7049,-1.673,-1.673,-1.673,-1.6648,-1.6648,-1.6402,-1.6245,-1.6079,-1.5831,-1.559,-1.5423,-1.5431,-1.5431,-1.5431,-1.5431,-1.5166,-1.4475,-1.3789,-1.2983,-1.0953,-0.9653,-0.9364,-0.8949,-0.8487,-0.8135,-0.7909,-0.7748,-0.7715,-0.7683,-0.7602,-0.7512,-0.75,-0.7305,-0.7192,-0.7103,-0.6799,-0.6352,-0.5833,-0.517,-0.4223,-0.3102,-0.2557,-0.2174,-0.1755,-0.1338,-0.1337,-0.1336,-0.1336,-0.1336,-0.1336,-0.1258,-0.1258,-3.082,-3.0949,-3.1128,-3.0668,-3.0125,-3.0679,-3.0204,-2.922,-2.9035,-2.8943,-2.885,-2.885,-2.8276,-2.7774,-2.749,-2.7086,-2.6299,-2.6147,-2.5961,-2.5928,-2.5895,-2.5906,-2.5895,-2.5895,-2.5895,-2.5895,-2.5895,-2.5895,-2.5895,-2.5895,-2.5895,-2.5895,-2.5895,-2.5895,-2.5895,-2.5895,-2.5895,-2.5895,-2.5895,-2.5895,-2.5895,-2.5852,-2.5459,-2.4552,-2.4486,-2.3995,-2.3099,-2.3012,-2.3001,-2.2927,-2.2628,-2.2241,-2.1852,-2.1558,-2.1339,-2.0537,-2.006,-1.8868,-1.7683,-1.7131,-1.7131,-1.7049,-1.6968,-1.673,-1.673,-1.673,-1.6648,-1.6476,-1.6402,-1.6162,-1.5824,-1.5673,-1.5423,-1.5431,-1.5431,-1.5431,-1.5431,-1.5347,-1.5082,-1.4041,-1.3269,-1.1567,-0.9742,-0.8967,-0.8587,-0.8316,-0.8011,-0.8002,-0.7819,-0.7622,-0.7561,-0.748,-0.7443,-0.7354,-0.7257,-0.7103,-0.6949,-0.6872,-0.656,-0.6254,-0.5581,-0.4663,-0.3816,-0.2711,-0.215,-0.167,-0.1428,-0.1344,-0.1338,-0.1336,-0.1336,-0.1258,-0.1179,-0.1179,-0.11,-3.0114,-3.012,-3.032,-2.9866,-2.9218,-3.0145,-2.9943,-2.8932,-2.885,-2.885,-2.885,-2.8735,-2.8233,-2.7555,-2.7239,-2.6791,-2.5961,-2.5906,-2.5906,-2.5895,-2.5895,-2.5895,-2.5895,-2.5895,-2.5895,-2.5895,-2.5895,-2.5895,-2.5895,-2.5895,-2.5895,-2.5895,-2.5895,-2.5895,-2.5895,-2.5895,-2.5895,-2.5895,-2.5895,-2.5895,-2.5895,-2.5775,-2.5426,-2.476,-2.4366,-2.4017,-2.3296,-2.3001,-2.3001,-2.2852,-2.2542,-2.2101,-2.17,-2.1242,-2.1021,-2.0138,-1.8868,-1.7925,-1.7049,-1.673,-1.6812,-1.673,-1.673,-1.673,-1.673,-1.673,-1.6566,-1.6484,-1.6245,-1.5989,-1.5733,-1.5506,-1.5506,-1.5431,-1.5431,-1.5431,-1.5347,-1.5257,-1.4391,-1.3353,-1.2012,-1.0258,-0.8906,-0.8479,-0.7982,-0.7799,-0.7618,-0.7634,-0.7733,-0.7561,-0.748,-0.7407,-0.7334,-0.7257,-0.7103,-0.6945,-0.6791,-0.6641,-0.617,-0.5702,-0.4849,-0.3853,-0.3092,-0.2393,-0.1905,-0.1505,-0.1432,-0.1272,-0.1262,-0.1258,-0.1336,-0.1258,-0.11,-0.0786,-0.055,-2.947,-2.8872,-2.9141,-2.8833,-2.8274,-2.9431,-2.9476,-2.8839,-2.885,-2.885,-2.885,-2.885,-2.8211,-2.7457,-2.7315,-2.678,-2.6048,-2.5917,-2.5895,-2.5895,-2.5895,-2.5895,-2.5895,-2.5895,-2.5895,-2.5895,-2.5895,-2.5895,-2.5895,-2.5895,-2.5895,-2.5895,-2.5895,-2.5895,-2.5895,-2.5895,-2.5895,-2.5895,-2.5895,-2.5895,-2.5895,-2.5797,-2.5284,-2.4716,-2.4323,-2.3842,-2.3285,-2.3001,-2.2927,-2.2703,-2.2478,-2.2252,-2.1711,-2.1001,-2.0216,-1.9107,-1.7683,-1.7204,-1.673,-1.673,-1.673,-1.673,-1.673,-1.673,-1.673,-1.6648,-1.6566,-1.6402,-1.6245,-1.5989,-1.5733,-1.5658,-1.5582,-1.5506,-1.5431,-1.5347,-1.5173,-1.465,-1.3529,-1.2324,-1.0868,-0.9428,-0.8423,-0.7836,-0.7766,-0.7638,-0.7565,-0.7541,-0.7553,-0.7545,-0.7484,-0.7334,-0.7257,-0.7103,-0.6945,-0.6633,-0.6247,-0.6015,-0.5312,-0.4766,-0.391,-0.321,-0.2601,-0.1976,-0.1576,-0.134,-0.1346,-0.1266,-0.1181,-0.1258,-0.1258,-0.1258,-0.11,0.0235,0.0706,-2.8622,-2.8677,-2.8551,-2.8105,-2.7613,-2.7966,-2.8554,-2.9165,-2.8943,-2.885,-2.885,-2.8757,-2.8123,-2.7359,-2.7304,-2.6693,-2.6212,-2.5895,-2.5895,-2.5895,-2.5895,-2.5895,-2.5895,-2.5895,-2.5895,-2.5895,-2.5895,-2.5895,-2.5895,-2.5895,-2.5895,-2.5895,-2.5895,-2.5895,-2.5895,-2.5895,-2.5895,-2.5895,-2.5895,-2.5895,-2.5775,-2.5611,-2.5076,-2.4628,-2.4148,-2.3635,-2.3187,-2.3001,-2.2927,-2.2703,-2.2478,-2.1949,-2.0304,-2.0304,-2.006,-1.855,-1.7844,-1.7448,-1.6894,-1.673,-1.673,-1.673,-1.673,-1.673,-1.673,-1.6648,-1.6566,-1.6327,-1.6162,-1.5906,-1.5665,-1.5582,-1.5506,-1.5431,-1.5347,-1.5257,-1.4999,-1.4132,-1.2996,-1.1348,-0.9834,-0.891,-0.7844,-0.7634,-0.7573,-0.7553,-0.7533,-0.75,-0.748,-0.7484,-0.7403,-0.7257,-0.7026,-0.6868,-0.6479,-0.6089,-0.5702,-0.5312,-0.4611,-0.391,-0.321,-0.2586,-0.2119,-0.1728,-0.1415,-0.1336,-0.1338,-0.1258,-0.11,-0.1179,-0.1258,-0.1179,-0.0786,0.0863,0.2198,-2.7828,-2.7827,-2.7606,-2.7289,-2.7031,-2.7053,-2.7668,-2.8464,-2.836,-2.8189,-2.8178,-2.8167,-2.7763,-2.7119,-2.6977,-2.6616,-2.595,-2.5895,-2.5895,-2.5895,-2.5895,-2.5895,-2.5895,-2.5895,-2.5895,-2.5895,-2.5895,-2.5895,-2.5895,-2.5895,-2.5895,-2.5895,-2.5895,-2.5895,-2.5895,-2.5895,-2.5895,-2.5895,-2.5895,-2.5895,-2.5699,-2.5404,-2.4956,-2.4476,-2.3973,-2.3482,-2.3078,-2.3012,-2.2852,-2.2553,-2.2252,-2.1385,-1.9904,-1.9747,-1.9027,-1.7674,-1.7367,-1.7131,-1.6812,-1.673,-1.673,-1.673,-1.673,-1.673,-1.6648,-1.6566,-1.6409,-1.617,-1.5997,-1.5831,-1.559,-1.5431,-1.5431,-1.5431,-1.5264,-1.5173,-1.4482,-1.362,-1.2175,-1.0475,-0.9247,-0.8265,-0.7683,-0.7553,-0.7484,-0.75,-0.7508,-0.7423,-0.7407,-0.7334,-0.7253,-0.7096,-0.6865,-0.6633,-0.6089,-0.5544,-0.5076,-0.4455,-0.3754,-0.3132,-0.251,-0.2118,-0.1728,-0.1492,-0.1336,-0.1336,-0.1336,-0.1179,-0.1022,-0.1021,-0.055,0.0079,0.1099,0.2906,0.4012,-2.7313,-2.6561,-2.6445,-2.6517,-2.654,-2.6573,-2.6813,-2.7184,-2.7206,-2.7261,-2.7348,-2.7359,-2.714,-2.6802,-2.6715,-2.6431,-2.6016,-2.5895,-2.5895,-2.5895,-2.5895,-2.5895,-2.5895,-2.5895,-2.5895,-2.5895,-2.5895,-2.5895,-2.5895,-2.5895,-2.5895,-2.5895,-2.5895,-2.5895,-2.5895,-2.5895,-2.5895,-2.5884,-2.5797,-2.571,-2.5622,-2.5338,-2.4902,-2.4388,-2.3897,-2.3438,-2.3121,-2.2927,-2.2767,-2.2166,-2.1614,-2.0914,-1.9816,-1.8789,-1.7602,-1.7204,-1.6886,-1.6812,-1.673,-1.673,-1.673,-1.673,-1.673,-1.6648,-1.6566,-1.6558,-1.6319,-1.6162,-1.5914,-1.5748,-1.5506,-1.5313,-1.5262,-1.509,-1.4925,-1.4592,-1.3919,-1.2705,-1.0995,-0.9509,-0.8607,-0.7744,-0.7602,-0.748,-0.748,-0.748,-0.7407,-0.7334,-0.7257,-0.718,-0.7099,-0.6942,-0.6475,-0.6086,-0.5467,-0.4921,-0.43,-0.3677,-0.2976,-0.2508,-0.2119,-0.1728,-0.1336,-0.1258,-0.1179,-0.1258,-0.1258,-0.1022,-0.0629,-0.0236,0.0392,0.1492,0.2907,0.4406,0.48,-2.6693,-2.6445,-2.6135,-2.6056,-2.607,-2.6081,-2.6147,-2.6234,-2.6234,-2.666,-2.7206,-2.725,-2.7031,-2.6616,-2.6562,-2.631,-2.5994,-2.5895,-2.5895,-2.5895,-2.5895,-2.5895,-2.5895,-2.5895,-2.5895,-2.5895,-2.5895,-2.5895,-2.5895,-2.5895,-2.5895,-2.5895,-2.5895,-2.5895,-2.5895,-2.5895,-2.5884,-2.5797,-2.5579,-2.5371,-2.5196,-2.4858,-2.4421,-2.3951,-2.3471,-2.322,-2.2927,-2.2852,-2.222,-2.1527,-2.1145,-2.0119,-1.863,-1.7602,-1.6968,-1.673,-1.673,-1.673,-1.673,-1.673,-1.673,-1.673,-1.6648,-1.6566,-1.6484,-1.6394,-1.6312,-1.6072,-1.5831,-1.559,-1.5372,-1.5218,-1.5005,-1.4753,-1.4472,-1.3919,-1.3366,-1.1549,-0.9754,-0.8819,-0.7965,-0.7671,-0.7529,-0.748,-0.748,-0.7407,-0.7334,-0.7184,-0.7103,-0.7026,-0.6868,-0.6633,-0.5928,-0.5464,-0.4921,-0.43,-0.3754,-0.2976,-0.2275,-0.1884,-0.1649,-0.1493,-0.1258,-0.1022,-0.0943,-0.1022,-0.0864,-0.055,-0.0157,0.0628,0.1727,0.3064,0.3612,0.4794,0.4948,-2.6121,-2.5909,-2.5891,-2.5895,-2.5895,-2.5895,-2.5895,-2.5895,-2.5895,-2.619,-2.6627,-2.666,-2.654,-2.6321,-2.631,-2.6245,-2.5917,-2.5906,-2.5895,-2.5895,-2.5895,-2.5895,-2.5895,-2.5895,-2.5895,-2.5895,-2.5895,-2.5895,-2.5895,-2.5895,-2.5895,-2.5895,-2.5895,-2.5895,-2.5895,-2.5884,-2.5764,-2.5568,-2.5273,-2.4967,-2.4672,-2.4268,-2.4061,-2.3624,-2.3253,-2.2992,-2.2852,-2.2692,-2.1993,-2.0904,-2.0119,-1.8939,-1.7755,-1.7049,-1.6812,-1.673,-1.673,-1.673,-1.673,-1.673,-1.673,-1.673,-1.673,-1.6648,-1.6402,-1.6312,-1.6147,-1.5914,-1.5673,-1.5423,-1.5343,-1.5204,-1.4643,-1.4342,-1.3763,-1.3187,-1.1766,-0.9983,-0.8873,-0.8319,-0.7715,-0.7586,-0.7488,-0.748,-0.748,-0.7484,-0.7334,-0.7103,-0.6949,-0.6795,-0.6714,-0.6402,-0.5777,-0.4996,-0.4375,-0.3832,-0.321,-0.2431,-0.1649,-0.1571,-0.1493,-0.1415,-0.1258,-0.0943,-0.0707,-0.055,-0.0393,0.0236,0.1492,0.2671,0.3696,0.4726,0.5034,0.5104,0.5176,-2.5514,-2.5322,-2.5633,-2.5841,-2.5895,-2.5895,-2.5895,-2.5895,-2.5895,-2.5895,-2.5983,-2.5983,-2.5895,-2.5895,-2.5895,-2.5895,-2.5895,-2.5895,-2.5895,-2.5895,-2.5895,-2.5895,-2.5895,-2.5895,-2.5895,-2.5895,-2.5895,-2.5895,-2.5895,-2.5895,-2.5895,-2.5895,-2.5895,-2.5895,-2.5884,-2.5775,-2.559,-2.5273,-2.4923,-2.4476,-2.4082,-2.3711,-2.3689,-2.3438,-2.3113,-2.2874,-2.2777,-2.2542,-2.1928,-2.0672,-1.9335,-1.8078,-1.7286,-1.673,-1.673,-1.673,-1.673,-1.673,-1.673,-1.673,-1.673,-1.673,-1.673,-1.6558,-1.6378,-1.6124,-1.5876,-1.5666,-1.5433,-1.5335,-1.5255,-1.4835,-1.4279,-1.3507,-1.2823,-1.2061,-1.029,-0.8693,-0.8242,-0.7799,-0.7626,-0.75,-0.7488,-0.7484,-0.7484,-0.7407,-0.7253,-0.7099,-0.6868,-0.656,-0.6409,-0.6096,-0.5625,-0.4844,-0.4064,-0.3209,-0.2586,-0.2118,-0.1415,-0.1336,-0.1336,-0.1336,-0.1179,-0.0864,-0.0629,0.0079,0.0864,0.1649,0.2987,0.4012,0.4641,0.5112,0.5185,0.5254,0.5329,-2.4905,-2.5175,-2.5284,-2.5524,-2.5841,-2.5884,-2.5895,-2.5895,-2.5895,-2.5895,-2.5895,-2.5895,-2.5895,-2.5895,-2.5895,-2.5895,-2.5895,-2.5895,-2.5895,-2.5895,-2.5895,-2.5895,-2.5895,-2.5895,-2.5895,-2.5895,-2.5895,-2.5895,-2.5895,-2.5895,-2.5895,-2.5895,-2.5874,-2.5852,-2.5808,-2.56,-2.5207,-2.4891,-2.4432,-2.3951,-2.3886,-2.3613,-2.3449,-2.3274,-2.3056,-2.2852,-2.2777,-2.2542,-2.1776,-2.0605,-1.9027,-1.7683,-1.7049,-1.673,-1.673,-1.673,-1.673,-1.673,-1.673,-1.673,-1.673,-1.6577,-1.6561,-1.63,-1.6129,-1.586,-1.5554,-1.5235,-1.5087,-1.5049,-1.4866,-1.4083,-1.3405,-1.2239,-1.1396,-1.0261,-0.876,-0.8204,-0.7897,-0.7647,-0.7537,-0.7484,-0.7488,-0.7407,-0.7257,-0.718,-0.6945,-0.6791,-0.6714,-0.6405,-0.6022,-0.5709,-0.5318,-0.4766,-0.3908,-0.2663,-0.1962,-0.1571,-0.1336,-0.1336,-0.1336,-0.1336,-0.11,-0.0629,0.0314,0.1178,0.2042,0.2986,0.3217,0.4081,0.4789,0.526,0.5332,0.5407,0.5559]},{"header":{"parameterUnit":"m.s-1","parameterCategory":1,"la1":31.0,"la2":29.5877,"lo1":-88.7671,"lo2":-86.6584,"dy":0.0162,"dx":0.0185,"nx":115,"ny":88,"refTime":"2026-03-17T12:00:00:Z","depth":0,"parameterNumber":3,"parameterNumberName":"V-component_of_WINDS"},"data":[0.0,0.0,0.0,0.0,0.0,0.0,0.0,0.0,0.0,0.0,0.0,0.0,0.0,0.0,0.0,0.0,0.0,0.0,0.0,0.0,0.0,0.0,0.0,0.0,0.0,0.0,0.0,0.0,0.0,0.0,0.0,0.0,0.0,0.0,0.0,0.0,0.0,0.0,0.0,0.0,0.0,0.0,0.0,0.0,0.0,0.0,0.0,0.0,0.0,0.0,0.0,0.0,0.0,0.0,0.0,0.0,0.0,0.0,0.0,0.0,0.0,0.0,0.0,0.0,0.0,0.0,0.0,0.0,0.0,0.0,0.0,0.0,0.0,0.0,0.0,0.0,0.0,0.0,0.0,0.0,0.0,0.0,0.0,0.0,0.0,0.0,0.0,0.0,0.0,0.0,0.0,0.0,0.0,0.0,0.0,0.0,0.0,0.0,0.0,0.0,0.0,0.0,0.0,0.0,0.0,0.0,0.0,0.0,0.0,0.0,0.0,0.0,0.0,0.0,0.0,0.0,0.0,0.0,0.0,0.0,0.0,0.0,0.0,0.0,0.0,0.0,0.0,0.0,0.0,0.0,0.0,0.0,0.0,0.0,0.0,0.0,0.0,0.0,0.0,0.0,0.0,0.0,0.0,0.0,0.0,0.0,0.0,0.0,0.0,0.0,0.0,0.0,0.0,0.0,0.0,0.0,0.0,0.0,0.0,0.0,0.0,0.0,0.0,0.0,0.0,0.0,0.0,0.0,0.0,0.0,0.0,0.0,0.0,0.0,0.0,0.0,0.0,0.0,0.0,0.0,0.0,0.0,0.0,0.0,0.0,0.0,0.0,0.0,0.0,0.0,0.0,0.0,0.0,0.0,0.0,0.0,0.0,0.0,0.0,0.0,0.0,0.0,0.0,0.0,0.0,0.0,0.0,0.0,0.0,0.0,0.0,0.0,0.0,0.0,0.0,0.0,0.0,0.0,0.0,0.0,0.0,0.0,0.0,0.0,0.0,0.0,0.0,0.0,0.0,0.0,0.0,0.0,0.0,0.0,0.0,0.0,0.0,0.0,0.0,0.0,0.0,0.0,0.0,0.0,0.0,0.0,0.0,0.0,0.0,0.0,0.0,0.0,0.0,0.0,0.0,0.0,0.0,0.0,0.0,0.0,0.0,0.0,0.0,0.0,0.0,0.0,0.0,0.0,0.0,0.0,0.0,0.0,0.0,0.0,0.0,0.0,0.0,0.0,0.0,0.0,0.0,0.0,0.0,0.0,0.0,0.0,0.0,0.0,0.0,0.0,0.0,0.0,0.0,0.0,0.0,0.0,0.0,0.0,0.0,0.0,0.0,0.0,0.0,0.0,0.0,0.0,0.0,0.0,0.0,0.0,0.0,0.0,0.0,0.0,0.0,0.0,0.0,0.0,0.0,0.0,0.0,0.0,0.0,0.0,0.0,0.0,0.0,0.0,0.0,0.0,0.0,0.0,0.0,0.0,0.0,0.0,0.0,0.0,0.0,0.0,0.0,0.0,0.0,0.0,0.0,0.0,0.0,0.0,0.0,0.0,0.0,0.0,0.0,0.0,0.0,0.0,0.0,0.0,0.0,0.0,0.0,0.0,0.0,0.0,0.0,0.0,0.0,0.0,0.0,0.0,0.0,0.0,0.0,0.0,0.0,0.0,0.0,0.0,0.0,0.0,0.0,0.0,0.0,0.0,0.0,0.0,0.0,0.0,0.0,0.0,0.0,0.0,0.0,0.0,0.0,0.0,0.0,0.0,0.0,0.0,0.0,0.0,0.0,0.0,0.0,0.0,0.0,0.0,0.0,0.0,0.0,0.0,0.0,0.0,0.0,0.0,0.0,0.0,0.0,0.0,0.0,0.0,0.0,0.0,0.0,0.0,0.0,0.0,0.0,0.0,0.0,0.0,0.0,0.0,0.0,0.0,0.0,0.0,0.0,0.0,0.0,0.0,0.0,0.0,0.0,0.0,0.0,0.0,0.0,0.0,0.0,0.0,0.0,0.0,0.0,0.0,0.0,0.0,0.0,0.0,0.0,0.0,0.0,0.0,0.0,0.0,0.0,0.0,0.0,0.0,0.0,0.0,0.0,0.0,0.0,0.0,0.0,0.0,0.0,0.0,0.0,0.0,0.0,0.0,0.0,0.0,0.0,0.0,0.0,0.0,0.0,0.0,0.0,0.0,0.0,0.0,0.0,0.0,0.0,0.0,0.0,0.0,0.0,0.0,0.0,0.0,0.0,0.0,0.0,0.0,0.0,0.0,0.0,0.0,0.0,0.0,0.0,0.0,0.0,0.0,0.0,0.0,0.0,0.0,0.0,0.0,0.0,0.0,0.0,0.0,0.0,0.0,0.0,0.0,0.0,0.0,0.0,0.0,0.0,0.0,0.0,0.0,0.0,0.0,0.0,0.0,0.0,0.0,0.0,0.0,0.0,0.0,0.0,0.0,0.0,0.0,0.0,0.0,0.0,0.0,0.0,0.0,0.0,0.0,0.0,0.0,0.0,0.0,0.0,0.0,0.0,0.0,0.0,0.0,0.0,0.0,0.0,0.0,0.0,0.0,0.0,0.0,0.0,0.0,0.0,0.0,0.0,0.0,0.0,0.0,0.0,0.0,0.0,0.0,0.0,0.0,0.0,0.0,0.0,0.0,0.0,0.0,0.0,0.0,0.0,0.0,0.0,0.0,0.0,0.0,0.0,0.0,0.0,0.0,0.0,0.0,0.0,0.0,0.0,0.0,0.0,0.0,0.0,0.0,0.0,0.0,0.0,0.0,0.0,0.0,0.0,0.0,0.0,0.0,0.0,0.0,0.0,0.0,0.0,0.0,0.0,0.0,0.0,0.0,0.0,0.0,0.0,0.0,0.0,0.0,0.0,0.0,0.0,0.0,0.0,0.0,0.0,0.0,0.0,0.0,0.0,0.0,0.0,0.0,0.0,0.0,0.0,0.0,0.0,0.0,0.0,0.0,0.0,0.0,0.0,0.0,0.0,0.0,0.0,0.0,0.0,0.0,0.0,0.0,0.0,0.0,0.0,0.0,0.0,0.0,0.0,0.0,0.0,0.0,0.0,0.0,0.0,0.0,0.0,0.0,0.0,0.0,0.0,0.0,0.0,0.0,0.0,0.0,0.0,0.0,0.0,0.0,0.0,0.0,0.0,0.0,0.0,0.0,0.0,0.0,0.0,0.0,0.0,0.0,0.0,0.0,0.0,0.0,0.0,0.0,0.0,0.0,0.0,0.0,0.0,0.0,0.0,0.0,0.0,0.0,0.0,0.0,0.0,0.0,0.0,0.0,0.0,0.0,0.0,0.0,0.0,0.0,0.0,0.0,0.0,0.0,0.0,0.0,0.0,0.0,0.0,0.0,0.0,0.0,0.0,0.0,0.0,0.0,0.0,0.0,0.0,0.0,0.0,0.0,0.0,0.0,0.0,0.0,0.0,0.0,0.0,0.0,0.0,0.0,0.0,0.0,0.0,0.0,0.0,0.0,0.0,0.0,0.0,0.0,0.0,0.0,0.0,0.0,0.0,0.0,0.0,0.0,0.0,0.0,0.0,0.0,0.0,0.0,0.0,0.0,0.0,0.0,0.0,0.0,0.0,0.0,0.0,0.0,0.0,0.0,0.0,0.0,0.0,0.0,0.0,0.0,0.0,0.0,0.0,0.0,0.0,0.0,0.0,0.0,0.0,0.0,0.0,0.0,0.0,0.0,0.0,0.0,0.0,0.0,0.0,0.0,0.0,0.0,0.0,0.0,0.0,0.0,0.0,0.0,0.0,0.0,0.0,0.0,0.0,0.0,0.0,0.0,0.0,0.0,0.0,0.0,0.0,0.0,0.0,0.0,0.0,0.0,0.0,0.0,0.0,0.0,0.0,0.0,0.0,0.0,0.0,0.0,0.0,0.0,0.0,0.0,0.0,0.0,0.0,0.0,0.0,0.0,0.0,0.0,0.0,0.0,0.0,0.0,0.0,0.0,0.0,0.0,0.0,0.0,0.0,0.0,0.0,0.0,0.0,0.0,0.0,0.0,0.0,0.0,0.0,0.0,0.0,0.0,0.0,0.0,0.0,0.0,0.0,0.0,0.0,0.0,0.0,0.0,0.0,0.0,0.0,0.0,0.0,0.0,0.0,0.0,0.0,0.0,0.0,0.0,0.0,0.0,0.0,0.0,0.0,0.0,0.0,0.0,0.0,0.0,0.0,0.0,0.0,0.0,0.0,0.0,0.0,0.0,0.0,0.0,0.0,0.0,0.0,0.0,0.0,0.0,-1.1147,0.0,0.0,0.0,0.0,0.0,0.0,0.0,0.0,0.0,0.0,0.0,0.0,0.0,0.0,0.0,0.0,0.0,0.0,0.0,0.0,0.0,0.0,0.0,0.0,0.0,0.0,0.0,0.0,0.0,0.0,0.0,0.0,0.0,0.0,0.0,0.0,0.0,0.0,0.0,0.0,0.0,0.0,0.0,0.0,0.0,0.0,0.0,0.0,0.0,0.0,0.0,0.0,0.0,0.0,0.0,0.0,0.0,0.0,0.0,0.0,0.0,0.0,0.0,0.0,0.0,0.0,0.0,0.0,0.0,0.0,0.0,0.0,0.0,0.0,0.0,0.0,0.0,0.0,0.0,0.0,0.0,0.0,0.0,0.0,0.0,0.0,0.0,0.0,0.0,0.0,0.0,0.0,0.0,0.0,0.0,0.0,0.0,0.0,0.0,0.0,0.0,0.0,0.0,0.0,0.0,0.0,0.0,0.0,0.0,0.0,-1.2709,-1.2709,-1.242,-1.188,-1.1135,0.0,0.0,0.0,0.0,0.0,0.0,0.0,0.0,0.0,0.0,0.0,0.0,0.0,0.0,0.0,0.0,0.0,0.0,0.0,0.0,0.0,0.0,0.0,0.0,0.0,0.0,0.0,0.0,0.0,0.0,0.0,0.0,0.0,0.0,0.0,0.0,0.0,0.0,0.0,0.0,0.0,0.0,0.0,0.0,0.0,0.0,0.0,0.0,0.0,0.0,0.0,0.0,0.0,0.0,0.0,0.0,0.0,0.0,0.0,0.0,0.0,0.0,0.0,0.0,0.0,0.0,0.0,0.0,0.0,0.0,0.0,0.0,0.0,0.0,0.0,0.0,0.0,0.0,0.0,0.0,0.0,0.0,0.0,0.0,0.0,0.0,0.0,0.0,0.0,0.0,0.0,0.0,0.0,0.0,0.0,0.0,0.0,0.0,0.0,0.0,0.0,0.0,0.0,0.0,0.0,0.0,0.0,0.0,0.0,0.0,0.0,0.0,-1.2492,-1.194,-1.1303,0.0,0.0,0.0,0.0,0.0,0.0,0.0,0.0,0.0,0.0,0.0,0.0,0.0,0.0,0.0,0.0,0.0,0.0,0.0,0.0,0.0,0.0,0.0,0.0,0.0,0.0,0.0,0.0,0.0,0.0,0.0,0.0,0.0,0.0,0.0,0.0,0.0,0.0,0.0,0.0,0.0,0.0,0.0,0.0,0.0,0.0,0.0,0.0,0.0,0.0,0.0,0.0,0.0,0.0,0.0,0.0,0.0,0.0,0.0,0.0,0.0,0.0,0.0,0.0,0.0,0.0,0.0,0.0,0.0,0.0,0.0,0.0,0.0,0.0,0.0,0.0,0.0,0.0,0.0,0.0,0.0,0.0,0.0,0.0,0.0,0.0,0.0,0.0,0.0,0.0,0.0,0.0,0.0,0.0,0.0,0.0,0.0,0.0,0.0,0.0,0.0,0.0,0.0,0.0,0.0,0.0,0.0,0.0,0.0,0.0,-1.2926,-1.3409,-1.336,0.0,-1.1892,0.0,0.0,0.0,0.0,0.0,0.0,0.0,0.0,0.0,0.0,0.0,0.0,0.0,0.0,0.0,0.0,0.0,0.0,0.0,0.0,0.0,0.0,0.0,0.0,0.0,0.0,0.0,0.0,0.0,0.0,0.0,0.0,0.0,0.0,0.0,0.0,0.0,0.0,0.0,0.0,0.0,0.0,0.0,0.0,0.0,0.0,0.0,0.0,0.0,0.0,0.0,0.0,0.0,0.0,0.0,0.0,0.0,0.0,0.0,0.0,0.0,0.0,0.0,0.0,0.0,0.0,0.0,0.0,0.0,0.0,0.0,0.0,0.0,0.0,0.0,0.0,0.0,0.0,0.0,0.0,0.0,0.0,0.0,0.0,0.0,0.0,0.0,0.0,0.0,0.0,0.0,0.0,0.0,0.0,0.0,0.0,0.0,0.0,0.0,0.0,0.0,0.0,0.0,0.0,0.0,0.0,0.0,0.0,0.0,0.0,0.0,-1.3481,-1.3056,-1.2427,0.0,0.0,0.0,0.0,0.0,0.0,0.0,0.0,0.0,0.0,0.0,0.0,0.0,0.0,0.0,0.0,0.0,0.0,0.0,0.0,0.0,0.0,0.0,0.0,0.0,0.0,0.0,0.0,0.0,0.0,0.0,0.0,0.0,0.0,0.0,0.0,0.0,0.0,0.0,0.0,0.0,0.0,0.0,0.0,0.0,0.0,0.0,0.0,0.0,0.0,0.0,0.0,0.0,0.0,0.0,0.0,0.0,0.0,0.0,0.0,0.0,0.0,0.0,0.0,0.0,0.0,0.0,0.0,0.0,0.0,0.0,0.0,0.0,0.0,0.0,0.0,0.0,0.0,0.0,0.0,0.0,0.0,0.0,0.0,0.0,0.0,0.0,0.0,0.0,0.0,0.0,0.0,0.0,0.0,0.0,0.0,0.0,0.0,0.0,0.0,0.0,0.0,0.0,0.0,0.0,0.0,0.0,0.0,0.0,0.0,-1.2589,0.0,-1.347,-1.305,-1.2321,-1.129,0.0,0.0,0.0,0.0,0.0,0.0,0.0,0.0,0.0,0.0,0.0,0.0,0.0,0.0,0.0,0.0,0.0,0.0,0.0,0.0,0.0,0.0,0.0,0.0,0.0,0.0,0.0,0.0,0.0,0.0,0.0,0.0,0.0,0.0,0.0,0.0,0.0,0.0,0.0,0.0,0.0,0.0,0.0,0.0,0.0,0.0,0.0,0.0,0.0,0.0,0.0,0.0,0.0,0.0,0.0,0.0,0.0,0.0,0.0,0.0,0.0,0.0,0.0,0.0,0.0,0.0,0.0,0.0,0.0,0.0,0.0,0.0,0.0,0.0,0.0,0.0,0.0,0.0,0.0,0.0,0.0,0.0,0.0,0.0,0.0,0.0,0.0,0.0,0.0,0.0,0.0,0.0,0.0,0.0,0.0,0.0,0.0,0.0,0.0,0.0,0.0,0.0,0.0,0.0,0.0,0.0,0.0,0.0,0.0,-1.2938,-1.2963,-1.3531,-1.3815,-1.2977,0.0,0.0,0.0,0.0,0.0,0.0,0.0,0.0,0.0,0.0,0.0,0.0,0.0,0.0,0.0,0.0,0.0,0.0,0.0,0.0,0.0,0.0,0.0,0.0,0.0,0.0,0.0,0.0,0.0,0.0,0.0,0.0,0.0,0.0,0.0,0.0,0.0,0.0,0.0,0.0,0.0,0.0,0.0,0.0,0.0,0.0,0.0,0.0,0.0,0.0,0.0,0.0,0.0,0.0,0.0,0.0,0.0,0.0,0.0,0.0,0.0,0.0,0.0,0.0,0.0,0.0,0.0,0.0,0.0,0.0,0.0,0.0,0.0,0.0,0.0,0.0,0.0,0.0,0.0,0.0,0.0,0.0,0.0,0.0,0.0,0.0,0.0,0.0,0.0,0.0,0.0,0.0,0.0,0.0,0.0,0.0,0.0,0.0,0.0,0.0,0.0,0.0,0.0,0.0,0.0,0.0,0.0,0.0,0.0,-1.1945,-1.2416,-1.3191,-1.4172,-1.3421,-1.2592,0.0,0.0,0.0,0.0,0.0,0.0,0.0,0.0,0.0,0.0,0.0,0.0,0.0,0.0,0.0,0.0,0.0,0.0,0.0,0.0,0.0,0.0,0.0,0.0,0.0,0.0,0.0,0.0,0.0,0.0,0.0,0.0,0.0,0.0,0.0,0.0,0.0,0.0,0.0,0.0,0.0,0.0,0.0,0.0,0.0,0.0,0.0,0.0,0.0,0.0,0.0,0.0,0.0,0.0,0.0,0.0,0.0,0.0,0.0,0.0,0.0,0.0,0.0,0.0,0.0,0.0,0.0,0.0,0.0,0.0,0.0,0.0,0.0,0.0,0.0,0.0,0.0,0.0,0.0,0.0,0.0,0.0,0.0,0.0,0.0,0.0,0.0,0.0,0.0,0.0,0.0,0.0,0.0,0.0,0.0,0.0,0.0,0.0,0.0,0.0,0.0,0.0,0.0,0.0,0.0,0.0,0.0,0.0,0.0,-1.1952,0.0,-1.3908,0.0,-1.3474,-1.2561,0.0,0.0,0.0,0.0,0.0,0.0,0.0,0.0,0.0,0.0,0.0,0.0,0.0,0.0,0.0,0.0,0.0,0.0,0.0,0.0,0.0,0.0,0.0,0.0,0.0,0.0,0.0,0.0,0.0,0.0,0.0,0.0,0.0,0.0,0.0,0.0,0.0,0.0,0.0,0.0,0.0,0.0,0.0,0.0,0.0,0.0,0.0,0.0,0.0,0.0,0.0,0.0,0.0,0.0,0.0,0.0,0.0,0.0,0.0,0.0,0.0,0.0,0.0,0.0,0.0,0.0,0.0,0.0,0.0,0.0,0.0,0.0,0.0,0.0,0.0,0.0,0.0,0.0,0.0,0.0,0.0,0.0,0.0,0.0,0.0,0.0,0.0,0.0,0.0,0.0,0.0,0.0,0.0,0.0,0.0,0.0,0.0,0.0,0.0,0.0,0.0,0.0,0.0,0.0,0.0,0.0,0.0,0.0,-1.1463,-1.3585,-1.4862,-1.4928,-1.3793,-1.4103,-1.2934,0.0,0.0,0.0,0.0,0.0,0.0,0.0,0.0,0.0,0.0,0.0,0.0,0.0,0.0,0.0,0.0,0.0,0.0,0.0,0.0,0.0,0.0,0.0,0.0,0.0,0.0,0.0,0.0,0.0,0.0,0.0,0.0,0.0,0.0,0.0,0.0,0.0,0.0,0.0,0.0,0.0,0.0,0.0,0.0,0.0,0.0,0.0,0.0,0.0,0.0,0.0,0.0,0.0,0.0,0.0,0.0,0.0,0.0,0.0,0.0,0.0,0.0,0.0,0.0,0.0,0.0,0.0,0.0,0.0,0.0,0.0,0.0,0.0,0.0,0.0,0.0,0.0,0.0,0.0,0.0,0.0,0.0,0.0,0.0,0.0,0.0,0.0,0.0,0.0,0.0,0.0,0.0,0.0,0.0,0.0,0.0,0.0,0.0,0.0,0.0,0.0,0.0,0.0,0.0,0.0,0.0,0.0,0.0,0.0,-1.3847,-1.4617,-1.5114,-1.5216,-1.408,-1.3023,0.0,0.0,0.0,0.0,0.0,0.0,0.0,0.0,0.0,0.0,0.0,0.0,0.0,0.0,0.0,0.0,0.0,0.0,0.0,0.0,0.0,0.0,0.0,0.0,0.0,0.0,0.0,0.0,0.0,0.0,0.0,0.0,0.0,0.0,0.0,0.0,0.0,0.0,0.0,0.0,0.0,0.0,0.0,0.0,0.0,0.0,0.0,0.0,0.0,0.0,0.0,0.0,0.0,0.0,0.0,0.0,0.0,0.0,0.0,0.0,0.0,0.0,0.0,0.0,0.0,0.0,0.0,0.0,0.0,0.0,0.0,0.0,0.0,0.0,0.0,0.0,0.0,0.0,0.0,0.0,0.0,0.0,0.0,0.0,0.0,0.0,0.0,0.0,0.0,0.0,0.0,0.0,0.0,0.0,0.0,0.0,0.0,0.0,0.0,0.0,0.0,0.0,0.0,0.0,0.0,0.0,0.0,0.0,0.0,-1.5726,-1.6108,-1.6403,-1.6587,-1.4987,-1.3811,-1.3128,0.0,0.0,0.0,0.0,0.0,0.0,0.0,0.0,0.0,0.0,0.0,0.0,0.0,0.0,0.0,0.0,0.0,0.0,0.0,0.0,0.0,0.0,0.0,0.0,0.0,0.0,0.0,0.0,0.0,0.0,0.0,0.0,0.0,0.0,0.0,0.0,0.0,0.0,0.0,0.0,0.0,0.0,0.0,0.0,0.0,0.0,0.0,0.0,0.0,0.0,0.0,0.0,0.0,0.0,0.0,0.0,0.0,0.0,0.0,0.0,0.0,0.0,0.0,0.0,0.0,0.0,0.0,0.0,0.0,0.0,0.0,0.0,0.0,0.0,0.0,0.0,0.0,0.0,0.0,0.0,0.0,0.0,0.0,0.0,0.0,0.0,0.0,0.0,0.0,0.0,0.0,0.0,0.0,0.0,0.0,0.0,0.0,0.0,0.0,0.0,0.0,0.0,0.0,0.0,0.0,0.0,0.0,0.0,-1.8855,-1.8922,-1.8508,-1.7754,-1.6602,-1.5096,0.0,0.0,0.0,0.0,0.0,0.0,0.0,0.0,0.0,0.0,0.0,0.0,0.0,0.0,0.0,0.0,0.0,0.0,0.0,0.0,0.0,0.0,0.0,0.0,0.0,0.0,0.0,0.0,0.0,0.0,0.0,0.0,0.0,0.0,0.0,0.0,0.0,0.0,0.0,0.0,0.0,0.0,0.0,0.0,0.0,0.0,0.0,0.0,0.0,0.0,0.0,0.0,0.0,0.0,0.0,0.0,0.0,0.0,0.0,0.0,0.0,0.0,0.0,0.0,0.0,0.0,0.0,0.0,0.0,0.0,0.0,0.0,0.0,0.0,0.0,0.0,0.0,0.0,0.0,0.0,0.0,0.0,0.0,0.0,0.0,0.0,0.0,0.0,0.0,0.0,0.0,0.0,0.0,0.0,0.0,0.0,0.0,0.0,0.0,0.0,0.0,0.0,0.0,0.0,0.0,0.0,0.0,0.0,0.0,-2.0069,-2.0251,-1.9964,-1.9216,-1.7176,-1.5558,0.0,0.0,0.0,0.0,0.0,0.0,0.0,0.0,0.0,0.0,0.0,0.0,0.0,0.0,0.0,0.0,0.0,0.0,0.0,0.0,0.0,0.0,0.0,0.0,0.0,0.0,0.0,0.0,0.0,0.0,0.0,0.0,0.0,0.0,0.0,0.0,0.0,0.0,0.0,0.0,0.0,0.0,0.0,0.0,0.0,0.0,0.0,0.0,0.0,0.0,0.0,0.0,0.0,0.0,0.0,0.0,0.0,0.0,0.0,0.0,0.0,0.0,0.0,0.0,0.0,0.0,0.0,0.0,0.0,0.0,0.0,0.0,0.0,0.0,0.0,0.0,0.0,0.0,0.0,0.0,0.0,0.0,0.0,0.0,0.0,0.0,0.0,0.0,0.0,0.0,0.0,0.0,0.0,0.0,0.0,0.0,0.0,0.0,0.0,0.0,0.0,0.0,0.0,0.0,0.0,0.0,0.0,0.0,-1.8654,-2.1169,-2.147,-2.1485,-2.1125,-1.8959,-1.7165,0.0,0.0,0.0,0.0,0.0,0.0,0.0,0.0,0.0,0.0,0.0,0.0,0.0,0.0,0.0,0.0,0.0,0.0,0.0,0.0,0.0,0.0,0.0,0.0,0.0,0.0,0.0,0.0,0.0,0.0,0.0,0.0,0.0,0.0,0.0,0.0,0.0,0.0,0.0,0.0,0.0,0.0,0.0,0.0,0.0,0.0,0.0,0.0,0.0,0.0,0.0,0.0,0.0,0.0,0.0,0.0,0.0,0.0,0.0,0.0,0.0,0.0,0.0,0.0,0.0,0.0,0.0,0.0,0.0,0.0,0.0,0.0,0.0,0.0,0.0,0.0,0.0,0.0,0.0,0.0,0.0,0.0,0.0,0.0,0.0,0.0,0.0,0.0,0.0,0.0,0.0,0.0,0.0,0.0,0.0,0.0,0.0,0.0,0.0,0.0,0.0,0.0,0.0,0.0,0.0,0.0,0.0,0.0,-1.9493,-2.2135,-2.2624,-2.2956,-2.3033,-2.1177,-1.9165,0.0,0.0,0.0,0.0,0.0,0.0,0.0,0.0,0.0,0.0,0.0,0.0,0.0,0.0,0.0,0.0,0.0,0.0,0.0,0.0,0.0,0.0,0.0,0.0,0.0,0.0,0.0,0.0,0.0,0.0,0.0,0.0,0.0,0.0,0.0,0.0,0.0,0.0,0.0,0.0,0.0,0.0,0.0,0.0,0.0,0.0,0.0,0.0,0.0,0.0,0.0,0.0,0.0,0.0,0.0,0.0,0.0,0.0,0.0,0.0,0.0,0.0,0.0,0.0,0.0,0.0,0.0,0.0,0.0,0.0,0.0,0.0,0.0,0.0,0.0,0.0,0.0,0.0,0.0,0.0,0.0,0.0,0.0,0.0,0.0,0.0,0.0,0.0,0.0,0.0,0.0,0.0,0.0,0.0,0.0,0.0,0.0,0.0,0.0,0.0,0.0,0.0,0.0,0.0,0.0,0.0,0.0,0.0,-2.0777,-2.3412,-2.3475,-2.3807,-2.4442,-2.1627,-1.9203,0.0,0.0,0.0,0.0,0.0,0.0,0.0,0.0,0.0,0.0,0.0,0.0,0.0,0.0,0.0,0.0,0.0,0.0,0.0,0.0,0.0,0.0,0.0,0.0,0.0,0.0,0.0,0.0,0.0,0.0,0.0,0.0,0.0,0.0,0.0,0.0,0.0,0.0,0.0,0.0,0.0,0.0,0.0,0.0,0.0,0.0,0.0,0.0,-1.1166,0.0,0.0,0.0,0.0,0.0,0.0,0.0,0.0,0.0,0.0,0.0,0.0,0.0,0.0,0.0,0.0,0.0,0.0,0.0,0.0,0.0,0.0,0.0,0.0,0.0,0.0,0.0,0.0,0.0,0.0,0.0,0.0,0.0,0.0,0.0,0.0,0.0,0.0,0.0,0.0,0.0,0.0,0.0,0.0,0.0,0.0,0.0,0.0,0.0,0.0,0.0,0.0,0.0,0.0,0.0,0.0,0.0,0.0,0.0,-2.157,-2.3804,-2.4148,-2.4467,-2.4747,-2.2338,-2.0074,0.0,0.0,0.0,0.0,0.0,0.0,0.0,0.0,0.0,0.0,0.0,0.0,0.0,0.0,0.0,0.0,0.0,0.0,0.0,0.0,0.0,0.0,0.0,0.0,0.0,0.0,0.0,0.0,0.0,0.0,0.0,0.0,0.0,0.0,0.0,0.0,0.0,0.0,0.0,0.0,0.0,0.0,0.0,0.0,0.0,0.0,0.0,0.0,0.0,0.0,0.0,0.0,0.0,0.0,0.0,0.0,0.0,0.0,0.0,0.0,0.0,0.0,0.0,0.0,0.0,0.0,0.0,0.0,0.0,0.0,0.0,0.0,0.0,0.0,0.0,0.0,0.0,0.0,0.0,0.0,0.0,0.0,0.0,0.0,0.0,0.0,0.0,0.0,0.0,0.0,0.0,0.0,0.0,0.0,0.0,0.0,0.0,0.0,0.0,0.0,0.0,0.0,0.0,0.0,0.0,0.0,0.0,-1.958,-2.1975,-2.3949,-2.4588,-2.4863,-2.4757,-2.2976,-2.109,-1.9159,0.0,0.0,0.0,0.0,0.0,0.0,0.0,0.0,0.0,0.0,0.0,0.0,0.0,0.0,0.0,0.0,0.0,0.0,0.0,0.0,0.0,0.0,0.0,0.0,0.0,0.0,0.0,0.0,0.0,0.0,0.0,0.0,0.0,0.0,0.0,0.0,0.0,0.0,-1.0853,-1.2992,0.0,0.0,0.0,0.0,0.0,0.0,0.0,0.0,-1.2711,0.0,0.0,0.0,0.0,0.0,0.0,0.0,0.0,0.0,0.0,0.0,0.0,0.0,0.0,0.0,0.0,0.0,0.0,0.0,0.0,0.0,0.0,0.0,0.0,0.0,0.0,0.0,0.0,0.0,0.0,0.0,0.0,0.0,0.0,0.0,0.0,0.0,0.0,0.0,0.0,0.0,0.0,0.0,0.0,0.0,0.0,0.0,0.0,0.0,0.0,0.0,0.0,0.0,0.0,0.0,0.0,-1.9421,-2.0483,-2.2193,-2.4554,-2.4742,-2.48,-2.4742,-2.2991,-2.109,-1.9145,0.0,0.0,0.0,0.0,0.0,0.0,0.0,0.0,0.0,0.0,0.0,0.0,0.0,0.0,0.0,0.0,0.0,0.0,0.0,0.0,0.0,0.0,0.0,0.0,0.0,0.0,0.0,0.0,0.0,0.0,0.0,0.0,0.0,0.0,0.0,0.0,0.0,0.0,0.0,-1.4988,-1.6072,0.0,0.0,0.0,0.0,0.0,0.0,0.0,0.0,-1.354,0.0,0.0,0.0,0.0,0.0,0.0,0.0,0.0,0.0,0.0,0.0,0.0,0.0,0.0,0.0,0.0,0.0,0.0,0.0,0.0,0.0,0.0,0.0,0.0,0.0,0.0,0.0,0.0,0.0,0.0,0.0,0.0,0.0,0.0,0.0,0.0,0.0,0.0,0.0,0.0,0.0,0.0,0.0,0.0,0.0,0.0,0.0,0.0,0.0,0.0,0.0,0.0,0.0,0.0,0.0,-1.9064,-2.1005,-2.2933,-2.4776,-2.48,-2.48,-2.4805,-2.2367,-2.0407,0.0,0.0,0.0,0.0,0.0,0.0,0.0,0.0,0.0,0.0,0.0,0.0,0.0,0.0,0.0,0.0,0.0,0.0,0.0,0.0,0.0,0.0,0.0,0.0,0.0,0.0,0.0,0.0,0.0,0.0,0.0,0.0,0.0,0.0,0.0,0.0,0.0,0.0,0.0,0.0,-1.612,-1.7105,-1.7156,0.0,0.0,0.0,0.0,0.0,0.0,-1.4738,-1.4156,0.0,0.0,0.0,0.0,0.0,0.0,0.0,0.0,0.0,0.0,0.0,0.0,0.0,0.0,0.0,0.0,0.0,0.0,0.0,0.0,0.0,0.0,0.0,0.0,0.0,0.0,0.0,0.0,0.0,0.0,0.0,0.0,0.0,0.0,0.0,0.0,0.0,0.0,0.0,0.0,0.0,0.0,0.0,0.0,0.0,0.0,0.0,0.0,0.0,0.0,0.0,0.0,0.0,0.0,0.0,-1.8397,-2.1119,-2.3238,-2.4617,-2.466,-2.466,-2.4631,-2.183,-1.9914,0.0,0.0,0.0,0.0,0.0,0.0,0.0,0.0,0.0,0.0,0.0,0.0,0.0,0.0,0.0,0.0,0.0,0.0,0.0,0.0,0.0,0.0,0.0,0.0,0.0,0.0,0.0,0.0,0.0,0.0,0.0,0.0,0.0,0.0,0.0,0.0,0.0,0.0,0.0,0.0,0.0,-1.8195,-1.7568,-1.7241,0.0,0.0,0.0,0.0,-1.6908,-1.6222,0.0,0.0,0.0,0.0,0.0,0.0,0.0,0.0,0.0,0.0,0.0,0.0,0.0,0.0,0.0,0.0,0.0,0.0,0.0,0.0,0.0,0.0,0.0,0.0,0.0,0.0,0.0,0.0,0.0,0.0,0.0,0.0,0.0,0.0,0.0,0.0,0.0,0.0,0.0,0.0,0.0,0.0,0.0,0.0,0.0,0.0,0.0,0.0,0.0,0.0,0.0,0.0,0.0,0.0,0.0,0.0,-1.8912,-2.0465,-2.212,-2.3905,-2.4007,-2.4007,-2.3978,-2.1975,-2.0335,0.0,0.0,0.0,0.0,0.0,0.0,0.0,0.0,0.0,0.0,0.0,0.0,0.0,0.0,0.0,0.0,0.0,0.0,0.0,0.0,0.0,0.0,0.0,0.0,0.0,0.0,0.0,0.0,0.0,0.0,0.0,0.0,0.0,0.0,0.0,0.0,0.0,0.0,0.0,0.0,0.0,-1.9903,-1.7206,-1.7898,-1.8712,0.0,0.0,-1.8598,-1.8797,-1.9342,0.0,0.0,0.0,0.0,0.0,0.0,0.0,0.0,0.0,0.0,0.0,0.0,0.0,0.0,0.0,0.0,0.0,0.0,0.0,0.0,0.0,0.0,0.0,0.0,0.0,0.0,0.0,0.0,0.0,0.0,0.0,0.0,0.0,0.0,0.0,0.0,0.0,0.0,0.0,0.0,0.0,0.0,0.0,0.0,0.0,0.0,0.0,0.0,0.0,0.0,0.0,0.0,0.0,0.0,0.0,-1.6271,-1.9043,-2.0727,-2.2323,-2.3818,-2.3876,-2.3876,-2.3876,-2.1685,-2.0045,0.0,0.0,0.0,0.0,0.0,0.0,0.0,0.0,0.0,0.0,0.0,0.0,0.0,0.0,0.0,0.0,0.0,0.0,0.0,0.0,0.0,0.0,0.0,0.0,0.0,0.0,0.0,0.0,0.0,0.0,0.0,0.0,0.0,0.0,0.0,0.0,0.0,0.0,0.0,0.0,0.0,0.0,-2.0011,-2.0264,0.0,0.0,0.0,-2.0481,-2.0463,0.0,0.0,0.0,0.0,0.0,0.0,0.0,0.0,0.0,0.0,0.0,0.0,0.0,0.0,0.0,0.0,0.0,0.0,0.0,0.0,0.0,0.0,0.0,0.0,0.0,0.0,0.0,0.0,0.0,0.0,0.0,0.0,0.0,0.0,0.0,0.0,0.0,0.0,0.0,0.0,0.0,0.0,0.0,0.0,0.0,0.0,0.0,0.0,0.0,0.0,0.0,0.0,0.0,0.0,0.0,0.0,0.0,-1.9072,-2.0843,-2.2367,-2.3601,-2.3644,-2.3659,-2.3615,-2.1481,0.0,0.0,0.0,0.0,0.0,0.0,0.0,0.0,0.0,0.0,0.0,0.0,0.0,0.0,0.0,0.0,0.0,0.0,0.0,0.0,0.0,0.0,0.0,0.0,0.0,0.0,0.0,0.0,0.0,0.0,0.0,0.0,0.0,0.0,0.0,0.0,0.0,0.0,0.0,0.0,0.0,0.0,-2.021,-2.1817,-2.1891,-2.1803,0.0,0.0,-2.1843,-2.1843,-2.1607,-2.0666,0.0,0.0,0.0,0.0,0.0,0.0,0.0,0.0,0.0,0.0,0.0,0.0,0.0,0.0,0.0,0.0,0.0,0.0,0.0,0.0,0.0,0.0,0.0,0.0,0.0,0.0,0.0,0.0,0.0,0.0,0.0,0.0,0.0,0.0,0.0,0.0,0.0,0.0,0.0,0.0,0.0,0.0,0.0,0.0,0.0,0.0,0.0,0.0,0.0,0.0,0.0,0.0,0.0,0.0,0.0,-1.9029,-2.0407,-2.1714,-2.2917,-2.2946,-2.296,-2.2931,-2.1656,-2.0364,0.0,0.0,0.0,0.0,0.0,0.0,0.0,0.0,0.0,0.0,0.0,0.0,0.0,0.0,0.0,0.0,0.0,0.0,0.0,0.0,0.0,0.0,0.0,0.0,0.0,0.0,0.0,0.0,0.0,0.0,0.0,0.0,0.0,0.0,0.0,0.0,0.0,0.0,0.0,0.0,0.0,-2.1115,-2.0536,-2.1713,-2.2616,0.0,0.0,-2.2832,-2.2795,-2.3683,-2.3019,-1.8955,0.0,0.0,0.0,0.0,0.0,0.0,0.0,0.0,0.0,0.0,0.0,0.0,0.0,0.0,0.0,0.0,0.0,0.0,0.0,0.0,0.0,0.0,0.0,0.0,0.0,0.0,0.0,0.0,0.0,0.0,0.0,0.0,0.0,0.0,0.0,0.0,0.0,0.0,0.0,0.0,0.0,0.0,0.0,0.0,0.0,0.0,0.0,0.0,0.0,0.0,0.0,0.0,0.0,-1.6561,-1.9058,-2.0756,-2.2236,-2.347,-2.3528,-2.3528,-2.3528,-2.1888,-2.0702,0.0,0.0,0.0,0.0,0.0,0.0,0.0,0.0,0.0,0.0,0.0,0.0,0.0,0.0,0.0,0.0,0.0,0.0,0.0,0.0,0.0,0.0,0.0,0.0,0.0,0.0,0.0,0.0,-1.0468,-1.0441,-0.9721,0.0,0.0,0.0,0.0,0.0,0.0,0.0,0.0,0.0,0.0,-2.1169,-2.2292,-2.298,0.0,0.0,-2.3842,-2.4051,-2.3694,-2.3621,-2.2759,-2.0289,-1.915,0.0,0.0,0.0,0.0,0.0,0.0,0.0,0.0,0.0,0.0,0.0,0.0,0.0,0.0,0.0,0.0,0.0,0.0,0.0,0.0,0.0,0.0,0.0,0.0,0.0,0.0,0.0,0.0,0.0,0.0,0.0,0.0,0.0,0.0,0.0,0.0,0.0,0.0,0.0,0.0,0.0,0.0,0.0,0.0,0.0,0.0,0.0,0.0,0.0,0.0,0.0,0.0,-1.699,-1.9853,-2.163,-2.3187,-2.4637,-2.4652,-2.4471,-2.4112,-2.2758,-2.1579,0.0,0.0,0.0,0.0,0.0,0.0,0.0,0.0,0.0,0.0,0.0,0.0,0.0,0.0,0.0,0.0,0.0,0.0,0.0,0.0,0.0,0.0,0.0,0.0,0.0,0.0,0.0,0.0,-1.1209,-1.1009,-0.999,0.0,0.0,0.0,0.0,0.0,0.0,0.0,0.0,0.0,0.0,-2.1151,-2.3451,-2.3795,-2.3795,-2.3795,-2.433,-2.4577,-2.4151,-2.3713,-2.2856,-2.1166,0.0,0.0,0.0,0.0,0.0,0.0,0.0,0.0,0.0,0.0,0.0,0.0,0.0,0.0,0.0,0.0,0.0,0.0,0.0,0.0,0.0,0.0,0.0,0.0,0.0,0.0,0.0,0.0,0.0,0.0,-1.4941,0.0,0.0,0.0,0.0,0.0,0.0,0.0,0.0,0.0,0.0,0.0,0.0,0.0,0.0,0.0,0.0,0.0,0.0,0.0,0.0,0.0,0.0,-1.7979,-2.1657,-2.2933,-2.4487,-2.6226,-2.6317,-2.5786,-2.4717,-2.4411,-2.3151,-2.0639,0.0,0.0,0.0,0.0,0.0,0.0,0.0,0.0,0.0,0.0,0.0,0.0,0.0,0.0,0.0,0.0,0.0,0.0,0.0,0.0,0.0,0.0,0.0,0.0,0.0,0.0,-1.0963,-1.041,-0.9884,0.0,0.0,0.0,0.0,0.0,0.0,0.0,0.0,0.0,0.0,-1.9793,-2.1169,-2.3469,-2.3813,-2.385,-2.385,-2.4014,-2.4134,-2.4134,-2.4407,-2.381,0.0,0.0,0.0,0.0,0.0,0.0,0.0,0.0,0.0,0.0,0.0,0.0,0.0,0.0,0.0,0.0,0.0,0.0,0.0,0.0,0.0,0.0,0.0,0.0,0.0,0.0,0.0,-1.8791,-1.8236,0.0,0.0,0.0,0.0,0.0,0.0,0.0,0.0,0.0,0.0,0.0,-2.1975,-2.2193,0.0,0.0,0.0,0.0,0.0,0.0,0.0,0.0,0.0,0.0,0.0,0.0,-1.8323,-2.1201,-2.2937,-2.4543,-2.5927,-2.5986,-2.5771,-2.5241,-2.4339,-2.2571,-1.9875,0.0,0.0,0.0,0.0,0.0,0.0,0.0,0.0,0.0,0.0,0.0,0.0,0.0,0.0,0.0,0.0,0.0,0.0,0.0,0.0,0.0,0.0,0.0,0.0,0.0,-1.2406,0.0,0.0,0.0,0.0,0.0,0.0,0.0,0.0,0.0,0.0,0.0,-1.6878,-1.9558,-2.1061,-2.2546,-2.4357,-2.4592,-2.4791,0.0,0.0,0.0,0.0,0.0,0.0,0.0,0.0,0.0,0.0,0.0,0.0,0.0,0.0,-2.2733,-1.8327,-1.6607,-1.6132,-1.6982,0.0,0.0,0.0,0.0,0.0,0.0,0.0,0.0,0.0,0.0,0.0,0.0,0.0,0.0,-2.1299,0.0,-2.0841,0.0,0.0,0.0,0.0,0.0,0.0,0.0,0.0,-2.241,-2.3557,-2.4544,-2.4791,-2.4559,0.0,-2.2904,-2.0886,0.0,0.0,0.0,0.0,0.0,0.0,0.0,0.0,-1.9708,-2.2196,-2.4297,-2.5967,-2.7152,-2.7213,-2.6942,-2.6398,-2.4872,-2.2886,-2.0442,-1.9448,-1.7984,0.0,0.0,0.0,0.0,0.0,0.0,0.0,0.0,0.0,0.0,0.0,0.0,0.0,0.0,0.0,0.0,0.0,0.0,0.0,0.0,0.0,0.0,0.0,-1.3519,0.0,0.0,0.0,0.0,0.0,0.0,0.0,0.0,0.0,-1.5556,-1.6697,-1.8524,-2.1169,-2.2419,-2.365,-2.5208,0.0,0.0,0.0,0.0,0.0,0.0,0.0,-2.5149,-2.5126,-2.5068,-2.511,-2.537,-2.6091,-2.6579,-2.6341,0.0,0.0,-2.182,-2.0115,-1.964,-2.0489,-2.0423,-2.0442,-2.1262,-2.2132,-2.2765,0.0,0.0,0.0,0.0,0.0,0.0,0.0,0.0,-2.3365,-2.3861,0.0,-2.3374,0.0,0.0,0.0,0.0,0.0,-2.1816,0.0,0.0,-2.5676,-2.6547,-2.6068,-2.6663,-2.6591,-2.601,-2.6504,-2.5458,-2.2815,-1.868,0.0,0.0,0.0,0.0,0.0,0.0,-2.2056,-2.4441,-2.6714,-2.8573,-2.9633,-2.9754,-2.9223,-2.806,-2.6066,-2.4094,-2.2284,-2.1421,-1.97,-1.6966,-1.6079,0.0,0.0,0.0,0.0,0.0,0.0,0.0,0.0,0.0,0.0,0.0,0.0,0.0,0.0,0.0,0.0,0.0,0.0,0.0,0.0,-1.3828,0.0,0.0,0.0,0.0,0.0,0.0,0.0,0.0,0.0,0.0,-1.8127,-1.8761,-2.0336,-2.3397,0.0,0.0,0.0,0.0,-2.6258,-2.6349,-2.6312,-2.6441,-2.6701,-2.6834,-2.6712,-2.6139,0.0,0.0,-2.6489,-2.7015,-2.7367,-2.6588,-2.7219,-2.7679,-2.7573,-2.5958,-2.5215,-2.6027,-2.5435,-2.5404,-2.6211,-2.6612,-2.7318,-2.9038,0.0,0.0,0.0,0.0,-2.5693,-2.6562,-2.7979,-2.7982,-2.7668,-2.7167,-2.6877,0.0,0.0,0.0,0.0,0.0,0.0,-2.5473,-2.6379,-2.8057,-2.9189,-2.9885,-3.0074,-2.9827,-2.9189,-2.8477,-2.7287,-2.5662,-2.3905,-2.1133,-1.7461,0.0,0.0,0.0,0.0,-2.2657,-2.4665,-2.589,-2.6856,-2.7695,-2.8027,-2.8123,-2.8047,-2.6821,-2.5689,-2.4616,-2.3442,-2.1891,-2.007,-1.8317,0.0,0.0,0.0,0.0,0.0,0.0,0.0,0.0,0.0,0.0,0.0,0.0,0.0,0.0,0.0,0.0,0.0,0.0,0.0,-1.448,-1.5342,-1.5683,0.0,0.0,0.0,0.0,0.0,0.0,0.0,0.0,0.0,-2.1948,-2.1839,-2.2419,0.0,0.0,-2.5896,-2.6928,-2.7073,-2.7471,-2.8594,0.0,0.0,0.0,-2.92,-2.9182,-2.8444,-2.8815,-2.9128,-2.8881,-2.9033,-2.9159,-2.9026,-2.9193,-2.9394,-2.9317,-2.7567,-2.646,-2.7039,-2.6632,-2.6333,-2.7128,-2.7549,-2.7733,-3.3613,-3.0296,-2.8782,-2.8324,-2.8683,-2.891,-2.9695,-3.0884,-3.0879,-3.0769,-3.0487,-3.0047,-2.8814,-2.7016,-2.6344,0.0,0.0,0.0,-2.7998,-2.9247,-3.0016,-3.093,-3.1874,-3.1917,-3.1714,-3.1293,-3.0306,-2.9276,-2.8274,-2.7621,-2.5386,-2.1714,0.0,0.0,-2.0698,-2.2732,-2.4364,-2.5526,-2.7111,-2.7936,-2.8071,-2.8296,-2.8404,-2.8327,-2.7508,-2.6766,-2.6053,-2.4644,-2.3219,-2.1795,-2.0224,-1.8475,0.0,0.0,0.0,0.0,0.0,0.0,0.0,0.0,0.0,0.0,0.0,-1.0652,0.0,0.0,0.0,0.0,-1.3153,-1.5001,-1.7009,-1.735,0.0,0.0,0.0,0.0,0.0,0.0,0.0,-2.193,-2.2872,-2.3831,-2.5063,-2.5135,-2.5407,-2.6312,-2.6856,-2.7562,-2.8667,0.0,-2.9174,-3.0133,-3.0287,-3.0313,-3.0381,-3.0632,-3.0724,-3.0476,-3.0659,-3.0873,-3.089,-3.0926,-3.0994,-3.1077,-3.1108,-3.1138,-3.1183,-2.9655,-2.8401,-2.8637,-2.8275,-2.8122,-2.8618,-2.8695,-2.8689,-3.7258,-3.5913,-3.3178,-3.1931,-3.1819,-3.232,-3.2536,-3.2595,-3.2616,-3.3096,-3.3811,-3.2763,-3.1781,-3.0785,-2.9044,0.0,-2.9087,-2.9711,-3.0611,-3.1671,-3.1729,-3.2077,-3.2658,-3.2614,-3.2571,-3.2513,-3.1888,-3.1264,-3.0626,-3.0045,-2.8869,-2.707,-2.5255,-2.3978,-2.3368,-2.5542,-2.6722,-2.6861,-2.958,-3.0665,-3.0005,-2.9932,-2.9599,-2.8903,-2.8109,-2.7413,-2.6766,-2.5373,-2.3932,-2.2556,-2.1795,-2.0159,-1.7504,0.0,0.0,0.0,0.0,0.0,0.0,0.0,0.0,0.0,0.0,0.0,0.0,0.0,0.0,0.0,-1.6354,0.0,-1.995,-1.9491,0.0,0.0,0.0,-1.9186,-2.0283,-2.1765,-2.331,-2.4918,0.0,0.0,-2.7393,0.0,-2.8786,-2.8858,-2.8848,-2.9337,-3.0785,-3.0912,-3.1003,-3.1075,-3.1093,-3.1202,-3.1451,-3.1488,-3.1639,-3.2062,-3.2336,-3.233,-3.231,-3.24,-3.2561,-3.2483,-3.2645,-3.2634,-3.2653,-3.1851,-3.1274,-3.051,-3.0319,-3.0261,-3.0376,-3.0395,-3.0418,-3.8603,-3.7382,-3.6644,-3.5565,-3.4339,-3.393,-3.3931,-3.4243,-3.4247,-3.4248,-3.4307,-3.4535,-3.4172,-3.347,-3.3021,-3.2643,-3.2367,-3.2977,-3.3166,-3.3035,-3.3499,-3.3804,-3.3935,-3.347,-3.2991,-3.2527,-3.2353,-3.1946,-3.1308,-3.1134,-3.0597,-2.9668,-2.8724,-2.7461,-2.5966,-2.6899,-2.7918,-2.8869,-2.9599,-3.0012,-3.0101,-3.0069,-2.9918,-2.9632,-2.8369,-2.764,-2.7446,-2.6118,-2.4693,-2.3335,-2.2523,-2.1357,-1.9609,-1.7182,0.0,0.0,0.0,0.0,0.0,0.0,0.0,0.0,0.0,-1.4761,-1.2737,0.0,-1.5276,0.0,-1.7574,-1.9063,-2.0009,-2.012,0.0,0.0,-2.1515,-2.2056,-2.4288,-2.441,-2.4753,-2.5783,-2.7164,-2.8098,-2.8279,-2.9554,-3.0659,-3.122,-3.0822,-3.0568,-3.0948,-3.1003,-3.122,-3.1781,-3.1926,-3.2172,-3.2692,-3.2676,-3.2683,-3.3222,-3.288,-3.2496,-3.2477,-3.2547,-3.2597,-3.2591,-3.2607,-3.2638,-3.273,-3.252,-3.2348,-3.21,-3.1637,-3.1389,-3.1962,-3.2095,-3.2095,-3.9874,-3.876,-3.8457,-3.7439,-3.5967,-3.5911,-3.5803,-3.5815,-3.5891,-3.554,-3.4963,-3.4969,-3.4748,-3.4414,-3.4414,-3.4225,-3.3935,-3.4254,-3.4225,-3.392,-3.4254,-3.4414,-3.4385,-3.3761,-3.3282,-3.2933,-3.2932,-3.2573,-3.1894,-3.1926,-3.1602,-3.097,-3.0323,-2.9624,-2.8895,-2.8647,-2.8907,-2.9581,-3.0132,-3.0716,-3.1406,-3.0767,-3.0266,-2.9874,-2.8466,-2.7559,-2.7251,-2.5875,-2.4612,-2.3562,-2.2798,-2.1778,-2.0413,-1.854,-1.7273,0.0,0.0,0.0,0.0,0.0,0.0,0.0,0.0,0.0,0.0,0.0,-1.716,0.0,-1.9622,-2.0969,-2.2122,-2.2496,-2.3,-2.3791,-2.4105,-2.4866,-2.6404,-2.6831,-2.7373,-2.825,-2.9119,-2.9681,-2.9699,-3.0767,-3.1691,-3.2125,-3.2125,-3.2053,-3.2071,-3.2071,-3.2234,-3.2651,-3.2741,-3.2868,-3.3357,-3.3474,-3.358,-3.3829,-3.3734,-3.3578,-3.3596,-3.3669,-3.372,-3.3751,-3.3767,-3.3764,-3.378,-3.349,-3.3375,-3.3624,-3.3184,-3.2707,-3.2688,-3.2672,-3.2672,-4.0934,-3.9721,-3.9247,-3.8345,-3.7275,-3.7855,-3.7727,-3.6944,-3.719,-3.6774,-3.5998,-3.5247,-3.4864,-3.4777,-3.4791,-3.4704,-3.453,-3.453,-3.4486,-3.4414,-3.4414,-3.4481,-3.4505,-3.3893,-3.3609,-3.3636,-3.3538,-3.3216,-3.2511,-3.2511,-3.227,-3.173,-3.1132,-3.1132,-3.1685,-3.0556,-3.0016,-3.0059,-3.1095,-3.2091,-3.3064,-3.1753,-3.0716,-3.0032,-2.8514,-2.7381,-2.6701,-2.5373,-2.4308,-2.3545,-2.2994,-2.2054,-2.0719,-1.9968,-1.8996,0.0,-1.6974,0.0,0.0,0.0,0.0,0.0,0.0,0.0,0.0,-1.8717,-1.977,-2.1088,-2.2153,-2.3482,-2.5103,-2.5555,-2.5641,-2.5383,-2.6555,-2.7492,-2.7785,-2.8981,-3.0143,-3.0912,-3.1075,-3.1148,-3.1148,-3.1854,-3.2343,-3.2451,-3.2904,-3.3212,-3.3357,-3.3302,-3.3284,-3.3393,-3.3393,-3.3321,-3.3491,-3.3823,-3.4117,-3.4255,-3.4515,-3.4889,-3.4944,-3.5016,-3.5089,-3.5124,-3.5062,-3.5114,-3.519,-3.4598,-3.4407,-3.4942,-3.4522,-3.3891,-3.3337,-3.3169,-3.3016,-4.0955,-3.9743,-4.0135,-3.9615,-3.8509,-3.9168,-3.8434,-3.6717,-3.6826,-3.7168,-3.769,-3.7519,-3.723,-3.678,-3.6765,-3.6185,-3.5198,-3.5183,-3.4907,-3.4414,-3.4414,-3.4654,-3.5175,-3.452,-3.4252,-3.4197,-3.4239,-3.3811,-3.3123,-3.3108,-3.3062,-3.2982,-3.2364,-3.2364,-3.2992,0.0,0.0,0.0,-3.3248,-3.3416,-3.308,-3.2255,-3.1461,-3.0716,-2.8773,0.0,-2.6717,-2.5875,-2.4806,-2.361,-2.3902,0.0,0.0,0.0,0.0,0.0,0.0,0.0,0.0,0.0,0.0,0.0,-2.1748,-2.1218,-2.024,-2.1847,-2.3198,-2.3816,-2.4795,-2.59,-2.7128,-2.7525,-2.7905,-2.8477,-2.879,-2.9275,-3.0032,-3.0402,-3.0692,-3.0985,-3.1582,-3.1981,-3.2017,-3.2669,-3.314,-3.314,-3.3302,-3.3393,-3.3393,-3.3393,-3.3393,-3.3393,-3.3393,-3.3462,-3.3698,-3.3788,-3.4055,-3.4416,-3.4612,-3.4832,-3.5111,-3.5162,-3.5176,-3.5193,-3.5193,-3.519,-3.519,-3.5057,-3.4961,-3.5171,-3.5076,-3.4923,-3.477,-3.4713,-3.4732,-4.2104,0.0,-4.0871,-4.0205,0.0,-3.9297,-3.8701,-3.7596,-3.7258,-3.7404,-3.7738,-3.7418,-3.7099,-3.6809,-3.6489,-3.5996,-3.5427,-3.5038,-3.4719,-3.4414,-3.4414,-3.4601,-3.489,-3.4227,-3.4107,-3.438,-3.4023,-3.3836,-3.3761,-3.3458,-3.3232,-3.3216,-3.2702,-3.2887,-3.3786,-3.3817,-3.3577,-3.3198,-3.3475,-3.3639,-3.3582,-3.2902,-3.2028,-3.0927,0.0,0.0,0.0,0.0,0.0,0.0,0.0,0.0,0.0,0.0,0.0,-2.2221,-2.1919,-2.2096,-2.2808,-2.2874,-2.3354,-2.4448,-2.4862,-2.4448,-2.2973,-2.4249,-2.538,-2.6165,-2.6845,-2.7678,-2.8767,-2.9142,-2.9512,-2.9998,-3.0431,-3.0901,-3.1384,-3.182,-3.2094,-3.2187,-3.2524,-3.2795,-3.2777,-3.3121,-3.3375,-3.3411,-3.3755,-3.3864,-3.3484,-3.3393,-3.3393,-3.3393,-3.3393,-3.3452,-3.3577,-3.3726,-3.3921,-3.4302,-3.4548,-3.4773,-3.5092,-3.5181,-3.5176,-3.5174,-3.519,-3.519,-3.519,-3.519,-3.519,-3.519,-3.519,-3.519,-3.519,-3.519,-3.519,-4.322,-4.2584,-4.1544,-4.0697,-4.009,-3.9639,-3.9224,-3.873,0.0,0.0,0.0,-3.6881,-3.6591,-3.6446,-3.5938,-3.5648,-3.5503,-3.4878,-3.4574,-3.4588,-3.4457,-3.4467,-3.4572,-3.4061,-3.41,-3.4495,-3.4038,-3.3979,-3.4273,-3.3779,-3.3482,-3.3335,-3.302,-3.3474,-3.4609,-3.5283,-3.4897,-3.363,-3.3435,-3.3578,-3.4084,-3.3437,-3.2514,-3.1332,-3.0376,-2.9043,-2.7138,-2.6361,-2.5632,-2.492,-2.445,-2.4265,-2.4241,-2.4241,-2.4558,-2.5208,-2.5309,-2.5624,-2.6352,-2.6402,-2.6452,-2.6584,-2.7247,-2.7048,-2.5607,-2.617,-2.7047,-2.8164,-2.8579,-2.9207,-3.0284,-3.0738,-3.0969,-3.1094,-3.1853,-3.2361,-3.236,-3.3178,-3.3713,-3.3665,-3.3737,-3.3846,-3.3864,-3.3882,-3.3828,-3.3918,-3.4443,-3.4606,-3.3973,-3.3628,-3.3393,-3.3393,-3.3393,-3.3393,-3.3422,-3.3577,-3.3842,-3.416,-3.4416,-3.4674,-3.502,-3.5164,-3.5179,-3.5174,-3.519,-3.519,-3.519,-3.519,-3.519,-3.519,-3.519,-3.519,-3.519,-3.519,-3.519,-4.324,-4.2592,-4.2431,-4.1968,-4.138,-4.1666,-4.1047,-3.9771,-3.8614,-3.8069,-3.8057,-3.7984,-3.7651,-3.7172,-3.707,-3.6722,-3.6141,-3.5503,-3.5227,0.0,-3.4661,-3.4721,-3.5285,-3.5195,-3.5142,-3.5186,-3.5627,-3.5298,-3.4383,-3.4691,-3.4597,-3.4129,-3.4494,-3.517,-3.6034,-3.6653,-3.6298,-3.4936,-3.4307,-3.3984,-3.4084,-3.3453,-3.3,-3.2724,-3.094,-2.9497,-2.853,-2.7802,-2.7106,-2.6442,-2.6863,-2.687,-2.6406,-2.64,-2.6295,-2.598,-2.6019,-2.6369,-2.7118,-2.7131,-2.7433,-2.8042,-2.8721,-2.8506,-2.7147,-2.7644,-2.8531,-2.96,-3.0086,-3.0734,-3.1845,-3.2335,-3.2577,-3.263,-3.3309,-3.3605,-3.3117,-3.4245,-3.4957,-3.4503,-3.5077,-3.5403,-3.5331,-3.5349,-3.5331,-3.5421,-3.5403,-3.5548,-3.5258,-3.4262,-3.3484,-3.3393,-3.3393,-3.3393,-3.3393,-3.3422,-3.3707,-3.4195,-3.4311,-3.4553,-3.5089,-3.5176,-3.5193,-3.519,-3.519,-3.519,-3.519,-3.519,-3.519,-3.519,-3.519,-3.519,-3.519,-3.519,-3.519,-4.3942,-4.36,-4.2871,-4.2386,-4.2092,-4.1485,-4.0952,-4.0354,-3.9237,-3.8536,-3.8217,-3.8202,-3.8043,-3.7781,-3.7447,-3.7143,-3.6809,-3.6185,-3.5894,-3.5822,-3.5212,-3.5112,-3.5339,-3.5001,-3.5056,-3.5349,-3.5658,-3.5634,-3.5363,-3.5278,-3.5024,-3.4716,-3.5024,-3.5396,-3.5748,-3.6379,-3.6228,-3.523,-3.4856,-3.4505,-3.4101,-3.3809,-3.3453,-3.308,-3.214,-3.1073,-2.9988,-2.9632,-2.9146,-2.8475,-2.832,-2.8224,-2.8045,-2.7692,-2.7629,-2.7849,-2.7904,-2.8456,-2.9549,-2.9996,-3.0361,-3.0692,-3.1007,-3.0924,-3.0261,-3.0162,-3.0575,-3.1675,-3.2192,-3.2726,-3.3475,-3.3879,-3.4184,-3.4217,-3.4592,-3.4694,-3.4587,-3.5033,-3.5443,-3.5318,-3.5584,-3.5802,-3.5802,-3.5802,-3.5802,-3.5802,-3.582,-3.5965,-3.6363,-3.5476,-3.4534,-3.4172,-3.4063,-3.3846,-3.352,-3.3393,-3.3652,-3.4171,-3.4269,-3.4532,-3.5054,-3.5193,-3.519,-3.519,-3.519,-3.519,-3.519,-3.519,-3.519,-3.519,-3.519,-3.519,-3.519,-3.519,-3.519,-4.4572,-4.448,-4.3284,-4.2805,-4.2666,-4.1237,-4.0814,-4.1004,-4.0031,-3.9189,-3.8463,-3.8275,-3.8202,-3.8144,-3.7709,-3.7506,-3.7418,-3.6823,-3.6533,-3.6475,-3.6064,-3.5755,-3.559,-3.5083,-3.5149,-3.5563,-3.5599,-3.5823,-3.62,-3.5889,-3.5574,-3.5445,-3.5445,-3.5425,-3.5437,-3.6152,-3.6077,-3.5268,-3.5211,-3.4829,-3.4133,-3.4101,-3.3841,-3.3356,-3.3145,-3.2562,-3.1477,-3.1221,-3.0911,-3.0405,-2.987,-2.9632,-2.977,-2.9288,-2.9346,-2.9997,-3.0145,-3.0642,-3.1752,-3.2365,-3.2663,-3.2663,-3.2663,-3.2746,-3.2862,-3.2448,-3.2364,-3.3102,-3.3444,-3.3938,-3.4324,-3.4764,-3.5153,-3.5325,-3.5538,-3.5552,-3.5609,-3.5894,-3.6071,-3.6096,-3.6236,-3.6399,-3.6345,-3.6345,-3.6417,-3.6453,-3.6345,-3.6616,-3.7051,-3.6707,-3.6055,-3.5385,-3.5023,-3.4697,-3.4027,-3.3821,-3.4,-3.4383,-3.4381,-3.4612,-3.5019,-3.5193,-3.5174,-3.519,-3.519,-3.519,-3.519,-3.519,-3.519,-3.519,-3.519,-3.519,-3.519,-3.519,-3.519,-4.4572,-4.4496,-4.3786,-4.3521,-4.3254,-4.1947,-4.1584,-4.2,-4.1236,-4.0234,-3.9146,-3.8463,-3.8217,-3.8202,-3.813,-3.8086,-3.8043,-3.7491,-3.7215,-3.723,-3.7222,-3.6852,-3.6417,-3.6305,-3.633,-3.6289,-3.6292,-3.6302,-3.6332,-3.6798,-3.6788,-3.627,-3.6206,-3.6157,-3.627,-3.6837,-3.6476,-3.5198,-3.5185,-3.4829,-3.4149,-3.4101,-3.4084,-3.4003,-3.3404,-3.3032,-3.2838,-3.2271,-3.1882,-3.1817,-3.1813,-3.1873,-3.1887,-3.1987,-3.2088,-3.2121,-3.2288,-3.2481,-3.258,-3.2646,-3.2746,-3.2663,-3.2746,-3.3044,-3.3607,-3.3624,-3.3309,-3.3106,-3.3194,-3.369,-3.4024,-3.4519,-3.5012,-3.5437,-3.597,-3.6094,-3.587,-3.682,-3.75,-3.6942,-3.7413,-3.7957,-3.7794,-3.7775,-3.7848,-3.7721,-3.7685,-3.7739,-3.7884,-3.7848,-3.7504,-3.6798,-3.62,-3.5729,-3.5403,-3.4975,-3.4879,-3.5206,-3.482,-3.4842,-3.5151,-3.525,-3.519,-3.519,-3.519,-3.519,-3.519,-3.519,-3.519,-3.519,-3.519,-3.519,-3.519,-3.519,-3.519,-4.4572,-4.4496,-4.3864,-4.3314,-4.2769,-4.18,-4.1738,-4.2115,-4.1397,-4.08,-4.022,-3.9247,-3.858,-3.8217,-3.862,-3.862,-3.8248,-3.8341,-3.8238,-3.787,-3.7973,-3.7842,-3.7578,-3.7201,-3.6904,-3.6508,-3.6786,-3.675,-3.6557,-3.6965,-3.6983,-3.6319,-3.5882,-3.5671,-3.5683,-3.5946,-3.5542,-3.4603,-3.4959,-3.504,-3.4732,-3.4311,-3.4295,-3.4619,-3.4052,-3.368,-3.3663,-3.3372,-3.3242,-3.321,-3.2918,-3.2723,-3.2802,-3.258,-3.2488,-3.2517,-3.3048,-3.3342,-3.3342,-3.3756,-3.3988,-3.3988,-3.3988,-3.4137,-3.4402,-3.4435,-3.4303,-3.4101,-3.4393,-3.4831,-3.5294,-3.5697,-3.6139,-3.6577,-3.6916,-3.7024,-3.686,-3.7433,-3.7807,-3.7621,-3.7957,-3.8192,-3.8192,-3.8192,-3.8192,-3.8192,-3.8192,-3.8192,-3.8192,-3.8192,-3.8047,-3.7757,-3.7395,-3.6798,-3.6073,-3.5628,-3.5705,-3.5943,-3.5628,-3.5327,-3.5719,-3.5458,-3.5209,-3.5209,-3.519,-3.519,-3.519,-3.519,-3.519,-3.519,-3.519,-3.519,-3.519,-3.519,-3.519,-4.4572,-4.4496,-4.3708,-4.301,-4.2541,-4.1717,-4.1647,-4.1951,-4.157,-4.1265,-4.1004,-4.0118,-3.9247,-3.8597,-3.9061,-3.8957,-3.862,-3.903,-3.9045,-3.8575,-3.8782,-3.8892,-3.8644,-3.8294,-3.7824,-3.7403,-3.7355,-3.7207,-3.6993,-3.7125,-3.7064,-3.6529,-3.5849,-3.5412,-3.5231,-3.5202,-3.4829,-3.4214,-3.4651,-3.5088,-3.5315,-3.4764,-3.4748,-3.5347,-3.4781,-3.4392,-3.4392,-3.4198,-3.4101,-3.4084,-3.3664,-3.3437,-3.3437,-3.3188,-3.3096,-3.3189,-3.3727,-3.4087,-3.4121,-3.4601,-3.4899,-3.4899,-3.4899,-3.4899,-3.4899,-3.4899,-3.4899,-3.4897,-3.5195,-3.5582,-3.6224,-3.6539,-3.6939,-3.7503,-3.7577,-3.7649,-3.7721,-3.7846,-3.7934,-3.8036,-3.8104,-3.8192,-3.8192,-3.8192,-3.8192,-3.8192,-3.8192,-3.8192,-3.8192,-3.8192,-3.8192,-3.8192,-3.8174,-3.7754,-3.6703,-3.6468,-3.6646,-3.6794,-3.656,-3.6226,-3.6479,-3.588,-3.5343,-3.5381,-3.5267,-3.519,-3.519,-3.519,-3.519,-3.519,-3.519,-3.519,-3.519,-3.519,-3.519,-4.4572,-4.4419,-4.3235,-4.2835,-4.29,-4.18,-4.1549,-4.1785,-4.1937,-4.1686,-4.1178,-4.1004,-4.0307,-3.9237,-3.9401,-3.932,-3.9247,-3.932,-3.932,-3.925,-3.9921,-3.9971,-3.9364,-3.9391,-3.9376,-3.9006,-3.8039,-3.7775,-3.8173,-3.764,-3.7307,-3.7226,-3.6578,-3.5914,-3.5347,-3.5202,-3.4813,-3.4198,-3.4182,-3.4813,-3.593,-3.5477,-3.5493,-3.6108,-3.5525,-3.5137,-3.5072,-3.4473,-3.4117,-3.4117,-3.4152,-3.4185,-3.407,-3.4382,-3.4558,-3.4686,-3.4783,-3.4816,-3.48,-3.4866,-3.4899,-3.4899,-3.4899,-3.4899,-3.4899,-3.4899,-3.4899,-3.4899,-3.4947,-3.5316,-3.6062,-3.6256,-3.6684,-3.7466,-3.7577,-3.7703,-3.7864,-3.7899,-3.8003,-3.814,-3.8192,-3.8192,-3.8192,-3.8192,-3.8192,-3.8192,-3.8192,-3.8192,-3.8192,-3.8192,-3.8192,-3.8192,-3.8225,-3.8171,-3.8122,-3.7686,-3.7655,-3.781,-3.7653,-3.7165,-3.6748,-3.6358,-3.5974,-3.5572,-3.5496,-3.5381,-3.5248,-3.519,-3.519,-3.519,-3.519,-3.519,-3.519,-3.519,-3.519,-4.4343,-4.3864,-4.2981,-4.2563,-4.2252,-4.1521,-4.1339,-4.1688,-4.1785,-4.1767,-4.1686,-4.1279,-4.1134,-4.1151,-4.0794,-4.0141,-3.9391,-3.9804,-3.9733,-3.9409,-4.0085,-4.0257,-4.0093,-4.0579,-4.0347,-3.9521,-3.8969,-3.8599,-3.8335,-3.8132,-3.8019,-3.789,-3.7307,-3.661,-3.5946,-3.5428,-3.4813,-3.4182,-3.4101,-3.4586,-3.5542,-3.5785,-3.6238,-3.6869,-3.627,-3.5898,-3.5898,-3.5185,-3.4797,-3.4797,-3.4426,-3.4151,-3.4151,-3.4399,-3.4707,-3.4883,-3.4899,-3.4899,-3.4899,-3.4899,-3.4899,-3.4899,-3.4899,-3.4899,-3.4899,-3.4899,-3.4899,-3.4899,-3.4899,-3.5316,-3.5977,-3.6215,-3.6563,-3.7411,-3.7649,-3.7685,-3.7792,-3.7863,-3.8002,-3.807,-3.814,-3.8192,-3.8192,-3.8192,-3.8192,-3.8192,-3.8192,-3.8192,-3.8192,-3.8192,-3.8192,-3.8225,-3.8259,-3.8354,-3.8597,-3.8516,-3.8461,-3.8708,-3.8672,-3.8344,-3.7984,-3.7446,-3.7024,-3.6184,-3.5935,-3.563,-3.5477,-3.519,-3.519,-3.519,-3.519,-3.519,-3.519,-3.519,-3.5226,-4.4189,-4.3536,-4.2886,-4.2304,-4.184,-4.1254,-4.1269,-4.1619,-4.1702,-4.1883,-4.2005,-4.1599,-4.1762,-4.2194,-4.1931,-4.1275,-4.0405,-4.0662,-4.0485,-4.0076,-4.0538,-4.075,-4.0873,-4.1326,-4.1082,-4.0176,-3.9704,-3.9104,-3.8472,-3.8391,-3.8391,-3.8343,-3.7679,-3.7096,-3.6546,-3.5671,-3.491,-3.4489,-3.4214,-3.4457,-3.5153,-3.5671,-3.64,-3.7096,-3.6869,-3.6627,-3.661,-3.593,-3.5542,-3.5477,-3.5072,-3.4864,-3.495,-3.5151,-3.5251,-3.5248,-3.5263,-3.5114,-3.4932,-3.4899,-3.4899,-3.4899,-3.4899,-3.4899,-3.4899,-3.4899,-3.4899,-3.4899,-3.4899,-3.5224,-3.5933,-3.6215,-3.6603,-3.7411,-3.7649,-3.7721,-3.7757,-3.788,-3.7984,-3.807,-3.8122,-3.8192,-3.8192,-3.8192,-3.8192,-3.8192,-3.8192,-3.8192,-3.8192,-3.8192,-3.8192,-3.8225,-3.8336,-3.8585,-3.8857,-3.897,-3.9074,-3.9316,-3.948,-3.928,-3.8918,-3.842,-3.775,-3.6929,-3.6301,-3.5974,-3.563,-3.5305,-3.519,-3.519,-3.519,-3.519,-3.519,-3.519,-3.5239,-4.4174,-4.3536,-4.2871,-4.2252,-4.1688,-4.117,-4.1114,-4.1381,-4.1619,-4.18,-4.2092,-4.2117,-4.2275,-4.2436,-4.2524,-4.2466,-4.2417,-4.1936,-4.1522,-4.1339,-4.1365,-4.1388,-4.1444,-4.1626,-4.1598,-4.1326,-4.0124,-3.9136,-3.8537,-3.844,-3.8391,-3.8278,-3.7744,-3.7371,-3.729,-3.6027,-3.5266,-3.5007,-3.4489,-3.4505,-3.5072,-3.5218,-3.5866,-3.7015,-3.7128,-3.7145,-3.7193,-3.6627,-3.6303,-3.6303,-3.6222,-3.643,-3.646,-3.6615,-3.6554,-3.5976,-3.5943,-3.5611,-3.4998,-3.4899,-3.4899,-3.4899,-3.4899,-3.4899,-3.4899,-3.4899,-3.4899,-3.4899,-3.4994,-3.5316,-3.6002,-3.6256,-3.6643,-3.7411,-3.7667,-3.7757,-3.7881,-3.7967,-3.8036,-3.814,-3.8192,-3.8192,-3.8192,-3.8192,-3.8192,-3.8192,-3.8192,-3.8192,-3.8192,-3.8192,-3.8192,-3.8274,-3.8446,-3.8759,-3.9117,-3.9476,-3.9679,-3.9857,-3.9983,-3.9948,-3.949,-3.9011,-3.8247,-3.7387,-3.6241,-3.5859,-3.5477,-3.519,-3.519,-3.519,-3.519,-3.519,-3.519,-3.5207,-3.5296,-4.4189,-4.3551,-4.2871,-4.2252,-4.1688,-4.1029,-4.1029,-4.1396,-4.1465,-4.1745,-4.2175,-4.2688,-4.3244,-4.3762,-4.3904,-4.3943,-4.4069,-4.3346,-4.2476,-4.1652,-4.1554,-4.1539,-4.1607,-4.2044,-4.2019,-4.1403,-4.0156,-3.9379,-3.9104,-3.8651,-3.8391,-3.8327,-3.8165,-3.7792,-3.7355,-3.6837,-3.6254,-3.525,-3.4959,-3.4748,-3.4538,-3.4926,-3.5428,-3.5833,-3.6335,-3.6627,-3.6627,-3.6853,-3.6999,-3.6967,-3.6562,-3.6409,-3.6656,-3.6744,-3.6501,-3.6075,-3.6009,-3.5678,-3.5015,-3.4899,-3.4899,-3.4899,-3.4899,-3.4899,-3.4899,-3.4899,-3.4899,-3.4947,-3.5195,-3.5644,-3.6105,-3.6522,-3.6939,-3.7595,-3.7775,-3.7881,-3.7951,-3.8054,-3.814,-3.8192,-3.8192,-3.8192,-3.8192,-3.8192,-3.8192,-3.8192,-3.8192,-3.8192,-3.8192,-3.8192,-3.8225,-3.8274,-3.8585,-3.8915,-3.9275,-3.9614,-3.9895,-4.0038,-4.0196,-4.0272,-3.9909,-3.9584,-3.8801,-3.7693,-3.6566,-3.5763,-3.5381,-3.519,-3.519,-3.519,-3.519,-3.519,-3.5226,-3.527,-3.534,-4.4174,-4.3536,-4.2886,-4.2237,-4.1604,-4.1029,-4.0972,-4.1396,-4.1451,-4.1854,-4.2526,-4.3061,-4.3897,-4.4685,-4.4488,-4.4416,-4.4624,-4.3767,-4.2784,-4.1996,-4.1898,-4.1898,-4.1948,-4.2365,-4.2261,-4.1565,-4.0675,-3.9978,-3.946,-3.9039,-3.8667,-3.844,-3.8391,-3.8181,-3.7711,-3.742,-3.6707,-3.572,-3.5331,-3.4829,-3.4343,-3.4538,-3.4894,-3.5218,-3.5655,-3.6011,-3.6303,-3.6724,-3.7064,-3.7258,-3.7183,-3.7297,-3.7478,-3.7515,-3.7192,-3.6572,-3.634,-3.5992,-3.5081,-3.4899,-3.4899,-3.4899,-3.4899,-3.4899,-3.4899,-3.4899,-3.4899,-3.4994,-3.5333,-3.5776,-3.619,-3.6603,-3.715,-3.7721,-3.781,-3.7881,-3.8002,-3.8122,-3.8192,-3.8192,-3.8192,-3.8192,-3.8192,-3.8192,-3.8192,-3.8192,-3.8192,-3.8192,-3.8192,-3.8192,-3.8274,-3.8446,-3.877,-3.9117,-3.9427,-3.9747,-4.0078,-4.0196,-4.0291,-4.031,-4.0138,-4.0043,-3.9546,-3.8018,-3.6738,-3.5916,-3.5458,-3.5267,-3.519,-3.519,-3.519,-3.519,-3.5207,-3.5311,-3.5411,-4.4266,-4.3615,-4.29,-4.2319,-4.1688,-4.1043,-4.0972,-4.1381,-4.1532,-4.2164,-4.3126,-4.3506,-4.4343,-4.518,-4.4535,-4.4329,-4.4479,-4.3508,-4.2749,-4.2556,-4.2524,-4.2508,-4.2508,-4.2571,-4.231,-4.1776,-4.1517,-4.0804,-3.9687,-3.9444,-3.9104,-3.8456,-3.8391,-3.8391,-3.8213,-3.7695,-3.7096,-3.6384,-3.5671,-3.4975,-3.4279,-3.4149,-3.4424,-3.5024,-3.5104,-3.5396,-3.5882,-3.6125,-3.6546,-3.7209,-3.7838,-3.8225,-3.857,-3.8832,-3.8134,-3.7035,-3.7052,-3.6208,-3.5247,-3.4899,-3.4899,-3.4899,-3.4899,-3.4899,-3.4899,-3.4899,-3.493,-3.5024,-3.5453,-3.582,-3.6256,-3.6724,-3.7243,-3.7739,-3.7828,-3.7898,-3.8002,-3.8122,-3.8192,-3.8192,-3.8192,-3.8192,-3.8192,-3.8192,-3.8192,-3.8192,-3.8192,-3.8192,-3.8192,-3.8241,-3.8368,-3.8628,-3.8924,-3.9275,-3.959,-3.9916,-4.0196,-4.0234,-4.0329,-4.0329,-4.0215,-4.0119,-3.989,-3.8381,-3.7024,-3.6222,-3.5649,-3.5477,-3.5267,-3.519,-3.519,-3.519,-3.527,-3.5369,-3.5483,-4.4496,-4.4174,-4.3126,-4.2482,-4.2252,-4.1354,-4.1114,-4.1451,-4.2187,-4.2817,-4.3476,-4.4555,-4.5227,-4.557,-4.5357,-4.5139,-4.4527,-4.38,-4.3087,-4.2636,-4.2571,-4.2571,-4.2571,-4.2571,-4.2537,-4.2278,-4.184,-4.1112,-4.0237,-3.9752,-3.9136,-3.8424,-3.8424,-3.8391,-3.8343,-3.8181,-3.7744,-3.7064,-3.6367,-3.5639,-3.4943,-3.436,-3.4182,-3.4343,-3.4408,-3.4505,-3.4732,-3.5202,-3.5817,-3.6529,-3.7226,-3.7692,-3.784,-3.7986,-3.7682,-3.7032,-3.6506,-3.5926,-3.5148,-3.4899,-3.4899,-3.4899,-3.4899,-3.4899,-3.4899,-3.4899,-3.5071,-3.5362,-3.582,-3.6215,-3.6643,-3.7111,-3.7522,-3.7721,-3.7898,-3.8072,-3.8088,-3.8192,-3.8192,-3.8192,-3.8192,-3.8192,-3.8192,-3.8192,-3.8192,-3.8192,-3.8192,-3.8192,-3.8225,-3.8289,-3.8446,-3.873,-3.9036,-3.9421,-3.9766,-4.0077,-4.0273,-4.0291,-4.0329,-4.0329,-4.01,-3.9814,-3.9451,-3.8648,-3.7406,-3.647,-3.605,-3.5763,-3.5534,-3.5209,-3.519,-3.5207,-3.5296,-3.5411,-3.5554,-4.4419,-4.4112,-4.3061,-4.2496,-4.2087,-4.1255,-4.1241,-4.1918,-4.252,-4.344,-4.4342,-4.5243,-4.5754,-4.5719,-4.5459,-4.4982,-4.4302,-4.3589,-4.3039,-4.2731,-4.2571,-4.2571,-4.2571,-4.2571,-4.2571,-4.2601,-4.2229,-4.1646,-4.0934,-4.0237,-3.9541,-3.8926,-3.8537,-3.8408,-3.8391,-3.8375,-3.8035,-3.7371,-3.6902,-3.6384,-3.5655,-3.4926,-3.4619,-3.4473,-3.4311,-3.4101,-3.4165,-3.4522,-3.5072,-3.5801,-3.6481,-3.694,-3.7138,-3.7229,-3.7042,-3.6537,-3.6158,-3.5678,-3.5065,-3.4899,-3.4899,-3.4899,-3.4899,-3.4899,-3.4947,-3.5071,-3.5362,-3.5571,-3.6147,-3.6563,-3.69,-3.7411,-3.7685,-3.7792,-3.8038,-3.8174,-3.8122,-3.8156,-3.8192,-3.8192,-3.8192,-3.8192,-3.8192,-3.8192,-3.8192,-3.8192,-3.8192,-3.8225,-3.8241,-3.8368,-3.8615,-3.8943,-3.9268,-3.9632,-3.9895,-4.0195,-4.0291,-4.0311,-4.0329,-4.0329,-4.0138,-3.9775,-3.9489,-3.8935,-3.7769,-3.6852,-3.647,-3.5993,-3.5455,-3.5226,-3.5226,-3.5285,-3.5383,-3.547,-3.562,-4.4174,-4.363,-4.2996,-4.2348,-4.1785,-4.1312,-4.165,-4.2482,-4.2874,-4.391,-4.528,-4.5624,-4.5785,-4.5872,-4.5384,-4.4577,-4.3881,-4.3298,-4.2844,-4.2682,-4.2571,-4.2571,-4.2571,-4.2571,-4.2571,-4.2618,-4.2571,-4.2164,-4.1436,-4.0772,-4.0124,-3.9379,-3.8715,-3.8424,-3.8391,-3.8391,-3.8051,-3.7614,-3.7307,-3.6967,-3.6367,-3.5687,-3.525,-3.4959,-3.4376,-3.4117,-3.4101,-3.4198,-3.4457,-3.5024,-3.5801,-3.6283,-3.6509,-3.6561,-3.6452,-3.6075,-3.5844,-3.5495,-3.5032,-3.4899,-3.4899,-3.4899,-3.4899,-3.4947,-3.5071,-3.5316,-3.5616,-3.5864,-3.644,-3.686,-3.7111,-3.7559,-3.781,-3.7916,-3.8072,-3.8088,-3.807,-3.814,-3.8192,-3.8192,-3.8192,-3.8192,-3.8192,-3.8192,-3.8192,-3.8192,-3.8225,-3.8274,-3.8368,-3.8523,-3.8847,-3.9268,-3.9566,-3.9854,-4.0078,-4.0291,-4.0311,-4.0329,-4.0329,-4.0329,-4.0329,-4.0043,-3.9794,-3.9221,-3.8419,-3.7597,-3.6871,-3.6298,-3.5608,-3.5261,-3.5277,-3.536,-3.5477,-3.5566,-3.5698,-4.402,-4.4266,-4.3126,-4.2563,-4.2465,-4.2777,-4.2829,-4.2731,-4.3684,-4.4713,-4.552,-4.5697,-4.6103,-4.6552,-4.5775,-4.5208,-4.4383,-4.367,-4.3201,-4.2587,-4.2571,-4.2571,-4.2571,-4.2571,-4.2571,-4.2571,-4.2571,-4.2261,-4.1565,-4.0836,-4.0173,-3.9509,-3.8829,-3.8391,-3.8391,-3.8391,-3.8359,-3.8084,-3.7647,-3.7323,-3.7064,-3.6416,-3.5768,-3.5202,-3.4473,-3.4133,-3.4101,-3.4101,-3.4182,-3.4524,-3.5094,-3.5636,-3.5722,-3.5874,-3.5926,-3.5745,-3.5364,-3.5081,-3.4932,-3.4899,-3.4899,-3.4899,-3.4947,-3.5071,-3.5424,-3.5543,-3.595,-3.6399,-3.6821,-3.7094,-3.7413,-3.7613,-3.781,-3.7933,-3.8036,-3.807,-3.8122,-3.8192,-3.8192,-3.8192,-3.8192,-3.8192,-3.8192,-3.8192,-3.8192,-3.8192,-3.8241,-3.8322,-3.851,-3.8688,-3.9109,-3.9537,-3.9766,-4.0038,-4.0157,-4.0329,-4.0329,-4.0329,-4.0329,-4.0329,-4.0329,-4.031,-4.0043,-3.9718,-3.9298,-3.84,-3.7273,-3.6542,-3.5832,-3.558,-3.532,-3.5424,-3.5512,-3.564,-3.576,-4.4097,-4.4035,-4.3379,-4.3031,-4.2938,-4.3288,-4.3558,-4.3974,-4.4588,-4.5428,-4.6111,-4.6285,-4.632,-4.6326,-4.5629,-4.4933,-4.4253,-4.3541,-4.3006,-4.2619,-4.2571,-4.2571,-4.2571,-4.2571,-4.2571,-4.2522,-4.2261,-4.2035,-4.1743,-4.0756,-3.9978,-3.9849,-3.8926,-3.844,-3.8391,-3.8391,-3.8391,-3.8327,-3.8051,-3.7825,-3.7711,-3.7128,-3.6206,-3.5266,-3.4505,-3.4101,-3.4101,-3.4101,-3.4101,-3.4232,-3.4608,-3.4937,-3.4987,-3.512,-3.5235,-3.5283,-3.5116,-3.4899,-3.4899,-3.4899,-3.4899,-3.4899,-3.4899,-3.5211,-3.5543,-3.5732,-3.6207,-3.6741,-3.7111,-3.7356,-3.7667,-3.7757,-3.7863,-3.7949,-3.8036,-3.8122,-3.8192,-3.8192,-3.8192,-3.8192,-3.8192,-3.8192,-3.8192,-3.8192,-3.8192,-3.8192,-3.8401,-3.851,-3.8748,-3.899,-3.9364,-3.9739,-3.9975,-4.0157,-4.0234,-4.0329,-4.0329,-4.0329,-4.0329,-4.0329,-4.0329,-4.0329,-4.0291,-3.9928,-3.9508,-3.8513,-3.7479,-3.675,-3.6109,-3.5618,-3.5402,-3.5463,-3.557,-3.5704,-3.5833,-4.4174,-4.3708,-4.363,-4.3427,-4.32,-4.3351,-4.4043,-4.4989,-4.5221,-4.5715,-4.671,-4.6807,-4.6228,-4.5824,-4.5322,-4.4544,-4.3702,-4.3055,-4.2603,-4.2587,-4.2571,-4.2571,-4.2555,-4.2488,-4.2359,-4.2391,-4.1938,-4.1873,-4.1533,-4.0577,-3.9816,-3.9962,-3.9055,-3.8456,-3.8391,-3.8391,-3.8391,-3.8375,-3.8327,-3.8294,-3.8246,-3.7711,-3.6821,-3.559,-3.4538,-3.4133,-3.4101,-3.4101,-3.4101,-3.4101,-3.4201,-3.4349,-3.4448,-3.4546,-3.4643,-3.4932,-3.4916,-3.4899,-3.4899,-3.4899,-3.4899,-3.4899,-3.5024,-3.5224,-3.5644,-3.6105,-3.6563,-3.6939,-3.7319,-3.7559,-3.7721,-3.781,-3.7916,-3.8002,-3.8122,-3.8192,-3.8192,-3.8192,-3.8192,-3.8192,-3.8192,-3.8192,-3.8192,-3.8192,-3.8192,-3.8241,-3.8478,-3.8688,-3.8933,-3.9242,-3.9604,-3.9848,-4.0057,-4.0195,-4.0291,-4.0329,-4.0329,-4.0329,-4.0329,-4.0329,-4.0329,-4.0329,-4.0272,-4.0024,-3.947,-3.857,-3.7802,-3.7146,-3.6466,-3.5739,-3.5464,-3.5535,-3.5669,-3.5801,-3.5899,-4.402,-4.4404,-4.3864,-4.3299,-4.2892,-4.3792,-4.4281,-4.4113,-4.4701,-4.5544,-4.6694,-4.6182,-4.5923,-4.5704,-4.5726,-4.4901,-4.3654,-4.2941,-4.2571,-4.2555,-4.2585,-4.2537,-4.2439,-4.197,-4.1759,-4.1727,-4.1468,-4.1257,-4.0853,-3.9978,-3.9541,-3.9444,-3.8829,-3.8408,-3.8391,-3.8391,-3.8391,-3.8391,-3.8391,-3.8391,-3.8327,-3.7987,-3.7339,-3.5979,-3.4781,-3.4165,-3.4101,-3.4101,-3.4101,-3.4101,-3.4134,-3.4234,-3.4448,-3.4611,-3.4707,-3.4851,-3.4899,-3.4899,-3.4899,-3.4899,-3.4899,-3.4994,-3.5241,-3.5644,-3.6062,-3.6464,-3.69,-3.7281,-3.7503,-3.7613,-3.7703,-3.7846,-3.7934,-3.802,-3.8088,-3.8192,-3.8192,-3.8192,-3.8192,-3.8192,-3.8192,-3.8192,-3.8192,-3.8192,-3.8225,-3.8289,-3.8491,-3.8718,-3.8952,-3.9294,-3.9679,-3.9895,-4.0077,-4.0215,-4.0329,-4.0329,-4.0329,-4.0329,-4.0329,-4.0329,-4.0329,-4.0329,-4.0215,-4.008,-3.9698,-3.899,-3.8242,-3.7431,-3.6588,-3.5713,-3.5623,-3.562,-3.5741,-3.5852,-3.5909,-4.4343,-4.4572,-4.4266,-4.4159,-4.4358,-4.4895,-4.5304,-4.5457,-4.5671,-4.5943,-4.6124,-4.5918,-4.5564,-4.5255,-4.4836,-4.4107,-4.3281,-4.2844,-4.2571,-4.2601,-4.2278,-4.2083,-4.2019,-4.1371,-4.0836,-4.0577,-4.0448,-4.0561,-4.0367,-3.9395,-3.9185,-3.9282,-3.8764,-3.8408,-3.8391,-3.8391,-3.8391,-3.8391,-3.8391,-3.8391,-3.8278,-3.7825,-3.6886,-3.6173,-3.4975,-3.4182,-3.4101,-3.4101,-3.4101,-3.4101,-3.4101,-3.425,-3.4448,-3.4611,-3.4707,-3.4851,-3.4899,-3.4899,-3.4899,-3.4899,-3.4977,-3.527,-3.5481,-3.5907,-3.6399,-3.6781,-3.7111,-3.7449,-3.7631,-3.7667,-3.7792,-3.7864,-3.7969,-3.8106,-3.8192,-3.8192,-3.8192,-3.8192,-3.8192,-3.8192,-3.8192,-3.8192,-3.8192,-3.8225,-3.8207,-3.8336,-3.8554,-3.8778,-3.9008,-3.9414,-3.9832,-4.0017,-4.0176,-4.0234,-4.0253,-4.0157,-4.0272,-4.031,-4.0196,-4.0196,-4.031,-4.031,-4.031,-4.0252,-3.9774,-3.8912,-3.8095,-3.7064,-3.6353,-3.5791,-3.5756,-3.5757,-3.5801,-3.5889,-3.5947,-4.4172,-4.4187,-4.4187,-4.4471,-4.4744,-4.4801,-4.5124,-4.5808,-4.5731,-4.5649,-4.5646,-4.5565,-4.5158,-4.4528,-4.3848,-4.3184,-4.2571,-4.2571,-4.2571,-4.2488,-4.1954,-4.1614,-4.1371,-4.0707,-4.0075,-3.9768,-3.9379,-3.9557,-3.9654,-3.8991,-3.8845,-3.891,-3.8602,-3.8391,-3.8391,-3.8391,-3.8391,-3.8391,-3.8391,-3.8391,-3.8084,-3.7226,-3.6416,-3.6238,-3.5007,-3.4295,-3.4117,-3.4101,-3.4101,-3.4101,-3.4134,-3.4234,-3.4448,-3.4562,-3.4659,-3.4851,-3.4899,-3.4899,-3.4947,-3.5071,-3.5195,-3.5287,-3.5705,-3.6207,-3.658,-3.69,-3.7243,-3.754,-3.7613,-3.7703,-3.781,-3.7899,-3.7985,-3.8106,-3.8192,-3.8192,-3.8192,-3.8192,-3.8192,-3.8192,-3.8192,-3.8192,-3.8192,-3.8225,-3.8207,-3.8446,-3.8658,-3.8894,-3.9146,-3.967,-4.0017,-4.0176,-4.0291,-4.0291,-4.0196,-3.9909,-4.0081,-4.0291,-4.0024,-3.9852,-4.01,-4.031,-4.0309,-4.023,-3.9021,-3.8137,-3.739,-3.6881,-3.6318,-3.5936,-3.59,-3.5872,-3.5878,-3.5909,-3.5981,-4.2848,-4.2848,-4.2863,-4.2271,-4.1579,-4.1731,-4.2031,-4.2621,-4.3044,-4.3659,-4.4901,-4.4868,-4.4512,-4.3816,-4.3136,-4.2684,-4.2587,-4.2571,-4.2585,-4.2391,-4.1792,-4.1464,-4.1334,-4.0173,-3.9622,-3.9266,-3.8812,-3.8586,-3.8764,-3.857,-3.844,-3.8537,-3.8537,-3.8391,-3.8391,-3.8391,-3.8391,-3.8391,-3.8391,-3.8391,-3.8262,-3.7566,-3.6902,-3.6222,-3.5461,-3.4683,-3.4198,-3.4101,-3.4101,-3.4151,-3.4201,-3.4349,-3.4497,-3.4611,-3.4739,-3.4851,-3.4899,-3.4899,-3.4947,-3.5148,-3.5316,-3.5436,-3.5994,-3.644,-3.6741,-3.7111,-3.7485,-3.7577,-3.7631,-3.7703,-3.7792,-3.7898,-3.7949,-3.807,-3.814,-3.8192,-3.8192,-3.8192,-3.8192,-3.8192,-3.8192,-3.8192,-3.8192,-3.8225,-3.8274,-3.8523,-3.8759,-3.899,-3.9287,-3.9785,-4.0137,-4.0273,-4.0005,-3.9947,-3.9718,-3.9508,-3.9451,-3.9852,-3.9623,-3.9392,-3.9755,-4.0021,-4.0306,-3.9902,-3.8687,-3.7928,-3.7642,-3.7147,-3.6419,-3.6038,-3.5905,-3.5878,-3.5889,-3.5942,-3.601,-4.1648,-4.2058,-4.2058,-4.1715,-4.1219,-4.1728,-4.2299,-4.2785,-4.3432,-4.3826,-4.4123,-4.4172,-4.3783,-4.3152,-4.2731,-4.2587,-4.2571,-4.2539,-4.2375,-4.1921,-4.1306,-4.0788,-4.0189,-3.9412,-3.8893,-3.8829,-3.8602,-3.8472,-3.8391,-3.8391,-3.8391,-3.8391,-3.8391,-3.8391,-3.8391,-3.8391,-3.8391,-3.8391,-3.8391,-3.8391,-3.8213,-3.7695,-3.6999,-3.6319,-3.5574,-3.4862,-3.4295,-3.4101,-3.4151,-3.4201,-3.4201,-3.4349,-3.4497,-3.4594,-3.4643,-3.4899,-3.4899,-3.4899,-3.4947,-3.5102,-3.5316,-3.5644,-3.619,-3.6563,-3.69,-3.7319,-3.7577,-3.7577,-3.7667,-3.7703,-3.7792,-3.7933,-3.8036,-3.8122,-3.8174,-3.8192,-3.8192,-3.8192,-3.8192,-3.8192,-3.8225,-3.8225,-3.8241,-3.8274,-3.8322,-3.8478,-3.8741,-3.8971,-3.9352,-3.9851,-4.0118,-4.0291,-3.989,-3.9451,-3.9126,-3.882,-3.8438,-3.861,-3.8626,-3.8605,-3.9254,-3.9616,-3.9879,-3.9772,-3.8892,-3.832,-3.7995,-3.7093,-3.6077,-3.592,-3.5903,-3.5924,-3.5938,-3.5951,-3.601,-4.0771,-4.1232,-4.1321,-4.1232,-4.1054,-4.1717,-4.2215,-4.2752,-4.3253,-4.3589,-4.3541,-4.3427,-4.312,-4.2747,-4.2618,-4.252,-4.2342,-4.2375,-4.1921,-4.1274,-4.061,-4.0027,-3.9541,-3.8861,-3.8456,-3.8391,-3.844,-3.8391,-3.8391,-3.8391,-3.8391,-3.8391,-3.8391,-3.8391,-3.8391,-3.8391,-3.8391,-3.8391,-3.8391,-3.8391,-3.8294,-3.7922,-3.7145,-3.6432,-3.572,-3.504,-3.4246,-3.4101,-3.4151,-3.4201,-3.425,-3.4399,-3.4546,-3.4643,-3.4691,-3.4899,-3.4899,-3.4977,-3.5071,-3.5241,-3.5481,-3.5864,-3.6399,-3.6764,-3.7374,-3.7577,-3.7577,-3.7577,-3.7739,-3.781,-3.7899,-3.7985,-3.8088,-3.814,-3.8192,-3.8192,-3.8192,-3.8192,-3.8192,-3.8192,-3.8225,-3.834,-3.8322,-3.8336,-3.8401,-3.8496,-3.8711,-3.8933,-3.9274,-3.9656,-3.9528,-3.9546,-3.9126,-3.8667,-3.8457,-3.8113,-3.7731,-3.75,-3.7515,-3.7838,-3.8523,-3.9051,-3.9369,-3.9138,-3.8799,-3.8245,-3.7646,-3.6656,-3.5767,-3.5846,-3.5924,-3.5974,-3.6007,-3.601,-3.601,-4.0222,-3.9888,-4.0414,-4.0319,-3.9892,-3.9888,-4.0384,-4.1153,-4.118,-4.1944,-4.2749,-4.2731,-4.2747,-4.2585,-4.2439,-4.218,-4.163,-4.163,-4.1177,-4.0545,-3.9914,-3.9573,-3.9169,-3.8748,-3.8391,-3.8391,-3.8391,-3.8391,-3.8391,-3.8391,-3.8391,-3.8391,-3.8391,-3.8391,-3.8391,-3.8391,-3.8391,-3.8391,-3.8391,-3.8391,-3.8391,-3.8149,-3.7598,-3.6578,-3.6141,-3.559,-3.4214,-3.4101,-3.4101,-3.4151,-3.43,-3.4448,-3.4594,-3.4691,-3.4804,-3.4899,-3.5024,-3.5148,-3.5379,-3.5453,-3.5571,-3.5864,-3.6357,-3.7017,-3.754,-3.7577,-3.7577,-3.7613,-3.7739,-3.7864,-3.7934,-3.8038,-3.8158,-3.8192,-3.8192,-3.8192,-3.8192,-3.8192,-3.8192,-3.8192,-3.8274,-3.8368,-3.8572,-3.8615,-3.8394,-3.8475,-3.8311,-3.8539,-3.8691,-3.8918,-3.8575,-3.8381,-3.8037,-3.7769,-3.7693,-3.733,-3.6833,-3.6733,-3.6769,-3.722,-3.7792,-3.8258,-3.8614,-3.8736,-3.845,-3.787,-3.7316,-3.6541,-3.6,-3.5938,-3.5938,-3.5985,-3.601,-3.601,-3.601,-4.0385,-4.0246,-4.0385,-4.0076,-3.9478,-4.003,-4.0569,-4.1095,-4.1591,-4.2077,-4.2571,-4.2555,-4.2375,-4.2083,-4.1938,-4.1581,-4.0982,-4.0901,-4.0448,-4.0027,-3.959,-3.9233,-3.8877,-3.8602,-3.8391,-3.8391,-3.8391,-3.8391,-3.8391,-3.8391,-3.8391,-3.8391,-3.8391,-3.8391,-3.8391,-3.8391,-3.8391,-3.8391,-3.8391,-3.8391,-3.8391,-3.8327,-3.7728,-3.6448,-3.6303,-3.5525,-3.436,-3.4133,-3.4151,-3.4234,-3.4349,-3.4448,-3.4594,-3.4756,-3.4851,-3.4977,-3.5148,-3.5407,-3.5633,-3.5722,-3.582,-3.644,-3.6939,-3.7394,-3.7594,-3.7577,-3.7577,-3.7667,-3.7775,-3.7864,-3.7934,-3.809,-3.8192,-3.8192,-3.8192,-3.8192,-3.8192,-3.8192,-3.8241,-3.8274,-3.8401,-3.8523,-3.8718,-3.8923,-3.8646,-3.8428,-3.8244,-3.8121,-3.8175,-3.8151,-3.7827,-3.7445,-3.712,-3.6948,-3.6891,-3.6413,-3.5897,-3.5987,-3.6096,-3.6543,-3.7026,-3.725,-3.759,-3.7854,-3.8122,-3.7677,-3.7157,-3.6557,-3.6181,-3.6029,-3.5978,-3.6007,-3.601,-3.601,-3.601,-4.0608,-4.0662,-4.0539,-4.0216,-3.996,-4.0516,-4.1044,-4.1509,-4.2158,-4.2508,-4.2571,-4.2539,-4.2229,-4.1727,-4.1626,-4.0998,-4.0415,-4.014,-3.9735,-3.9363,-3.9055,-3.8829,-3.8553,-3.8391,-3.8391,-3.8391,-3.8391,-3.8391,-3.8391,-3.8391,-3.8391,-3.8391,-3.8391,-3.8391,-3.8391,-3.8391,-3.8391,-3.8391,-3.8391,-3.8391,-3.8391,-3.8359,-3.7728,-3.6546,-3.6303,-3.5525,-3.4522,-3.4101,-3.4151,-3.4234,-3.4333,-3.4448,-3.4611,-3.4756,-3.4883,-3.5148,-3.5391,-3.5661,-3.5924,-3.6079,-3.6274,-3.6781,-3.7243,-3.7485,-3.7577,-3.7577,-3.7577,-3.7631,-3.7739,-3.7846,-3.7899,-3.8038,-3.8158,-3.8174,-3.8192,-3.8192,-3.8192,-3.8192,-3.8307,-3.8336,-3.8491,-3.8663,-3.8753,-3.8865,-3.8464,-3.8225,-3.8083,-3.7717,-3.7337,-3.7273,-3.7101,-3.67,-3.6317,-3.6184,-3.6069,-3.5818,-3.5624,-3.5618,-3.5707,-3.5816,-3.6188,-3.6489,-3.6735,-3.7014,-3.7226,-3.7319,-3.6962,-3.6325,-3.6121,-3.6027,-3.601,-3.601,-3.601,-3.601,-3.601,-4.0715,-4.1003,-4.0662,-4.0715,-4.0987,-4.1055,-4.144,-4.2029,-4.2158,-4.2381,-4.2555,-4.2555,-4.218,-4.1614,-4.1387,-4.0658,-3.9671,-3.946,-3.9153,-3.8699,-3.8634,-3.8456,-3.8424,-3.8391,-3.8391,-3.8391,-3.8391,-3.8391,-3.8391,-3.8391,-3.8391,-3.8391,-3.8391,-3.8391,-3.8391,-3.8391,-3.8391,-3.8391,-3.8391,-3.8391,-3.8391,-3.8391,-3.763,-3.6643,-3.6303,-3.5574,-3.4457,-3.4101,-3.4101,-3.4151,-3.4333,-3.4497,-3.4626,-3.4787,-3.5055,-3.5481,-3.5571,-3.6037,-3.6741,-3.6821,-3.69,-3.6995,-3.7411,-3.7577,-3.7577,-3.7577,-3.7613,-3.7613,-3.7721,-3.781,-3.7881,-3.7985,-3.8106,-3.8174,-3.8192,-3.8192,-3.8192,-3.8192,-3.8256,-3.846,-3.867,-3.8803,-3.8836,-3.8717,-3.8265,-3.8004,-3.7889,-3.7467,-3.6816,-3.6451,-3.6298,-3.6146,-3.5763,-3.5723,-3.5665,-3.5506,-3.535,-3.5308,-3.5388,-3.557,-3.5817,-3.6215,-3.6357,-3.6372,-3.6571,-3.6869,-3.654,-3.6069,-3.603,-3.601,-3.601,-3.601,-3.601,-3.6013,-3.6013,-4.0531,-4.107,-4.0935,-4.1256,-4.1654,-4.1272,-4.1573,-4.2318,-4.2445,-4.2508,-4.2571,-4.2571,-4.1921,-4.1177,-4.0756,-4.0156,-3.8991,-3.8764,-3.8489,-3.844,-3.8391,-3.8408,-3.8391,-3.8391,-3.8391,-3.8391,-3.8391,-3.8391,-3.8391,-3.8391,-3.8391,-3.8391,-3.8391,-3.8391,-3.8391,-3.8391,-3.8391,-3.8391,-3.8391,-3.8391,-3.8391,-3.8327,-3.7744,-3.64,-3.6303,-3.5574,-3.4246,-3.4117,-3.4101,-3.4151,-3.4349,-3.4578,-3.4802,-3.5008,-3.5165,-3.5571,-3.582,-3.644,-3.7073,-3.7374,-3.7374,-3.7411,-3.7449,-3.7577,-3.7577,-3.7577,-3.7613,-3.7667,-3.7721,-3.7846,-3.7967,-3.8072,-3.8174,-3.8192,-3.8192,-3.8192,-3.8192,-3.8225,-3.8289,-3.8579,-3.881,-3.874,-3.8715,-3.808,-3.7566,-3.7127,-3.6894,-3.6856,-3.6396,-3.5859,-3.5572,-3.557,-3.5398,-3.5356,-3.5277,-3.5308,-3.5339,-3.5354,-3.5393,-3.5468,-3.5739,-3.6028,-3.6304,-3.6481,-3.646,-3.6426,-3.6339,-3.6225,-3.6069,-3.601,-3.601,-3.6013,-3.6016,-3.6016,-3.6018,-3.9963,-4.052,-4.0419,-4.0732,-4.1342,-4.1302,-4.1785,-4.2492,-4.2571,-4.2571,-4.2571,-4.2601,-4.1857,-4.0853,-4.0383,-3.9719,-3.8489,-3.8408,-3.8408,-3.8391,-3.8391,-3.8391,-3.8391,-3.8391,-3.8391,-3.8391,-3.8391,-3.8391,-3.8391,-3.8391,-3.8391,-3.8391,-3.8391,-3.8391,-3.8391,-3.8391,-3.8391,-3.8391,-3.8391,-3.8391,-3.8391,-3.8213,-3.7695,-3.6707,-3.6125,-3.5606,-3.4538,-3.4101,-3.4101,-3.4201,-3.4382,-3.4691,-3.4897,-3.5178,-3.5333,-3.5776,-3.644,-3.6956,-3.7411,-3.7577,-3.754,-3.7577,-3.7577,-3.7577,-3.7577,-3.7577,-3.7649,-3.7685,-3.781,-3.7898,-3.7984,-3.814,-3.814,-3.8192,-3.8192,-3.8192,-3.8225,-3.8241,-3.8491,-3.8781,-3.8686,-3.8622,-3.8194,-3.7471,-3.6761,-3.6301,-3.584,-3.5916,-3.5995,-3.5572,-3.519,-3.5226,-3.5261,-3.5277,-3.5308,-3.532,-3.535,-3.5398,-3.5443,-3.5502,-3.5629,-3.5907,-3.6255,-3.6504,-3.6356,-3.6297,-3.6456,-3.6423,-3.613,-3.6013,-3.601,-3.6013,-3.6018,-3.6007,-3.5992,-3.8932,-3.9377,-3.9203,-3.9503,-4.0192,-4.1071,-4.1901,-4.2555,-4.2571,-4.2571,-4.2571,-4.2571,-4.1824,-4.0707,-4.0496,-3.9703,-3.8618,-3.8424,-3.8391,-3.8391,-3.8391,-3.8391,-3.8391,-3.8391,-3.8391,-3.8391,-3.8391,-3.8391,-3.8391,-3.8391,-3.8391,-3.8391,-3.8391,-3.8391,-3.8391,-3.8391,-3.8391,-3.8391,-3.8391,-3.8391,-3.8391,-3.8246,-3.7485,-3.6643,-3.606,-3.5347,-3.4522,-3.4101,-3.4151,-3.43,-3.4448,-3.4594,-3.4913,-3.5299,-3.5732,-3.6316,-3.7073,-3.7319,-3.7577,-3.7577,-3.7577,-3.7577,-3.7577,-3.7577,-3.7577,-3.7613,-3.7649,-3.7721,-3.781,-3.7898,-3.7984,-3.8036,-3.8088,-3.814,-3.8192,-3.8225,-3.8274,-3.8415,-3.8741,-3.8792,-3.8536,-3.8169,-3.7223,-3.6472,-3.6148,-3.5935,-3.5592,-3.5477,-3.5534,-3.5496,-3.5209,-3.5261,-3.5277,-3.5308,-3.532,-3.536,-3.543,-3.547,-3.5543,-3.56,-3.5704,-3.5794,-3.6059,-3.6196,-3.6098,-3.6108,-3.6264,-3.6247,-3.6074,-3.6013,-3.6013,-3.6013,-3.6018,-3.5976,-3.597,-3.8858,-3.9471,-3.9659,-3.9952,-4.0365,-4.0691,-4.1353,-4.2237,-4.2508,-4.2571,-4.2571,-4.2634,-4.1695,-4.0561,-4.048,-3.9573,-3.8861,-3.8391,-3.8391,-3.8391,-3.8391,-3.8391,-3.8391,-3.8391,-3.8391,-3.8391,-3.8391,-3.8391,-3.8391,-3.8391,-3.8391,-3.8391,-3.8391,-3.8391,-3.8391,-3.8391,-3.8391,-3.8391,-3.8391,-3.8391,-3.8213,-3.797,-3.7177,-3.6513,-3.5801,-3.504,-3.4376,-3.4101,-3.4151,-3.43,-3.4448,-3.4787,-3.5705,-3.5705,-3.582,-3.6603,-3.6995,-3.7206,-3.7503,-3.7577,-3.7577,-3.7577,-3.7577,-3.7577,-3.7577,-3.7613,-3.7649,-3.7775,-3.7846,-3.7933,-3.8054,-3.8088,-3.814,-3.8192,-3.8225,-3.8241,-3.8322,-3.8566,-3.884,-3.8621,-3.8369,-3.7471,-3.6511,-3.5916,-3.563,-3.5534,-3.5439,-3.5286,-3.519,-3.5209,-3.5207,-3.5277,-3.5324,-3.5335,-3.5388,-3.5438,-3.5502,-3.5543,-3.5621,-3.5704,-3.5794,-3.5864,-3.5934,-3.5974,-3.6007,-3.601,-3.6049,-3.6013,-3.6018,-3.6016,-3.6013,-3.6016,-3.6007,-3.5966,-3.5929,-3.8302,-3.8832,-3.9062,-3.9521,-4.0075,-4.0108,-4.0635,-4.1415,-4.1652,-4.1792,-4.1776,-4.1759,-4.116,-4.0205,-3.9994,-3.946,-3.8472,-3.8391,-3.8391,-3.8391,-3.8391,-3.8391,-3.8391,-3.8391,-3.8391,-3.8391,-3.8391,-3.8391,-3.8391,-3.8391,-3.8391,-3.8391,-3.8391,-3.8391,-3.8391,-3.8391,-3.8391,-3.8391,-3.8391,-3.8391,-3.81,-3.7663,-3.6999,-3.6287,-3.5542,-3.4813,-3.4214,-3.4117,-3.4201,-3.4399,-3.4594,-3.5068,-3.5907,-3.5994,-3.6357,-3.7055,-3.7243,-3.7374,-3.754,-3.7577,-3.7577,-3.7577,-3.7577,-3.7577,-3.7613,-3.7649,-3.7739,-3.7864,-3.7916,-3.7985,-3.8106,-3.8192,-3.8192,-3.8192,-3.8259,-3.8274,-3.8478,-3.873,-3.8614,-3.8422,-3.7791,-3.6898,-3.6146,-3.5534,-3.5209,-3.5286,-3.5324,-3.5302,-3.5226,-3.5261,-3.5258,-3.527,-3.5315,-3.536,-3.5438,-3.5507,-3.5557,-3.5641,-3.5721,-3.5801,-3.5889,-3.5914,-3.5974,-3.5985,-3.601,-3.601,-3.601,-3.6016,-3.6021,-3.6001,-3.5992,-3.5996,-3.596,-3.5918,-3.5909,-3.7421,-3.7934,-3.7943,-3.8583,-3.9347,-3.9395,-3.9752,-4.0302,-4.0335,-4.0415,-4.0545,-4.0561,-4.0237,-3.9735,-3.9606,-3.9185,-3.857,-3.8391,-3.8391,-3.8391,-3.8391,-3.8391,-3.8391,-3.8391,-3.8391,-3.8391,-3.8391,-3.8391,-3.8391,-3.8391,-3.8391,-3.8391,-3.8391,-3.8391,-3.8391,-3.8391,-3.8391,-3.8375,-3.8246,-3.8116,-3.7987,-3.7566,-3.6918,-3.6157,-3.5428,-3.4748,-3.4279,-3.4151,-3.4234,-3.4626,-3.4927,-3.5328,-3.5933,-3.6481,-3.7111,-3.7319,-3.7485,-3.754,-3.7577,-3.7577,-3.7577,-3.7577,-3.7577,-3.7613,-3.7649,-3.7631,-3.7757,-3.7846,-3.7951,-3.802,-3.814,-3.7902,-3.7775,-3.7824,-3.7889,-3.7767,-3.7729,-3.797,-3.8032,-3.7787,-3.7281,-3.6432,-3.5763,-3.519,-3.519,-3.519,-3.5226,-3.5261,-3.5277,-3.5293,-3.5289,-3.53,-3.5369,-3.5418,-3.5519,-3.5579,-3.566,-3.5729,-3.5814,-3.5869,-3.5934,-3.5974,-3.601,-3.6013,-3.6016,-3.6013,-3.6013,-3.6021,-3.601,-3.5995,-3.5974,-3.5965,-3.5937,-3.5883,-3.5852,-3.777,-3.7943,-3.8205,-3.8448,-3.8651,-3.8667,-3.8764,-3.8893,-3.8893,-3.9525,-4.0335,-4.0399,-4.0075,-3.946,-3.9379,-3.9007,-3.8537,-3.8391,-3.8391,-3.8391,-3.8391,-3.8391,-3.8391,-3.8391,-3.8391,-3.8391,-3.8391,-3.8391,-3.8391,-3.8391,-3.8391,-3.8391,-3.8391,-3.8391,-3.8391,-3.8391,-3.8375,-3.8246,-3.7922,-3.7614,-3.7355,-3.6853,-3.6206,-3.5509,-3.4797,-3.4424,-3.4151,-3.4201,-3.4545,-3.4958,-3.5191,-3.5742,-3.6563,-3.7111,-3.7449,-3.7577,-3.7577,-3.7577,-3.7577,-3.7577,-3.7577,-3.7577,-3.7613,-3.7649,-3.7685,-3.7703,-3.7739,-3.7863,-3.7985,-3.8106,-3.8047,-3.7667,-3.7374,-3.7453,-3.7458,-3.7229,-3.6974,-3.7193,-3.7381,-3.7091,-3.6684,-3.6088,-3.542,-3.519,-3.519,-3.5226,-3.5261,-3.5312,-3.5308,-3.5324,-3.5335,-3.536,-3.5425,-3.55,-3.5579,-3.566,-3.5721,-3.5814,-3.5904,-3.5947,-3.5978,-3.6004,-3.6013,-3.6021,-3.6003,-3.6021,-3.6005,-3.6011,-3.5996,-3.5971,-3.5955,-3.5924,-3.5873,-3.5813,-3.5773,-3.7479,-3.7697,-3.8206,-3.8391,-3.8391,-3.8391,-3.8391,-3.8391,-3.8391,-3.8829,-3.9476,-3.9525,-3.9347,-3.9023,-3.9007,-3.891,-3.8424,-3.8408,-3.8391,-3.8391,-3.8391,-3.8391,-3.8391,-3.8391,-3.8391,-3.8391,-3.8391,-3.8391,-3.8391,-3.8391,-3.8391,-3.8391,-3.8391,-3.8391,-3.8391,-3.8375,-3.8197,-3.7906,-3.7469,-3.7015,-3.6578,-3.5979,-3.5671,-3.5024,-3.4637,-3.4248,-3.4201,-3.4284,-3.469,-3.5311,-3.5742,-3.6381,-3.7017,-3.7411,-3.754,-3.7577,-3.7577,-3.7577,-3.7577,-3.7577,-3.7577,-3.7577,-3.7577,-3.7613,-3.7721,-3.7739,-3.781,-3.7951,-3.8072,-3.8174,-3.7975,-3.7631,-3.7412,-3.7361,-3.7058,-3.6728,-3.6756,-3.6936,-3.6958,-3.6766,-3.6298,-3.5687,-3.5229,-3.519,-3.519,-3.5209,-3.5261,-3.5308,-3.5339,-3.5369,-3.5364,-3.5402,-3.547,-3.5549,-3.5631,-3.5713,-3.5794,-3.5894,-3.5978,-3.5981,-3.6004,-3.6007,-3.6013,-3.6003,-3.6009,-3.6011,-3.6013,-3.5995,-3.5985,-3.5936,-3.5924,-3.5901,-3.582,-3.5751,-3.5701,-3.695,-3.7365,-3.8003,-3.8311,-3.8391,-3.8391,-3.8391,-3.8391,-3.8391,-3.8391,-3.8521,-3.8521,-3.8391,-3.8391,-3.8391,-3.8391,-3.8391,-3.8391,-3.8391,-3.8391,-3.8391,-3.8391,-3.8391,-3.8391,-3.8391,-3.8391,-3.8391,-3.8391,-3.8391,-3.8391,-3.8391,-3.8391,-3.8391,-3.8391,-3.8375,-3.8213,-3.7938,-3.7469,-3.695,-3.6287,-3.5704,-3.5153,-3.5121,-3.4913,-3.459,-3.4233,-3.425,-3.4382,-3.4754,-3.5448,-3.6172,-3.686,-3.7281,-3.7577,-3.7577,-3.7577,-3.7577,-3.7577,-3.7577,-3.7577,-3.7577,-3.7577,-3.7577,-3.7631,-3.7667,-3.7756,-3.7861,-3.7821,-3.7959,-3.7957,-3.7757,-3.7421,-3.7197,-3.6861,-3.6463,-3.6311,-3.6487,-3.6559,-3.6423,-3.6301,-3.5878,-3.5286,-3.5229,-3.5209,-3.5209,-3.5226,-3.5258,-3.5289,-3.5335,-3.5393,-3.5441,-3.5476,-3.5514,-3.559,-3.5668,-3.5774,-3.5864,-3.5914,-3.6007,-3.601,-3.601,-3.601,-3.6016,-3.6005,-3.601,-3.5996,-3.5986,-3.5958,-3.595,-3.5909,-3.5853,-3.5809,-3.5759,-3.5689,-3.5659,-3.675,-3.7323,-3.7485,-3.7841,-3.8311,-3.8375,-3.8391,-3.8391,-3.8391,-3.8391,-3.8391,-3.8391,-3.8391,-3.8391,-3.8391,-3.8391,-3.8391,-3.8391,-3.8391,-3.8391,-3.8391,-3.8391,-3.8391,-3.8391,-3.8391,-3.8391,-3.8391,-3.8391,-3.8391,-3.8391,-3.8391,-3.8391,-3.8359,-3.8327,-3.8262,-3.7954,-3.7371,-3.6902,-3.6222,-3.5509,-3.5412,-3.5007,-3.4764,-3.4505,-3.4182,-3.4201,-3.425,-3.4382,-3.4849,-3.5509,-3.6357,-3.7073,-3.7411,-3.7577,-3.7577,-3.7577,-3.7577,-3.7577,-3.7577,-3.7577,-3.7577,-3.7452,-3.7417,-3.7488,-3.7541,-3.7592,-3.7551,-3.7238,-3.7341,-3.7482,-3.7261,-3.6687,-3.6337,-3.5798,-3.5337,-3.5784,-3.6141,-3.5891,-3.5619,-3.5594,-3.5458,-3.5209,-3.5229,-3.5226,-3.5277,-3.5293,-3.532,-3.535,-3.5364,-3.5422,-3.5509,-3.554,-3.5581,-3.56,-3.5685,-3.5839,-3.5942,-3.5981,-3.601,-3.601,-3.601,-3.601,-3.6018,-3.601,-3.5995,-3.5977,-3.5958,-3.5931,-3.5872,-3.5823,-3.5775,-3.5728,-3.5678,-3.5647,-3.5604]}]]